<?xml version="1.0" encoding="UTF-8" standalone="no" ?>
<gpx xmlns="http://www.topografix.com/GPX/1/1" xmlns:xsi="http://www.w3.org/2001/XMLSchema-instance" xsi:schemaLocation="http://www.topografix.com/GPX/1/1 http://www.topografix.com/GPX/1/1/gpx.xsd" version="1.1" creator="VisuGPX - https://www.visugpx.com">
  <metadata>
    <name>sommet de Géruen</name>
    <desc><![CDATA[Sommet  de géruen par la crête depuis le col puisque dégagée de la neige]]></desc>
  </metadata>
  <trk>
    <name><![CDATA[20190304091214-TtEHM]]></name>
    <trkseg>
      <trkpt lat="44.21521" lon="6.14703">
        <ele>1333.01</ele>
        <time>2019-03-03T08:53:31Z</time>
      </trkpt>
      <trkpt lat="44.21521" lon="6.14703">
        <ele>1336.85</ele>
        <time>2019-03-03T08:53:32Z</time>
      </trkpt>
      <trkpt lat="44.21521" lon="6.14703">
        <ele>1336.37</ele>
        <time>2019-03-03T08:53:49Z</time>
      </trkpt>
      <trkpt lat="44.21521" lon="6.14704">
        <ele>1336.85</ele>
        <time>2019-03-03T08:54:14Z</time>
      </trkpt>
      <trkpt lat="44.21528" lon="6.14708">
        <ele>1337.81</ele>
        <time>2019-03-03T08:54:28Z</time>
      </trkpt>
      <trkpt lat="44.21529" lon="6.14715">
        <ele>1338.29</ele>
        <time>2019-03-03T08:54:40Z</time>
      </trkpt>
      <trkpt lat="44.21528" lon="6.14717">
        <ele>1337.81</ele>
        <time>2019-03-03T08:54:42Z</time>
      </trkpt>
      <trkpt lat="44.21527" lon="6.14734">
        <ele>1337.33</ele>
        <time>2019-03-03T08:54:56Z</time>
      </trkpt>
      <trkpt lat="44.21528" lon="6.14757">
        <ele>1337.33</ele>
        <time>2019-03-03T08:55:11Z</time>
      </trkpt>
      <trkpt lat="44.21536" lon="6.14773">
        <ele>1335.89</ele>
        <time>2019-03-03T08:55:26Z</time>
      </trkpt>
      <trkpt lat="44.21539" lon="6.14775">
        <ele>1336.37</ele>
        <time>2019-03-03T08:55:30Z</time>
      </trkpt>
      <trkpt lat="44.21545" lon="6.14783">
        <ele>1335.89</ele>
        <time>2019-03-03T08:55:44Z</time>
      </trkpt>
      <trkpt lat="44.21549" lon="6.1478">
        <ele>1336.37</ele>
        <time>2019-03-03T08:55:56Z</time>
      </trkpt>
      <trkpt lat="44.21554" lon="6.14784">
        <ele>1334.45</ele>
        <time>2019-03-03T08:56:00Z</time>
      </trkpt>
      <trkpt lat="44.21555" lon="6.14786">
        <ele>1334.93</ele>
        <time>2019-03-03T08:56:02Z</time>
      </trkpt>
      <trkpt lat="44.21565" lon="6.14799">
        <ele>1335.89</ele>
        <time>2019-03-03T08:56:16Z</time>
      </trkpt>
      <trkpt lat="44.21566" lon="6.14809">
        <ele>1336.37</ele>
        <time>2019-03-03T08:56:24Z</time>
      </trkpt>
      <trkpt lat="44.2157" lon="6.14824">
        <ele>1337.33</ele>
        <time>2019-03-03T08:56:39Z</time>
      </trkpt>
      <trkpt lat="44.21569" lon="6.14832">
        <ele>1337.81</ele>
        <time>2019-03-03T08:56:46Z</time>
      </trkpt>
      <trkpt lat="44.21568" lon="6.14847">
        <ele>1338.77</ele>
        <time>2019-03-03T08:57:01Z</time>
      </trkpt>
      <trkpt lat="44.2157" lon="6.14857">
        <ele>1339.73</ele>
        <time>2019-03-03T08:57:11Z</time>
      </trkpt>
      <trkpt lat="44.21578" lon="6.14866">
        <ele>1340.7</ele>
        <time>2019-03-03T08:57:22Z</time>
      </trkpt>
      <trkpt lat="44.21582" lon="6.14862">
        <ele>1340.7</ele>
        <time>2019-03-03T08:57:28Z</time>
      </trkpt>
      <trkpt lat="44.21595" lon="6.14862">
        <ele>1341.66</ele>
        <time>2019-03-03T08:57:42Z</time>
      </trkpt>
      <trkpt lat="44.21597" lon="6.14863">
        <ele>1342.14</ele>
        <time>2019-03-03T08:57:47Z</time>
      </trkpt>
      <trkpt lat="44.21612" lon="6.14861">
        <ele>1343.1</ele>
        <time>2019-03-03T08:58:01Z</time>
      </trkpt>
      <trkpt lat="44.2162" lon="6.1486">
        <ele>1343.58</ele>
        <time>2019-03-03T08:58:15Z</time>
      </trkpt>
      <trkpt lat="44.21628" lon="6.1486">
        <ele>1344.54</ele>
        <time>2019-03-03T08:58:23Z</time>
      </trkpt>
      <trkpt lat="44.21637" lon="6.14859">
        <ele>1345.02</ele>
        <time>2019-03-03T08:58:31Z</time>
      </trkpt>
      <trkpt lat="44.21649" lon="6.14854">
        <ele>1345.5</ele>
        <time>2019-03-03T08:58:43Z</time>
      </trkpt>
      <trkpt lat="44.21653" lon="6.14852">
        <ele>1345.98</ele>
        <time>2019-03-03T08:58:49Z</time>
      </trkpt>
      <trkpt lat="44.21663" lon="6.14845">
        <ele>1346.94</ele>
        <time>2019-03-03T08:59:00Z</time>
      </trkpt>
      <trkpt lat="44.21679" lon="6.14841">
        <ele>1347.43</ele>
        <time>2019-03-03T08:59:09Z</time>
      </trkpt>
      <trkpt lat="44.21691" lon="6.14861">
        <ele>1347.43</ele>
        <time>2019-03-03T08:59:27Z</time>
      </trkpt>
      <trkpt lat="44.21692" lon="6.14863">
        <ele>1347.43</ele>
        <time>2019-03-03T08:59:30Z</time>
      </trkpt>
      <trkpt lat="44.217" lon="6.14869">
        <ele>1347.91</ele>
        <time>2019-03-03T08:59:39Z</time>
      </trkpt>
      <trkpt lat="44.21708" lon="6.14888">
        <ele>1346.94</ele>
        <time>2019-03-03T08:59:54Z</time>
      </trkpt>
      <trkpt lat="44.21714" lon="6.14896">
        <ele>1345.5</ele>
        <time>2019-03-03T09:00:08Z</time>
      </trkpt>
      <trkpt lat="44.21715" lon="6.14895">
        <ele>1345.5</ele>
        <time>2019-03-03T09:00:26Z</time>
      </trkpt>
      <trkpt lat="44.21716" lon="6.14891">
        <ele>1345.98</ele>
        <time>2019-03-03T09:00:40Z</time>
      </trkpt>
      <trkpt lat="44.21721" lon="6.14906">
        <ele>1345.98</ele>
        <time>2019-03-03T09:00:54Z</time>
      </trkpt>
      <trkpt lat="44.2172" lon="6.14917">
        <ele>1344.06</ele>
        <time>2019-03-03T09:01:06Z</time>
      </trkpt>
      <trkpt lat="44.2172" lon="6.14917">
        <ele>1344.54</ele>
        <time>2019-03-03T09:01:21Z</time>
      </trkpt>
      <trkpt lat="44.21721" lon="6.14917">
        <ele>1343.58</ele>
        <time>2019-03-03T09:01:31Z</time>
      </trkpt>
      <trkpt lat="44.21721" lon="6.14917">
        <ele>1343.1</ele>
        <time>2019-03-03T09:01:51Z</time>
      </trkpt>
      <trkpt lat="44.21721" lon="6.14917">
        <ele>1343.1</ele>
        <time>2019-03-03T09:02:10Z</time>
      </trkpt>
      <trkpt lat="44.2172" lon="6.14917">
        <ele>1342.62</ele>
        <time>2019-03-03T09:02:20Z</time>
      </trkpt>
      <trkpt lat="44.2172" lon="6.14917">
        <ele>1342.62</ele>
        <time>2019-03-03T09:02:54Z</time>
      </trkpt>
      <trkpt lat="44.2172" lon="6.14917">
        <ele>1342.62</ele>
        <time>2019-03-03T09:03:22Z</time>
      </trkpt>
      <trkpt lat="44.2172" lon="6.14917">
        <ele>1342.62</ele>
        <time>2019-03-03T09:04:00Z</time>
      </trkpt>
      <trkpt lat="44.21721" lon="6.14916">
        <ele>1342.14</ele>
        <time>2019-03-03T09:04:29Z</time>
      </trkpt>
      <trkpt lat="44.21721" lon="6.14915">
        <ele>1343.1</ele>
        <time>2019-03-03T09:04:55Z</time>
      </trkpt>
      <trkpt lat="44.21721" lon="6.1492">
        <ele>1343.1</ele>
        <time>2019-03-03T09:05:06Z</time>
      </trkpt>
      <trkpt lat="44.21723" lon="6.14925">
        <ele>1342.62</ele>
        <time>2019-03-03T09:05:20Z</time>
      </trkpt>
      <trkpt lat="44.21722" lon="6.14922">
        <ele>1342.14</ele>
        <time>2019-03-03T09:05:35Z</time>
      </trkpt>
      <trkpt lat="44.21723" lon="6.14923">
        <ele>1342.14</ele>
        <time>2019-03-03T09:05:48Z</time>
      </trkpt>
      <trkpt lat="44.21726" lon="6.14927">
        <ele>1341.66</ele>
        <time>2019-03-03T09:06:01Z</time>
      </trkpt>
      <trkpt lat="44.21726" lon="6.14927">
        <ele>1341.66</ele>
        <time>2019-03-03T09:06:24Z</time>
      </trkpt>
      <trkpt lat="44.21726" lon="6.14926">
        <ele>1341.18</ele>
        <time>2019-03-03T09:06:37Z</time>
      </trkpt>
      <trkpt lat="44.21726" lon="6.14926">
        <ele>1341.66</ele>
        <time>2019-03-03T09:06:59Z</time>
      </trkpt>
      <trkpt lat="44.21725" lon="6.14926">
        <ele>1341.18</ele>
        <time>2019-03-03T09:07:19Z</time>
      </trkpt>
      <trkpt lat="44.21724" lon="6.14927">
        <ele>1340.7</ele>
        <time>2019-03-03T09:07:39Z</time>
      </trkpt>
      <trkpt lat="44.21724" lon="6.14927">
        <ele>1340.7</ele>
        <time>2019-03-03T09:08:01Z</time>
      </trkpt>
      <trkpt lat="44.21724" lon="6.14928">
        <ele>1339.73</ele>
        <time>2019-03-03T09:08:15Z</time>
      </trkpt>
      <trkpt lat="44.21724" lon="6.14928">
        <ele>1339.73</ele>
        <time>2019-03-03T09:08:35Z</time>
      </trkpt>
      <trkpt lat="44.21725" lon="6.14928">
        <ele>1339.25</ele>
        <time>2019-03-03T09:09:00Z</time>
      </trkpt>
      <trkpt lat="44.21725" lon="6.14928">
        <ele>1339.25</ele>
        <time>2019-03-03T09:09:22Z</time>
      </trkpt>
      <trkpt lat="44.21726" lon="6.14927">
        <ele>1339.73</ele>
        <time>2019-03-03T09:09:36Z</time>
      </trkpt>
      <trkpt lat="44.21734" lon="6.14918">
        <ele>1339.73</ele>
        <time>2019-03-03T09:09:51Z</time>
      </trkpt>
      <trkpt lat="44.2174" lon="6.14912">
        <ele>1339.73</ele>
        <time>2019-03-03T09:09:58Z</time>
      </trkpt>
      <trkpt lat="44.21742" lon="6.14906">
        <ele>1339.25</ele>
        <time>2019-03-03T09:10:03Z</time>
      </trkpt>
      <trkpt lat="44.21743" lon="6.14901">
        <ele>1338.77</ele>
        <time>2019-03-03T09:10:15Z</time>
      </trkpt>
      <trkpt lat="44.21743" lon="6.14901">
        <ele>1338.77</ele>
        <time>2019-03-03T09:10:36Z</time>
      </trkpt>
      <trkpt lat="44.21743" lon="6.14902">
        <ele>1338.77</ele>
        <time>2019-03-03T09:10:53Z</time>
      </trkpt>
      <trkpt lat="44.21743" lon="6.14902">
        <ele>1337.81</ele>
        <time>2019-03-03T09:11:24Z</time>
      </trkpt>
      <trkpt lat="44.21745" lon="6.14898">
        <ele>1337.81</ele>
        <time>2019-03-03T09:11:39Z</time>
      </trkpt>
      <trkpt lat="44.21746" lon="6.14896">
        <ele>1337.81</ele>
        <time>2019-03-03T09:11:40Z</time>
      </trkpt>
      <trkpt lat="44.21753" lon="6.14871">
        <ele>1338.29</ele>
        <time>2019-03-03T09:11:56Z</time>
      </trkpt>
      <trkpt lat="44.21755" lon="6.14857">
        <ele>1337.81</ele>
        <time>2019-03-03T09:12:03Z</time>
      </trkpt>
      <trkpt lat="44.21771" lon="6.14846">
        <ele>1338.77</ele>
        <time>2019-03-03T09:12:17Z</time>
      </trkpt>
      <trkpt lat="44.21774" lon="6.14844">
        <ele>1338.77</ele>
        <time>2019-03-03T09:12:19Z</time>
      </trkpt>
      <trkpt lat="44.21777" lon="6.14823">
        <ele>1339.25</ele>
        <time>2019-03-03T09:12:33Z</time>
      </trkpt>
      <trkpt lat="44.21775" lon="6.14814">
        <ele>1338.77</ele>
        <time>2019-03-03T09:12:39Z</time>
      </trkpt>
      <trkpt lat="44.21782" lon="6.1479">
        <ele>1338.29</ele>
        <time>2019-03-03T09:12:55Z</time>
      </trkpt>
      <trkpt lat="44.21792" lon="6.14773">
        <ele>1338.77</ele>
        <time>2019-03-03T09:13:09Z</time>
      </trkpt>
      <trkpt lat="44.21804" lon="6.14757">
        <ele>1338.77</ele>
        <time>2019-03-03T09:13:24Z</time>
      </trkpt>
      <trkpt lat="44.21816" lon="6.14743">
        <ele>1338.29</ele>
        <time>2019-03-03T09:13:38Z</time>
      </trkpt>
      <trkpt lat="44.21817" lon="6.14743">
        <ele>1338.29</ele>
        <time>2019-03-03T09:13:39Z</time>
      </trkpt>
      <trkpt lat="44.21823" lon="6.14741">
        <ele>1338.77</ele>
        <time>2019-03-03T09:13:54Z</time>
      </trkpt>
      <trkpt lat="44.2184" lon="6.1474">
        <ele>1338.77</ele>
        <time>2019-03-03T09:14:09Z</time>
      </trkpt>
      <trkpt lat="44.21853" lon="6.14733">
        <ele>1340.22</ele>
        <time>2019-03-03T09:14:23Z</time>
      </trkpt>
      <trkpt lat="44.21859" lon="6.1473">
        <ele>1340.22</ele>
        <time>2019-03-03T09:14:29Z</time>
      </trkpt>
      <trkpt lat="44.21866" lon="6.14722">
        <ele>1341.18</ele>
        <time>2019-03-03T09:14:38Z</time>
      </trkpt>
      <trkpt lat="44.21869" lon="6.1472">
        <ele>1341.66</ele>
        <time>2019-03-03T09:14:40Z</time>
      </trkpt>
      <trkpt lat="44.21883" lon="6.14704">
        <ele>1342.62</ele>
        <time>2019-03-03T09:14:56Z</time>
      </trkpt>
      <trkpt lat="44.21894" lon="6.14694">
        <ele>1344.06</ele>
        <time>2019-03-03T09:15:09Z</time>
      </trkpt>
      <trkpt lat="44.21899" lon="6.14686">
        <ele>1344.54</ele>
        <time>2019-03-03T09:15:17Z</time>
      </trkpt>
      <trkpt lat="44.21902" lon="6.14685">
        <ele>1344.06</ele>
        <time>2019-03-03T09:15:19Z</time>
      </trkpt>
      <trkpt lat="44.21917" lon="6.14669">
        <ele>1344.06</ele>
        <time>2019-03-03T09:15:34Z</time>
      </trkpt>
      <trkpt lat="44.21918" lon="6.14667">
        <ele>1343.58</ele>
        <time>2019-03-03T09:15:36Z</time>
      </trkpt>
      <trkpt lat="44.21925" lon="6.1466">
        <ele>1344.54</ele>
        <time>2019-03-03T09:15:43Z</time>
      </trkpt>
      <trkpt lat="44.21937" lon="6.14642">
        <ele>1343.58</ele>
        <time>2019-03-03T09:15:59Z</time>
      </trkpt>
      <trkpt lat="44.21944" lon="6.14634">
        <ele>1344.06</ele>
        <time>2019-03-03T09:16:06Z</time>
      </trkpt>
      <trkpt lat="44.21961" lon="6.1463">
        <ele>1345.02</ele>
        <time>2019-03-03T09:16:22Z</time>
      </trkpt>
      <trkpt lat="44.21978" lon="6.1463">
        <ele>1344.54</ele>
        <time>2019-03-03T09:16:37Z</time>
      </trkpt>
      <trkpt lat="44.21993" lon="6.1463">
        <ele>1345.02</ele>
        <time>2019-03-03T09:16:53Z</time>
      </trkpt>
      <trkpt lat="44.21998" lon="6.1463">
        <ele>1345.02</ele>
        <time>2019-03-03T09:16:58Z</time>
      </trkpt>
      <trkpt lat="44.2201" lon="6.14641">
        <ele>1345.5</ele>
        <time>2019-03-03T09:17:13Z</time>
      </trkpt>
      <trkpt lat="44.22011" lon="6.14646">
        <ele>1345.5</ele>
        <time>2019-03-03T09:17:16Z</time>
      </trkpt>
      <trkpt lat="44.22022" lon="6.14651">
        <ele>1345.98</ele>
        <time>2019-03-03T09:17:26Z</time>
      </trkpt>
      <trkpt lat="44.22026" lon="6.14653">
        <ele>1345.5</ele>
        <time>2019-03-03T09:17:30Z</time>
      </trkpt>
      <trkpt lat="44.22043" lon="6.14656">
        <ele>1345.98</ele>
        <time>2019-03-03T09:17:45Z</time>
      </trkpt>
      <trkpt lat="44.22057" lon="6.14644">
        <ele>1346.94</ele>
        <time>2019-03-03T09:17:59Z</time>
      </trkpt>
      <trkpt lat="44.2207" lon="6.14632">
        <ele>1348.39</ele>
        <time>2019-03-03T09:18:14Z</time>
      </trkpt>
      <trkpt lat="44.22073" lon="6.14631">
        <ele>1348.39</ele>
        <time>2019-03-03T09:18:16Z</time>
      </trkpt>
      <trkpt lat="44.2208" lon="6.14626">
        <ele>1348.87</ele>
        <time>2019-03-03T09:18:24Z</time>
      </trkpt>
      <trkpt lat="44.22096" lon="6.14616">
        <ele>1349.83</ele>
        <time>2019-03-03T09:18:39Z</time>
      </trkpt>
      <trkpt lat="44.22108" lon="6.14607">
        <ele>1351.27</ele>
        <time>2019-03-03T09:18:53Z</time>
      </trkpt>
      <trkpt lat="44.22122" lon="6.146">
        <ele>1352.71</ele>
        <time>2019-03-03T09:19:07Z</time>
      </trkpt>
      <trkpt lat="44.22136" lon="6.14597">
        <ele>1352.71</ele>
        <time>2019-03-03T09:19:20Z</time>
      </trkpt>
      <trkpt lat="44.22139" lon="6.14596">
        <ele>1352.71</ele>
        <time>2019-03-03T09:19:23Z</time>
      </trkpt>
      <trkpt lat="44.22156" lon="6.14601">
        <ele>1354.63</ele>
        <time>2019-03-03T09:19:40Z</time>
      </trkpt>
      <trkpt lat="44.2217" lon="6.14613">
        <ele>1355.6</ele>
        <time>2019-03-03T09:19:55Z</time>
      </trkpt>
      <trkpt lat="44.22173" lon="6.14617">
        <ele>1356.08</ele>
        <time>2019-03-03T09:19:59Z</time>
      </trkpt>
      <trkpt lat="44.22178" lon="6.14637">
        <ele>1357.52</ele>
        <time>2019-03-03T09:20:15Z</time>
      </trkpt>
      <trkpt lat="44.22184" lon="6.14654">
        <ele>1358.96</ele>
        <time>2019-03-03T09:20:29Z</time>
      </trkpt>
      <trkpt lat="44.22192" lon="6.14669">
        <ele>1359.44</ele>
        <time>2019-03-03T09:20:42Z</time>
      </trkpt>
      <trkpt lat="44.22195" lon="6.1467">
        <ele>1359.92</ele>
        <time>2019-03-03T09:20:44Z</time>
      </trkpt>
      <trkpt lat="44.22201" lon="6.14676">
        <ele>1359.92</ele>
        <time>2019-03-03T09:20:51Z</time>
      </trkpt>
      <trkpt lat="44.22205" lon="6.14677">
        <ele>1359.92</ele>
        <time>2019-03-03T09:20:55Z</time>
      </trkpt>
      <trkpt lat="44.22214" lon="6.14676">
        <ele>1360.88</ele>
        <time>2019-03-03T09:21:02Z</time>
      </trkpt>
      <trkpt lat="44.22216" lon="6.14674">
        <ele>1361.36</ele>
        <time>2019-03-03T09:21:04Z</time>
      </trkpt>
      <trkpt lat="44.22219" lon="6.14652">
        <ele>1362.33</ele>
        <time>2019-03-03T09:21:19Z</time>
      </trkpt>
      <trkpt lat="44.22219" lon="6.1465">
        <ele>1362.81</ele>
        <time>2019-03-03T09:21:20Z</time>
      </trkpt>
      <trkpt lat="44.22224" lon="6.14635">
        <ele>1362.81</ele>
        <time>2019-03-03T09:21:32Z</time>
      </trkpt>
      <trkpt lat="44.22239" lon="6.14624">
        <ele>1364.25</ele>
        <time>2019-03-03T09:21:47Z</time>
      </trkpt>
      <trkpt lat="44.22245" lon="6.14617">
        <ele>1364.73</ele>
        <time>2019-03-03T09:21:55Z</time>
      </trkpt>
      <trkpt lat="44.22252" lon="6.14611">
        <ele>1365.69</ele>
        <time>2019-03-03T09:22:04Z</time>
      </trkpt>
      <trkpt lat="44.22255" lon="6.14605">
        <ele>1365.69</ele>
        <time>2019-03-03T09:22:10Z</time>
      </trkpt>
      <trkpt lat="44.22266" lon="6.14598">
        <ele>1367.13</ele>
        <time>2019-03-03T09:22:23Z</time>
      </trkpt>
      <trkpt lat="44.22269" lon="6.14596">
        <ele>1367.61</ele>
        <time>2019-03-03T09:22:25Z</time>
      </trkpt>
      <trkpt lat="44.22272" lon="6.14596">
        <ele>1367.61</ele>
        <time>2019-03-03T09:22:28Z</time>
      </trkpt>
      <trkpt lat="44.22286" lon="6.1459">
        <ele>1368.09</ele>
        <time>2019-03-03T09:22:43Z</time>
      </trkpt>
      <trkpt lat="44.22301" lon="6.14592">
        <ele>1369.54</ele>
        <time>2019-03-03T09:22:57Z</time>
      </trkpt>
      <trkpt lat="44.22303" lon="6.14593">
        <ele>1369.54</ele>
        <time>2019-03-03T09:23:07Z</time>
      </trkpt>
      <trkpt lat="44.22322" lon="6.14599">
        <ele>1370.98</ele>
        <time>2019-03-03T09:23:23Z</time>
      </trkpt>
      <trkpt lat="44.22327" lon="6.14594">
        <ele>1370.98</ele>
        <time>2019-03-03T09:23:36Z</time>
      </trkpt>
      <trkpt lat="44.22329" lon="6.14598">
        <ele>1370.98</ele>
        <time>2019-03-03T09:23:48Z</time>
      </trkpt>
      <trkpt lat="44.22329" lon="6.14603">
        <ele>1371.94</ele>
        <time>2019-03-03T09:23:56Z</time>
      </trkpt>
      <trkpt lat="44.22327" lon="6.14605">
        <ele>1371.46</ele>
        <time>2019-03-03T09:24:12Z</time>
      </trkpt>
      <trkpt lat="44.22327" lon="6.14605">
        <ele>1370.98</ele>
        <time>2019-03-03T09:24:41Z</time>
      </trkpt>
      <trkpt lat="44.22327" lon="6.14605">
        <ele>1370.98</ele>
        <time>2019-03-03T09:25:15Z</time>
      </trkpt>
      <trkpt lat="44.22327" lon="6.14604">
        <ele>1370.98</ele>
        <time>2019-03-03T09:25:32Z</time>
      </trkpt>
      <trkpt lat="44.22327" lon="6.14605">
        <ele>1371.46</ele>
        <time>2019-03-03T09:25:49Z</time>
      </trkpt>
      <trkpt lat="44.22327" lon="6.14607">
        <ele>1371.94</ele>
        <time>2019-03-03T09:26:08Z</time>
      </trkpt>
      <trkpt lat="44.22326" lon="6.14608">
        <ele>1371.94</ele>
        <time>2019-03-03T09:26:09Z</time>
      </trkpt>
      <trkpt lat="44.22321" lon="6.14619">
        <ele>1372.9</ele>
        <time>2019-03-03T09:26:18Z</time>
      </trkpt>
      <trkpt lat="44.22308" lon="6.14629">
        <ele>1373.86</ele>
        <time>2019-03-03T09:26:32Z</time>
      </trkpt>
      <trkpt lat="44.22303" lon="6.14637">
        <ele>1375.3</ele>
        <time>2019-03-03T09:26:41Z</time>
      </trkpt>
      <trkpt lat="44.223" lon="6.14648">
        <ele>1375.3</ele>
        <time>2019-03-03T09:26:54Z</time>
      </trkpt>
      <trkpt lat="44.223" lon="6.14648">
        <ele>1374.82</ele>
        <time>2019-03-03T09:26:55Z</time>
      </trkpt>
      <trkpt lat="44.22296" lon="6.14664">
        <ele>1377.23</ele>
        <time>2019-03-03T09:27:09Z</time>
      </trkpt>
      <trkpt lat="44.22292" lon="6.1468">
        <ele>1378.19</ele>
        <time>2019-03-03T09:27:21Z</time>
      </trkpt>
      <trkpt lat="44.2229" lon="6.14702">
        <ele>1379.15</ele>
        <time>2019-03-03T09:27:37Z</time>
      </trkpt>
      <trkpt lat="44.22295" lon="6.14704">
        <ele>1379.63</ele>
        <time>2019-03-03T09:27:41Z</time>
      </trkpt>
      <trkpt lat="44.223" lon="6.14703">
        <ele>1379.63</ele>
        <time>2019-03-03T09:27:45Z</time>
      </trkpt>
      <trkpt lat="44.22303" lon="6.14708">
        <ele>1380.59</ele>
        <time>2019-03-03T09:27:51Z</time>
      </trkpt>
      <trkpt lat="44.22302" lon="6.14713">
        <ele>1380.59</ele>
        <time>2019-03-03T09:27:55Z</time>
      </trkpt>
      <trkpt lat="44.22298" lon="6.14721">
        <ele>1381.55</ele>
        <time>2019-03-03T09:28:02Z</time>
      </trkpt>
      <trkpt lat="44.22305" lon="6.14737">
        <ele>1382.51</ele>
        <time>2019-03-03T09:28:16Z</time>
      </trkpt>
      <trkpt lat="44.22316" lon="6.1475">
        <ele>1383.96</ele>
        <time>2019-03-03T09:28:32Z</time>
      </trkpt>
      <trkpt lat="44.22315" lon="6.14767">
        <ele>1385.88</ele>
        <time>2019-03-03T09:28:48Z</time>
      </trkpt>
      <trkpt lat="44.22315" lon="6.14774">
        <ele>1385.4</ele>
        <time>2019-03-03T09:28:53Z</time>
      </trkpt>
      <trkpt lat="44.22315" lon="6.14777">
        <ele>1386.36</ele>
        <time>2019-03-03T09:28:55Z</time>
      </trkpt>
      <trkpt lat="44.22311" lon="6.14788">
        <ele>1387.8</ele>
        <time>2019-03-03T09:29:10Z</time>
      </trkpt>
      <trkpt lat="44.2231" lon="6.14788">
        <ele>1388.28</ele>
        <time>2019-03-03T09:29:11Z</time>
      </trkpt>
      <trkpt lat="44.22306" lon="6.14789">
        <ele>1388.76</ele>
        <time>2019-03-03T09:29:15Z</time>
      </trkpt>
      <trkpt lat="44.22299" lon="6.14789">
        <ele>1389.24</ele>
        <time>2019-03-03T09:29:21Z</time>
      </trkpt>
      <trkpt lat="44.22295" lon="6.14791">
        <ele>1389.24</ele>
        <time>2019-03-03T09:29:25Z</time>
      </trkpt>
      <trkpt lat="44.2228" lon="6.14798">
        <ele>1391.17</ele>
        <time>2019-03-03T09:29:41Z</time>
      </trkpt>
      <trkpt lat="44.22276" lon="6.14803">
        <ele>1391.65</ele>
        <time>2019-03-03T09:29:46Z</time>
      </trkpt>
      <trkpt lat="44.22271" lon="6.14821">
        <ele>1392.61</ele>
        <time>2019-03-03T09:30:02Z</time>
      </trkpt>
      <trkpt lat="44.22267" lon="6.1484">
        <ele>1394.05</ele>
        <time>2019-03-03T09:30:17Z</time>
      </trkpt>
      <trkpt lat="44.22264" lon="6.14856">
        <ele>1395.49</ele>
        <time>2019-03-03T09:30:32Z</time>
      </trkpt>
      <trkpt lat="44.22264" lon="6.14861">
        <ele>1395.49</ele>
        <time>2019-03-03T09:30:37Z</time>
      </trkpt>
      <trkpt lat="44.22263" lon="6.14875">
        <ele>1396.93</ele>
        <time>2019-03-03T09:30:50Z</time>
      </trkpt>
      <trkpt lat="44.22266" lon="6.14888">
        <ele>1398.37</ele>
        <time>2019-03-03T09:31:02Z</time>
      </trkpt>
      <trkpt lat="44.22269" lon="6.14896">
        <ele>1398.86</ele>
        <time>2019-03-03T09:31:13Z</time>
      </trkpt>
      <trkpt lat="44.22274" lon="6.14906">
        <ele>1399.82</ele>
        <time>2019-03-03T09:31:27Z</time>
      </trkpt>
      <trkpt lat="44.2228" lon="6.14909">
        <ele>1399.82</ele>
        <time>2019-03-03T09:31:39Z</time>
      </trkpt>
      <trkpt lat="44.22288" lon="6.14914">
        <ele>1401.26</ele>
        <time>2019-03-03T09:31:50Z</time>
      </trkpt>
      <trkpt lat="44.22289" lon="6.14914">
        <ele>1401.26</ele>
        <time>2019-03-03T09:31:51Z</time>
      </trkpt>
      <trkpt lat="44.22302" lon="6.14922">
        <ele>1402.22</ele>
        <time>2019-03-03T09:32:07Z</time>
      </trkpt>
      <trkpt lat="44.22306" lon="6.14931">
        <ele>1403.18</ele>
        <time>2019-03-03T09:32:19Z</time>
      </trkpt>
      <trkpt lat="44.22302" lon="6.14936">
        <ele>1404.14</ele>
        <time>2019-03-03T09:32:25Z</time>
      </trkpt>
      <trkpt lat="44.223" lon="6.14937">
        <ele>1404.62</ele>
        <time>2019-03-03T09:32:27Z</time>
      </trkpt>
      <trkpt lat="44.2229" lon="6.14949">
        <ele>1406.07</ele>
        <time>2019-03-03T09:32:41Z</time>
      </trkpt>
      <trkpt lat="44.22285" lon="6.14961">
        <ele>1406.55</ele>
        <time>2019-03-03T09:32:54Z</time>
      </trkpt>
      <trkpt lat="44.22276" lon="6.14965">
        <ele>1407.51</ele>
        <time>2019-03-03T09:33:09Z</time>
      </trkpt>
      <trkpt lat="44.22274" lon="6.14957">
        <ele>1407.99</ele>
        <time>2019-03-03T09:33:18Z</time>
      </trkpt>
      <trkpt lat="44.22268" lon="6.14954">
        <ele>1408.95</ele>
        <time>2019-03-03T09:33:25Z</time>
      </trkpt>
      <trkpt lat="44.22252" lon="6.14955">
        <ele>1409.43</ele>
        <time>2019-03-03T09:33:42Z</time>
      </trkpt>
      <trkpt lat="44.22241" lon="6.1495">
        <ele>1410.87</ele>
        <time>2019-03-03T09:33:57Z</time>
      </trkpt>
      <trkpt lat="44.22231" lon="6.14962">
        <ele>1411.83</ele>
        <time>2019-03-03T09:34:13Z</time>
      </trkpt>
      <trkpt lat="44.22229" lon="6.14967">
        <ele>1412.31</ele>
        <time>2019-03-03T09:34:18Z</time>
      </trkpt>
      <trkpt lat="44.22225" lon="6.14985">
        <ele>1413.28</ele>
        <time>2019-03-03T09:34:34Z</time>
      </trkpt>
      <trkpt lat="44.22226" lon="6.14992">
        <ele>1413.76</ele>
        <time>2019-03-03T09:34:39Z</time>
      </trkpt>
      <trkpt lat="44.22227" lon="6.15">
        <ele>1413.76</ele>
        <time>2019-03-03T09:34:45Z</time>
      </trkpt>
      <trkpt lat="44.22228" lon="6.15011">
        <ele>1414.24</ele>
        <time>2019-03-03T09:34:53Z</time>
      </trkpt>
      <trkpt lat="44.2223" lon="6.1503">
        <ele>1415.68</ele>
        <time>2019-03-03T09:35:08Z</time>
      </trkpt>
      <trkpt lat="44.22232" lon="6.15044">
        <ele>1416.64</ele>
        <time>2019-03-03T09:35:20Z</time>
      </trkpt>
      <trkpt lat="44.22228" lon="6.1506">
        <ele>1417.6</ele>
        <time>2019-03-03T09:35:36Z</time>
      </trkpt>
      <trkpt lat="44.22224" lon="6.15067">
        <ele>1417.6</ele>
        <time>2019-03-03T09:35:42Z</time>
      </trkpt>
      <trkpt lat="44.22221" lon="6.1507">
        <ele>1417.6</ele>
        <time>2019-03-03T09:35:45Z</time>
      </trkpt>
      <trkpt lat="44.22216" lon="6.15091">
        <ele>1419.04</ele>
        <time>2019-03-03T09:36:00Z</time>
      </trkpt>
      <trkpt lat="44.22216" lon="6.15092">
        <ele>1419.04</ele>
        <time>2019-03-03T09:36:01Z</time>
      </trkpt>
      <trkpt lat="44.22213" lon="6.15108">
        <ele>1420.49</ele>
        <time>2019-03-03T09:36:14Z</time>
      </trkpt>
      <trkpt lat="44.2221" lon="6.15121">
        <ele>1421.93</ele>
        <time>2019-03-03T09:36:26Z</time>
      </trkpt>
      <trkpt lat="44.2221" lon="6.15131">
        <ele>1422.89</ele>
        <time>2019-03-03T09:36:37Z</time>
      </trkpt>
      <trkpt lat="44.22203" lon="6.1515">
        <ele>1423.37</ele>
        <time>2019-03-03T09:36:53Z</time>
      </trkpt>
      <trkpt lat="44.22194" lon="6.15159">
        <ele>1424.81</ele>
        <time>2019-03-03T09:37:07Z</time>
      </trkpt>
      <trkpt lat="44.22193" lon="6.15165">
        <ele>1425.29</ele>
        <time>2019-03-03T09:37:15Z</time>
      </trkpt>
      <trkpt lat="44.22204" lon="6.15169">
        <ele>1426.25</ele>
        <time>2019-03-03T09:37:28Z</time>
      </trkpt>
      <trkpt lat="44.2221" lon="6.15167">
        <ele>1427.21</ele>
        <time>2019-03-03T09:37:35Z</time>
      </trkpt>
      <trkpt lat="44.22217" lon="6.15159">
        <ele>1428.66</ele>
        <time>2019-03-03T09:37:49Z</time>
      </trkpt>
      <trkpt lat="44.2222" lon="6.15156">
        <ele>1428.66</ele>
        <time>2019-03-03T09:37:53Z</time>
      </trkpt>
      <trkpt lat="44.22231" lon="6.1515">
        <ele>1429.62</ele>
        <time>2019-03-03T09:38:03Z</time>
      </trkpt>
      <trkpt lat="44.22236" lon="6.15149">
        <ele>1430.1</ele>
        <time>2019-03-03T09:38:09Z</time>
      </trkpt>
      <trkpt lat="44.22247" lon="6.15153">
        <ele>1431.54</ele>
        <time>2019-03-03T09:38:23Z</time>
      </trkpt>
      <trkpt lat="44.2226" lon="6.15155">
        <ele>1432.5</ele>
        <time>2019-03-03T09:38:37Z</time>
      </trkpt>
      <trkpt lat="44.22263" lon="6.15156">
        <ele>1432.98</ele>
        <time>2019-03-03T09:38:41Z</time>
      </trkpt>
      <trkpt lat="44.2227" lon="6.15166">
        <ele>1433.94</ele>
        <time>2019-03-03T09:38:54Z</time>
      </trkpt>
      <trkpt lat="44.22271" lon="6.15167">
        <ele>1433.94</ele>
        <time>2019-03-03T09:38:55Z</time>
      </trkpt>
      <trkpt lat="44.22276" lon="6.15172">
        <ele>1434.42</ele>
        <time>2019-03-03T09:39:01Z</time>
      </trkpt>
      <trkpt lat="44.22289" lon="6.15173">
        <ele>1436.35</ele>
        <time>2019-03-03T09:39:17Z</time>
      </trkpt>
      <trkpt lat="44.223" lon="6.15173">
        <ele>1437.31</ele>
        <time>2019-03-03T09:39:31Z</time>
      </trkpt>
      <trkpt lat="44.22308" lon="6.15171">
        <ele>1438.27</ele>
        <time>2019-03-03T09:39:44Z</time>
      </trkpt>
      <trkpt lat="44.22322" lon="6.1517">
        <ele>1439.71</ele>
        <time>2019-03-03T09:39:58Z</time>
      </trkpt>
      <trkpt lat="44.22332" lon="6.15171">
        <ele>1440.19</ele>
        <time>2019-03-03T09:40:11Z</time>
      </trkpt>
      <trkpt lat="44.22341" lon="6.15172">
        <ele>1442.11</ele>
        <time>2019-03-03T09:40:24Z</time>
      </trkpt>
      <trkpt lat="44.22355" lon="6.15172">
        <ele>1442.6</ele>
        <time>2019-03-03T09:40:39Z</time>
      </trkpt>
      <trkpt lat="44.22366" lon="6.15175">
        <ele>1444.04</ele>
        <time>2019-03-03T09:40:53Z</time>
      </trkpt>
      <trkpt lat="44.22378" lon="6.15178">
        <ele>1444.52</ele>
        <time>2019-03-03T09:41:06Z</time>
      </trkpt>
      <trkpt lat="44.22387" lon="6.15177">
        <ele>1446.44</ele>
        <time>2019-03-03T09:41:20Z</time>
      </trkpt>
      <trkpt lat="44.22399" lon="6.15176">
        <ele>1446.92</ele>
        <time>2019-03-03T09:41:34Z</time>
      </trkpt>
      <trkpt lat="44.22408" lon="6.15169">
        <ele>1447.88</ele>
        <time>2019-03-03T09:41:47Z</time>
      </trkpt>
      <trkpt lat="44.22414" lon="6.15168">
        <ele>1448.36</ele>
        <time>2019-03-03T09:41:57Z</time>
      </trkpt>
      <trkpt lat="44.22418" lon="6.15168">
        <ele>1449.32</ele>
        <time>2019-03-03T09:42:02Z</time>
      </trkpt>
      <trkpt lat="44.22422" lon="6.15166">
        <ele>1450.29</ele>
        <time>2019-03-03T09:42:08Z</time>
      </trkpt>
      <trkpt lat="44.22422" lon="6.1515">
        <ele>1450.29</ele>
        <time>2019-03-03T09:42:22Z</time>
      </trkpt>
      <trkpt lat="44.22427" lon="6.15143">
        <ele>1450.29</ele>
        <time>2019-03-03T09:42:35Z</time>
      </trkpt>
      <trkpt lat="44.22437" lon="6.15143">
        <ele>1451.25</ele>
        <time>2019-03-03T09:42:49Z</time>
      </trkpt>
      <trkpt lat="44.2244" lon="6.15145">
        <ele>1452.21</ele>
        <time>2019-03-03T09:42:53Z</time>
      </trkpt>
      <trkpt lat="44.22451" lon="6.15142">
        <ele>1452.69</ele>
        <time>2019-03-03T09:43:07Z</time>
      </trkpt>
      <trkpt lat="44.22464" lon="6.15133">
        <ele>1453.65</ele>
        <time>2019-03-03T09:43:22Z</time>
      </trkpt>
      <trkpt lat="44.22464" lon="6.15132">
        <ele>1453.17</ele>
        <time>2019-03-03T09:43:23Z</time>
      </trkpt>
      <trkpt lat="44.22472" lon="6.15125">
        <ele>1455.09</ele>
        <time>2019-03-03T09:43:37Z</time>
      </trkpt>
      <trkpt lat="44.2248" lon="6.15123">
        <ele>1456.05</ele>
        <time>2019-03-03T09:43:47Z</time>
      </trkpt>
      <trkpt lat="44.22483" lon="6.15122">
        <ele>1456.05</ele>
        <time>2019-03-03T09:43:49Z</time>
      </trkpt>
      <trkpt lat="44.22484" lon="6.15115">
        <ele>1456.53</ele>
        <time>2019-03-03T09:43:57Z</time>
      </trkpt>
      <trkpt lat="44.22487" lon="6.1511">
        <ele>1457.02</ele>
        <time>2019-03-03T09:44:02Z</time>
      </trkpt>
      <trkpt lat="44.22497" lon="6.15097">
        <ele>1457.98</ele>
        <time>2019-03-03T09:44:16Z</time>
      </trkpt>
      <trkpt lat="44.22503" lon="6.15085">
        <ele>1458.94</ele>
        <time>2019-03-03T09:44:29Z</time>
      </trkpt>
      <trkpt lat="44.22504" lon="6.15084">
        <ele>1459.42</ele>
        <time>2019-03-03T09:44:31Z</time>
      </trkpt>
      <trkpt lat="44.2251" lon="6.15071">
        <ele>1460.38</ele>
        <time>2019-03-03T09:44:45Z</time>
      </trkpt>
      <trkpt lat="44.22516" lon="6.15053">
        <ele>1460.86</ele>
        <time>2019-03-03T09:45:01Z</time>
      </trkpt>
      <trkpt lat="44.22525" lon="6.15041">
        <ele>1462.3</ele>
        <time>2019-03-03T09:45:17Z</time>
      </trkpt>
      <trkpt lat="44.22532" lon="6.15037">
        <ele>1463.74</ele>
        <time>2019-03-03T09:45:25Z</time>
      </trkpt>
      <trkpt lat="44.22544" lon="6.15027">
        <ele>1464.23</ele>
        <time>2019-03-03T09:45:40Z</time>
      </trkpt>
      <trkpt lat="44.2255" lon="6.15022">
        <ele>1465.19</ele>
        <time>2019-03-03T09:45:51Z</time>
      </trkpt>
      <trkpt lat="44.22561" lon="6.15025">
        <ele>1466.63</ele>
        <time>2019-03-03T09:46:06Z</time>
      </trkpt>
      <trkpt lat="44.22569" lon="6.1503">
        <ele>1467.59</ele>
        <time>2019-03-03T09:46:20Z</time>
      </trkpt>
      <trkpt lat="44.2257" lon="6.1503">
        <ele>1468.07</ele>
        <time>2019-03-03T09:46:23Z</time>
      </trkpt>
      <trkpt lat="44.22571" lon="6.15034">
        <ele>1468.55</ele>
        <time>2019-03-03T09:46:26Z</time>
      </trkpt>
      <trkpt lat="44.22576" lon="6.15042">
        <ele>1469.99</ele>
        <time>2019-03-03T09:46:39Z</time>
      </trkpt>
      <trkpt lat="44.22586" lon="6.15032">
        <ele>1469.99</ele>
        <time>2019-03-03T09:46:53Z</time>
      </trkpt>
      <trkpt lat="44.22596" lon="6.1503">
        <ele>1470.95</ele>
        <time>2019-03-03T09:47:06Z</time>
      </trkpt>
      <trkpt lat="44.22601" lon="6.15018">
        <ele>1472.4</ele>
        <time>2019-03-03T09:47:20Z</time>
      </trkpt>
      <trkpt lat="44.226" lon="6.15011">
        <ele>1472.88</ele>
        <time>2019-03-03T09:47:33Z</time>
      </trkpt>
      <trkpt lat="44.22599" lon="6.14999">
        <ele>1474.8</ele>
        <time>2019-03-03T09:47:43Z</time>
      </trkpt>
      <trkpt lat="44.22601" lon="6.14991">
        <ele>1475.28</ele>
        <time>2019-03-03T09:47:52Z</time>
      </trkpt>
      <trkpt lat="44.22614" lon="6.14982">
        <ele>1476.24</ele>
        <time>2019-03-03T09:48:07Z</time>
      </trkpt>
      <trkpt lat="44.22623" lon="6.14975">
        <ele>1478.16</ele>
        <time>2019-03-03T09:48:21Z</time>
      </trkpt>
      <trkpt lat="44.22625" lon="6.14973">
        <ele>1478.16</ele>
        <time>2019-03-03T09:48:23Z</time>
      </trkpt>
      <trkpt lat="44.22634" lon="6.14966">
        <ele>1478.65</ele>
        <time>2019-03-03T09:48:33Z</time>
      </trkpt>
      <trkpt lat="44.22643" lon="6.14957">
        <ele>1479.61</ele>
        <time>2019-03-03T09:48:46Z</time>
      </trkpt>
      <trkpt lat="44.22657" lon="6.14956">
        <ele>1481.05</ele>
        <time>2019-03-03T09:49:01Z</time>
      </trkpt>
      <trkpt lat="44.22666" lon="6.14958">
        <ele>1482.01</ele>
        <time>2019-03-03T09:49:13Z</time>
      </trkpt>
      <trkpt lat="44.22681" lon="6.14959">
        <ele>1483.45</ele>
        <time>2019-03-03T09:49:29Z</time>
      </trkpt>
      <trkpt lat="44.22689" lon="6.14959">
        <ele>1484.89</ele>
        <time>2019-03-03T09:49:42Z</time>
      </trkpt>
      <trkpt lat="44.22698" lon="6.14959">
        <ele>1485.85</ele>
        <time>2019-03-03T09:49:56Z</time>
      </trkpt>
      <trkpt lat="44.22705" lon="6.1496">
        <ele>1486.82</ele>
        <time>2019-03-03T09:50:05Z</time>
      </trkpt>
      <trkpt lat="44.22709" lon="6.1496">
        <ele>1487.3</ele>
        <time>2019-03-03T09:50:09Z</time>
      </trkpt>
      <trkpt lat="44.22721" lon="6.1496">
        <ele>1488.26</ele>
        <time>2019-03-03T09:50:23Z</time>
      </trkpt>
      <trkpt lat="44.22731" lon="6.14961">
        <ele>1489.22</ele>
        <time>2019-03-03T09:50:35Z</time>
      </trkpt>
      <trkpt lat="44.22738" lon="6.14961">
        <ele>1489.7</ele>
        <time>2019-03-03T09:50:42Z</time>
      </trkpt>
      <trkpt lat="44.2274" lon="6.14961">
        <ele>1490.18</ele>
        <time>2019-03-03T09:50:45Z</time>
      </trkpt>
      <trkpt lat="44.22747" lon="6.1496">
        <ele>1491.14</ele>
        <time>2019-03-03T09:50:55Z</time>
      </trkpt>
      <trkpt lat="44.22758" lon="6.14959">
        <ele>1492.1</ele>
        <time>2019-03-03T09:51:06Z</time>
      </trkpt>
      <trkpt lat="44.22771" lon="6.14959">
        <ele>1493.06</ele>
        <time>2019-03-03T09:51:21Z</time>
      </trkpt>
      <trkpt lat="44.22783" lon="6.1496">
        <ele>1494.03</ele>
        <time>2019-03-03T09:51:36Z</time>
      </trkpt>
      <trkpt lat="44.22792" lon="6.14956">
        <ele>1494.99</ele>
        <time>2019-03-03T09:51:49Z</time>
      </trkpt>
      <trkpt lat="44.22794" lon="6.14955">
        <ele>1495.95</ele>
        <time>2019-03-03T09:51:54Z</time>
      </trkpt>
      <trkpt lat="44.22799" lon="6.14958">
        <ele>1496.43</ele>
        <time>2019-03-03T09:51:58Z</time>
      </trkpt>
      <trkpt lat="44.22812" lon="6.14961">
        <ele>1497.87</ele>
        <time>2019-03-03T09:52:13Z</time>
      </trkpt>
      <trkpt lat="44.22825" lon="6.14959">
        <ele>1498.83</ele>
        <time>2019-03-03T09:52:27Z</time>
      </trkpt>
      <trkpt lat="44.22838" lon="6.1496">
        <ele>1500.27</ele>
        <time>2019-03-03T09:52:42Z</time>
      </trkpt>
      <trkpt lat="44.22849" lon="6.14959">
        <ele>1502.2</ele>
        <time>2019-03-03T09:52:57Z</time>
      </trkpt>
      <trkpt lat="44.22854" lon="6.14963">
        <ele>1503.16</ele>
        <time>2019-03-03T09:53:08Z</time>
      </trkpt>
      <trkpt lat="44.22862" lon="6.14971">
        <ele>1504.12</ele>
        <time>2019-03-03T09:53:20Z</time>
      </trkpt>
      <trkpt lat="44.22876" lon="6.14971">
        <ele>1504.6</ele>
        <time>2019-03-03T09:53:34Z</time>
      </trkpt>
      <trkpt lat="44.22883" lon="6.1497">
        <ele>1506.04</ele>
        <time>2019-03-03T09:53:41Z</time>
      </trkpt>
      <trkpt lat="44.22894" lon="6.1497">
        <ele>1507</ele>
        <time>2019-03-03T09:53:57Z</time>
      </trkpt>
      <trkpt lat="44.22896" lon="6.14971">
        <ele>1507</ele>
        <time>2019-03-03T09:54:00Z</time>
      </trkpt>
      <trkpt lat="44.22909" lon="6.14973">
        <ele>1507.48</ele>
        <time>2019-03-03T09:54:14Z</time>
      </trkpt>
      <trkpt lat="44.2291" lon="6.14972">
        <ele>1507.48</ele>
        <time>2019-03-03T09:54:18Z</time>
      </trkpt>
      <trkpt lat="44.22923" lon="6.14976">
        <ele>1509.41</ele>
        <time>2019-03-03T09:54:33Z</time>
      </trkpt>
      <trkpt lat="44.22932" lon="6.14973">
        <ele>1510.37</ele>
        <time>2019-03-03T09:54:45Z</time>
      </trkpt>
      <trkpt lat="44.22941" lon="6.14966">
        <ele>1511.81</ele>
        <time>2019-03-03T09:55:00Z</time>
      </trkpt>
      <trkpt lat="44.2295" lon="6.14961">
        <ele>1512.29</ele>
        <time>2019-03-03T09:55:13Z</time>
      </trkpt>
      <trkpt lat="44.22961" lon="6.14956">
        <ele>1514.21</ele>
        <time>2019-03-03T09:55:29Z</time>
      </trkpt>
      <trkpt lat="44.22965" lon="6.14954">
        <ele>1513.73</ele>
        <time>2019-03-03T09:55:33Z</time>
      </trkpt>
      <trkpt lat="44.22973" lon="6.14946">
        <ele>1515.66</ele>
        <time>2019-03-03T09:55:46Z</time>
      </trkpt>
      <trkpt lat="44.22983" lon="6.14939">
        <ele>1516.14</ele>
        <time>2019-03-03T09:56:01Z</time>
      </trkpt>
      <trkpt lat="44.22989" lon="6.14934">
        <ele>1517.58</ele>
        <time>2019-03-03T09:56:13Z</time>
      </trkpt>
      <trkpt lat="44.22998" lon="6.14926">
        <ele>1518.54</ele>
        <time>2019-03-03T09:56:28Z</time>
      </trkpt>
      <trkpt lat="44.23005" lon="6.14919">
        <ele>1519.98</ele>
        <time>2019-03-03T09:56:42Z</time>
      </trkpt>
      <trkpt lat="44.23019" lon="6.1491">
        <ele>1520.94</ele>
        <time>2019-03-03T09:56:56Z</time>
      </trkpt>
      <trkpt lat="44.23028" lon="6.14906">
        <ele>1522.39</ele>
        <time>2019-03-03T09:57:08Z</time>
      </trkpt>
      <trkpt lat="44.23038" lon="6.14902">
        <ele>1523.35</ele>
        <time>2019-03-03T09:57:21Z</time>
      </trkpt>
      <trkpt lat="44.23043" lon="6.14901">
        <ele>1523.35</ele>
        <time>2019-03-03T09:57:27Z</time>
      </trkpt>
      <trkpt lat="44.23057" lon="6.14894">
        <ele>1525.27</ele>
        <time>2019-03-03T09:57:44Z</time>
      </trkpt>
      <trkpt lat="44.23065" lon="6.14891">
        <ele>1526.23</ele>
        <time>2019-03-03T09:57:54Z</time>
      </trkpt>
      <trkpt lat="44.23079" lon="6.14886">
        <ele>1527.19</ele>
        <time>2019-03-03T09:58:11Z</time>
      </trkpt>
      <trkpt lat="44.23081" lon="6.14884">
        <ele>1527.67</ele>
        <time>2019-03-03T09:58:14Z</time>
      </trkpt>
      <trkpt lat="44.23092" lon="6.14882">
        <ele>1528.63</ele>
        <time>2019-03-03T09:58:29Z</time>
      </trkpt>
      <trkpt lat="44.23095" lon="6.1488">
        <ele>1529.11</ele>
        <time>2019-03-03T09:58:32Z</time>
      </trkpt>
      <trkpt lat="44.23106" lon="6.14877">
        <ele>1530.56</ele>
        <time>2019-03-03T09:58:48Z</time>
      </trkpt>
      <trkpt lat="44.23116" lon="6.14872">
        <ele>1531.04</ele>
        <time>2019-03-03T09:59:03Z</time>
      </trkpt>
      <trkpt lat="44.23118" lon="6.14869">
        <ele>1532</ele>
        <time>2019-03-03T09:59:07Z</time>
      </trkpt>
      <trkpt lat="44.23129" lon="6.14861">
        <ele>1532.96</ele>
        <time>2019-03-03T09:59:21Z</time>
      </trkpt>
      <trkpt lat="44.2314" lon="6.14855">
        <ele>1534.4</ele>
        <time>2019-03-03T09:59:37Z</time>
      </trkpt>
      <trkpt lat="44.23151" lon="6.14848">
        <ele>1535.84</ele>
        <time>2019-03-03T09:59:52Z</time>
      </trkpt>
      <trkpt lat="44.23158" lon="6.1484">
        <ele>1537.29</ele>
        <time>2019-03-03T10:00:05Z</time>
      </trkpt>
      <trkpt lat="44.23167" lon="6.14834">
        <ele>1537.77</ele>
        <time>2019-03-03T10:00:19Z</time>
      </trkpt>
      <trkpt lat="44.23179" lon="6.14829">
        <ele>1539.69</ele>
        <time>2019-03-03T10:00:33Z</time>
      </trkpt>
      <trkpt lat="44.23189" lon="6.14825">
        <ele>1540.65</ele>
        <time>2019-03-03T10:00:47Z</time>
      </trkpt>
      <trkpt lat="44.23192" lon="6.14825">
        <ele>1541.13</ele>
        <time>2019-03-03T10:00:51Z</time>
      </trkpt>
      <trkpt lat="44.23204" lon="6.14819">
        <ele>1542.09</ele>
        <time>2019-03-03T10:01:07Z</time>
      </trkpt>
      <trkpt lat="44.23211" lon="6.14815">
        <ele>1543.05</ele>
        <time>2019-03-03T10:01:22Z</time>
      </trkpt>
      <trkpt lat="44.23222" lon="6.14809">
        <ele>1544.5</ele>
        <time>2019-03-03T10:01:37Z</time>
      </trkpt>
      <trkpt lat="44.23231" lon="6.14802">
        <ele>1545.94</ele>
        <time>2019-03-03T10:01:53Z</time>
      </trkpt>
      <trkpt lat="44.23242" lon="6.14796">
        <ele>1546.9</ele>
        <time>2019-03-03T10:02:06Z</time>
      </trkpt>
      <trkpt lat="44.23252" lon="6.14791">
        <ele>1547.86</ele>
        <time>2019-03-03T10:02:21Z</time>
      </trkpt>
      <trkpt lat="44.23253" lon="6.1479">
        <ele>1547.86</ele>
        <time>2019-03-03T10:02:22Z</time>
      </trkpt>
      <trkpt lat="44.23266" lon="6.14784">
        <ele>1548.34</ele>
        <time>2019-03-03T10:02:38Z</time>
      </trkpt>
      <trkpt lat="44.23274" lon="6.1478">
        <ele>1550.26</ele>
        <time>2019-03-03T10:02:51Z</time>
      </trkpt>
      <trkpt lat="44.23282" lon="6.14774">
        <ele>1551.22</ele>
        <time>2019-03-03T10:03:05Z</time>
      </trkpt>
      <trkpt lat="44.23285" lon="6.14774">
        <ele>1551.71</ele>
        <time>2019-03-03T10:03:10Z</time>
      </trkpt>
      <trkpt lat="44.23298" lon="6.14766">
        <ele>1553.15</ele>
        <time>2019-03-03T10:03:25Z</time>
      </trkpt>
      <trkpt lat="44.23305" lon="6.14762">
        <ele>1553.63</ele>
        <time>2019-03-03T10:03:38Z</time>
      </trkpt>
      <trkpt lat="44.23306" lon="6.14762">
        <ele>1554.11</ele>
        <time>2019-03-03T10:03:39Z</time>
      </trkpt>
      <trkpt lat="44.23317" lon="6.14754">
        <ele>1555.07</ele>
        <time>2019-03-03T10:03:54Z</time>
      </trkpt>
      <trkpt lat="44.23326" lon="6.1475">
        <ele>1556.03</ele>
        <time>2019-03-03T10:04:06Z</time>
      </trkpt>
      <trkpt lat="44.23331" lon="6.14747">
        <ele>1556.99</ele>
        <time>2019-03-03T10:04:14Z</time>
      </trkpt>
      <trkpt lat="44.23338" lon="6.14745">
        <ele>1557.47</ele>
        <time>2019-03-03T10:04:21Z</time>
      </trkpt>
      <trkpt lat="44.23346" lon="6.1474">
        <ele>1558.92</ele>
        <time>2019-03-03T10:04:35Z</time>
      </trkpt>
      <trkpt lat="44.2335" lon="6.14739">
        <ele>1558.92</ele>
        <time>2019-03-03T10:04:38Z</time>
      </trkpt>
      <trkpt lat="44.23358" lon="6.14738">
        <ele>1560.84</ele>
        <time>2019-03-03T10:04:51Z</time>
      </trkpt>
      <trkpt lat="44.23354" lon="6.14741">
        <ele>1561.32</ele>
        <time>2019-03-03T10:04:56Z</time>
      </trkpt>
      <trkpt lat="44.23349" lon="6.14752">
        <ele>1563.24</ele>
        <time>2019-03-03T10:05:10Z</time>
      </trkpt>
      <trkpt lat="44.23341" lon="6.14759">
        <ele>1563.72</ele>
        <time>2019-03-03T10:05:24Z</time>
      </trkpt>
      <trkpt lat="44.23333" lon="6.14768">
        <ele>1565.64</ele>
        <time>2019-03-03T10:05:39Z</time>
      </trkpt>
      <trkpt lat="44.23326" lon="6.14774">
        <ele>1565.64</ele>
        <time>2019-03-03T10:05:50Z</time>
      </trkpt>
      <trkpt lat="44.2332" lon="6.14785">
        <ele>1567.09</ele>
        <time>2019-03-03T10:06:04Z</time>
      </trkpt>
      <trkpt lat="44.23311" lon="6.14793">
        <ele>1567.57</ele>
        <time>2019-03-03T10:06:18Z</time>
      </trkpt>
      <trkpt lat="44.23304" lon="6.14802">
        <ele>1568.53</ele>
        <time>2019-03-03T10:06:31Z</time>
      </trkpt>
      <trkpt lat="44.23296" lon="6.14808">
        <ele>1568.05</ele>
        <time>2019-03-03T10:06:43Z</time>
      </trkpt>
      <trkpt lat="44.23293" lon="6.14816">
        <ele>1569.97</ele>
        <time>2019-03-03T10:06:56Z</time>
      </trkpt>
      <trkpt lat="44.23285" lon="6.14826">
        <ele>1571.41</ele>
        <time>2019-03-03T10:07:11Z</time>
      </trkpt>
      <trkpt lat="44.23278" lon="6.14834">
        <ele>1572.37</ele>
        <time>2019-03-03T10:07:25Z</time>
      </trkpt>
      <trkpt lat="44.2327" lon="6.14841">
        <ele>1573.33</ele>
        <time>2019-03-03T10:07:38Z</time>
      </trkpt>
      <trkpt lat="44.23261" lon="6.14851">
        <ele>1574.78</ele>
        <time>2019-03-03T10:07:53Z</time>
      </trkpt>
      <trkpt lat="44.23251" lon="6.14861">
        <ele>1575.74</ele>
        <time>2019-03-03T10:08:09Z</time>
      </trkpt>
      <trkpt lat="44.23243" lon="6.1487">
        <ele>1577.18</ele>
        <time>2019-03-03T10:08:23Z</time>
      </trkpt>
      <trkpt lat="44.23235" lon="6.1488">
        <ele>1579.1</ele>
        <time>2019-03-03T10:08:39Z</time>
      </trkpt>
      <trkpt lat="44.23226" lon="6.14889">
        <ele>1579.58</ele>
        <time>2019-03-03T10:08:54Z</time>
      </trkpt>
      <trkpt lat="44.2322" lon="6.14893">
        <ele>1580.54</ele>
        <time>2019-03-03T10:09:03Z</time>
      </trkpt>
      <trkpt lat="44.23215" lon="6.14899">
        <ele>1580.54</ele>
        <time>2019-03-03T10:09:12Z</time>
      </trkpt>
      <trkpt lat="44.23208" lon="6.1491">
        <ele>1581.51</ele>
        <time>2019-03-03T10:09:27Z</time>
      </trkpt>
      <trkpt lat="44.23201" lon="6.14918">
        <ele>1581.99</ele>
        <time>2019-03-03T10:09:40Z</time>
      </trkpt>
      <trkpt lat="44.23196" lon="6.14927">
        <ele>1583.43</ele>
        <time>2019-03-03T10:09:54Z</time>
      </trkpt>
      <trkpt lat="44.23188" lon="6.14938">
        <ele>1584.87</ele>
        <time>2019-03-03T10:10:09Z</time>
      </trkpt>
      <trkpt lat="44.23185" lon="6.14942">
        <ele>1584.87</ele>
        <time>2019-03-03T10:10:15Z</time>
      </trkpt>
      <trkpt lat="44.23179" lon="6.14949">
        <ele>1585.83</ele>
        <time>2019-03-03T10:10:24Z</time>
      </trkpt>
      <trkpt lat="44.23172" lon="6.14956">
        <ele>1587.27</ele>
        <time>2019-03-03T10:10:38Z</time>
      </trkpt>
      <trkpt lat="44.23164" lon="6.14965">
        <ele>1587.75</ele>
        <time>2019-03-03T10:10:52Z</time>
      </trkpt>
      <trkpt lat="44.23156" lon="6.14973">
        <ele>1589.68</ele>
        <time>2019-03-03T10:11:06Z</time>
      </trkpt>
      <trkpt lat="44.23149" lon="6.14984">
        <ele>1591.12</ele>
        <time>2019-03-03T10:11:19Z</time>
      </trkpt>
      <trkpt lat="44.23146" lon="6.14986">
        <ele>1590.16</ele>
        <time>2019-03-03T10:11:22Z</time>
      </trkpt>
      <trkpt lat="44.23137" lon="6.14993">
        <ele>1592.08</ele>
        <time>2019-03-03T10:11:35Z</time>
      </trkpt>
      <trkpt lat="44.23131" lon="6.15002">
        <ele>1593.04</ele>
        <time>2019-03-03T10:11:48Z</time>
      </trkpt>
      <trkpt lat="44.23118" lon="6.15016">
        <ele>1595.45</ele>
        <time>2019-03-03T10:12:06Z</time>
      </trkpt>
      <trkpt lat="44.23107" lon="6.15027">
        <ele>1596.41</ele>
        <time>2019-03-03T10:12:23Z</time>
      </trkpt>
      <trkpt lat="44.23098" lon="6.15039">
        <ele>1597.85</ele>
        <time>2019-03-03T10:12:40Z</time>
      </trkpt>
      <trkpt lat="44.23087" lon="6.15053">
        <ele>1599.77</ele>
        <time>2019-03-03T10:12:57Z</time>
      </trkpt>
      <trkpt lat="44.23082" lon="6.1506">
        <ele>1599.77</ele>
        <time>2019-03-03T10:13:09Z</time>
      </trkpt>
      <trkpt lat="44.23073" lon="6.15077">
        <ele>1601.21</ele>
        <time>2019-03-03T10:13:25Z</time>
      </trkpt>
      <trkpt lat="44.23062" lon="6.15089">
        <ele>1603.14</ele>
        <time>2019-03-03T10:13:42Z</time>
      </trkpt>
      <trkpt lat="44.23055" lon="6.15099">
        <ele>1605.06</ele>
        <time>2019-03-03T10:13:55Z</time>
      </trkpt>
      <trkpt lat="44.23045" lon="6.15108">
        <ele>1606.02</ele>
        <time>2019-03-03T10:14:09Z</time>
      </trkpt>
      <trkpt lat="44.23037" lon="6.15117">
        <ele>1606.98</ele>
        <time>2019-03-03T10:14:24Z</time>
      </trkpt>
      <trkpt lat="44.23028" lon="6.15129">
        <ele>1608.42</ele>
        <time>2019-03-03T10:14:40Z</time>
      </trkpt>
      <trkpt lat="44.2302" lon="6.1514">
        <ele>1610.35</ele>
        <time>2019-03-03T10:14:54Z</time>
      </trkpt>
      <trkpt lat="44.23013" lon="6.1515">
        <ele>1611.31</ele>
        <time>2019-03-03T10:15:07Z</time>
      </trkpt>
      <trkpt lat="44.23006" lon="6.1516">
        <ele>1612.27</ele>
        <time>2019-03-03T10:15:20Z</time>
      </trkpt>
      <trkpt lat="44.22997" lon="6.1517">
        <ele>1613.71</ele>
        <time>2019-03-03T10:15:35Z</time>
      </trkpt>
      <trkpt lat="44.2299" lon="6.15177">
        <ele>1614.19</ele>
        <time>2019-03-03T10:15:46Z</time>
      </trkpt>
      <trkpt lat="44.22982" lon="6.15188">
        <ele>1615.63</ele>
        <time>2019-03-03T10:16:00Z</time>
      </trkpt>
      <trkpt lat="44.22975" lon="6.15198">
        <ele>1616.59</ele>
        <time>2019-03-03T10:16:12Z</time>
      </trkpt>
      <trkpt lat="44.22966" lon="6.15209">
        <ele>1617.56</ele>
        <time>2019-03-03T10:16:28Z</time>
      </trkpt>
      <trkpt lat="44.22958" lon="6.15218">
        <ele>1619.48</ele>
        <time>2019-03-03T10:16:42Z</time>
      </trkpt>
      <trkpt lat="44.22953" lon="6.15225">
        <ele>1620.44</ele>
        <time>2019-03-03T10:16:51Z</time>
      </trkpt>
      <trkpt lat="44.22945" lon="6.15234">
        <ele>1621.88</ele>
        <time>2019-03-03T10:17:04Z</time>
      </trkpt>
      <trkpt lat="44.22937" lon="6.15245">
        <ele>1623.32</ele>
        <time>2019-03-03T10:17:18Z</time>
      </trkpt>
      <trkpt lat="44.22928" lon="6.15257">
        <ele>1623.8</ele>
        <time>2019-03-03T10:17:33Z</time>
      </trkpt>
      <trkpt lat="44.22921" lon="6.15267">
        <ele>1625.73</ele>
        <time>2019-03-03T10:17:48Z</time>
      </trkpt>
      <trkpt lat="44.22913" lon="6.15276">
        <ele>1626.21</ele>
        <time>2019-03-03T10:18:01Z</time>
      </trkpt>
      <trkpt lat="44.22907" lon="6.15286">
        <ele>1627.65</ele>
        <time>2019-03-03T10:18:15Z</time>
      </trkpt>
      <trkpt lat="44.22899" lon="6.15296">
        <ele>1628.61</ele>
        <time>2019-03-03T10:18:30Z</time>
      </trkpt>
      <trkpt lat="44.22891" lon="6.15305">
        <ele>1629.57</ele>
        <time>2019-03-03T10:18:45Z</time>
      </trkpt>
      <trkpt lat="44.22886" lon="6.15311">
        <ele>1630.53</ele>
        <time>2019-03-03T10:18:53Z</time>
      </trkpt>
      <trkpt lat="44.22877" lon="6.15323">
        <ele>1631.01</ele>
        <time>2019-03-03T10:19:10Z</time>
      </trkpt>
      <trkpt lat="44.22871" lon="6.1533">
        <ele>1633.42</ele>
        <time>2019-03-03T10:19:23Z</time>
      </trkpt>
      <trkpt lat="44.22862" lon="6.15342">
        <ele>1634.86</ele>
        <time>2019-03-03T10:19:39Z</time>
      </trkpt>
      <trkpt lat="44.22853" lon="6.15351">
        <ele>1635.82</ele>
        <time>2019-03-03T10:19:54Z</time>
      </trkpt>
      <trkpt lat="44.22844" lon="6.15361">
        <ele>1636.78</ele>
        <time>2019-03-03T10:20:08Z</time>
      </trkpt>
      <trkpt lat="44.22838" lon="6.15369">
        <ele>1637.74</ele>
        <time>2019-03-03T10:20:21Z</time>
      </trkpt>
      <trkpt lat="44.2283" lon="6.15378">
        <ele>1638.22</ele>
        <time>2019-03-03T10:20:34Z</time>
      </trkpt>
      <trkpt lat="44.22825" lon="6.15382">
        <ele>1638.7</ele>
        <time>2019-03-03T10:20:48Z</time>
      </trkpt>
      <trkpt lat="44.22821" lon="6.15387">
        <ele>1640.15</ele>
        <time>2019-03-03T10:20:55Z</time>
      </trkpt>
      <trkpt lat="44.22815" lon="6.15393">
        <ele>1640.15</ele>
        <time>2019-03-03T10:21:05Z</time>
      </trkpt>
      <trkpt lat="44.22806" lon="6.15402">
        <ele>1642.07</ele>
        <time>2019-03-03T10:21:18Z</time>
      </trkpt>
      <trkpt lat="44.22799" lon="6.15406">
        <ele>1643.03</ele>
        <time>2019-03-03T10:21:28Z</time>
      </trkpt>
      <trkpt lat="44.22793" lon="6.15411">
        <ele>1643.03</ele>
        <time>2019-03-03T10:21:36Z</time>
      </trkpt>
      <trkpt lat="44.22783" lon="6.15421">
        <ele>1644.47</ele>
        <time>2019-03-03T10:21:52Z</time>
      </trkpt>
      <trkpt lat="44.2278" lon="6.15428">
        <ele>1646.88</ele>
        <time>2019-03-03T10:22:05Z</time>
      </trkpt>
      <trkpt lat="44.22782" lon="6.15429">
        <ele>1649.28</ele>
        <time>2019-03-03T10:22:20Z</time>
      </trkpt>
      <trkpt lat="44.22784" lon="6.15428">
        <ele>1649.76</ele>
        <time>2019-03-03T10:22:22Z</time>
      </trkpt>
      <trkpt lat="44.22791" lon="6.15428">
        <ele>1651.2</ele>
        <time>2019-03-03T10:22:35Z</time>
      </trkpt>
      <trkpt lat="44.22794" lon="6.15429">
        <ele>1652.16</ele>
        <time>2019-03-03T10:22:42Z</time>
      </trkpt>
      <trkpt lat="44.22807" lon="6.15423">
        <ele>1653.12</ele>
        <time>2019-03-03T10:22:57Z</time>
      </trkpt>
      <trkpt lat="44.22815" lon="6.15418">
        <ele>1653.12</ele>
        <time>2019-03-03T10:23:10Z</time>
      </trkpt>
      <trkpt lat="44.2282" lon="6.15414">
        <ele>1654.57</ele>
        <time>2019-03-03T10:23:24Z</time>
      </trkpt>
      <trkpt lat="44.22826" lon="6.15409">
        <ele>1655.53</ele>
        <time>2019-03-03T10:23:36Z</time>
      </trkpt>
      <trkpt lat="44.22829" lon="6.15405">
        <ele>1655.53</ele>
        <time>2019-03-03T10:23:43Z</time>
      </trkpt>
      <trkpt lat="44.22837" lon="6.15399">
        <ele>1656.49</ele>
        <time>2019-03-03T10:23:53Z</time>
      </trkpt>
      <trkpt lat="44.22845" lon="6.15391">
        <ele>1657.93</ele>
        <time>2019-03-03T10:24:07Z</time>
      </trkpt>
      <trkpt lat="44.22854" lon="6.15389">
        <ele>1658.89</ele>
        <time>2019-03-03T10:24:21Z</time>
      </trkpt>
      <trkpt lat="44.22855" lon="6.15389">
        <ele>1658.89</ele>
        <time>2019-03-03T10:24:23Z</time>
      </trkpt>
      <trkpt lat="44.22857" lon="6.15387">
        <ele>1658.41</ele>
        <time>2019-03-03T10:24:25Z</time>
      </trkpt>
      <trkpt lat="44.22863" lon="6.15387">
        <ele>1659.37</ele>
        <time>2019-03-03T10:24:41Z</time>
      </trkpt>
      <trkpt lat="44.2287" lon="6.1538">
        <ele>1660.33</ele>
        <time>2019-03-03T10:24:55Z</time>
      </trkpt>
      <trkpt lat="44.22871" lon="6.1538">
        <ele>1660.33</ele>
        <time>2019-03-03T10:24:56Z</time>
      </trkpt>
      <trkpt lat="44.2288" lon="6.15372">
        <ele>1662.26</ele>
        <time>2019-03-03T10:25:11Z</time>
      </trkpt>
      <trkpt lat="44.22877" lon="6.15374">
        <ele>1663.7</ele>
        <time>2019-03-03T10:25:24Z</time>
      </trkpt>
      <trkpt lat="44.22869" lon="6.15383">
        <ele>1664.18</ele>
        <time>2019-03-03T10:25:37Z</time>
      </trkpt>
      <trkpt lat="44.22863" lon="6.15392">
        <ele>1666.1</ele>
        <time>2019-03-03T10:25:51Z</time>
      </trkpt>
      <trkpt lat="44.22861" lon="6.15394">
        <ele>1666.58</ele>
        <time>2019-03-03T10:25:54Z</time>
      </trkpt>
      <trkpt lat="44.22856" lon="6.15403">
        <ele>1667.06</ele>
        <time>2019-03-03T10:26:07Z</time>
      </trkpt>
      <trkpt lat="44.22849" lon="6.1541">
        <ele>1668.02</ele>
        <time>2019-03-03T10:26:22Z</time>
      </trkpt>
      <trkpt lat="44.22842" lon="6.1542">
        <ele>1669.47</ele>
        <time>2019-03-03T10:26:36Z</time>
      </trkpt>
      <trkpt lat="44.22834" lon="6.15427">
        <ele>1669.95</ele>
        <time>2019-03-03T10:26:50Z</time>
      </trkpt>
      <trkpt lat="44.22833" lon="6.15429">
        <ele>1670.43</ele>
        <time>2019-03-03T10:26:58Z</time>
      </trkpt>
      <trkpt lat="44.22829" lon="6.15437">
        <ele>1671.39</ele>
        <time>2019-03-03T10:27:16Z</time>
      </trkpt>
      <trkpt lat="44.22827" lon="6.15441">
        <ele>1671.87</ele>
        <time>2019-03-03T10:27:26Z</time>
      </trkpt>
      <trkpt lat="44.22819" lon="6.15451">
        <ele>1672.83</ele>
        <time>2019-03-03T10:27:38Z</time>
      </trkpt>
      <trkpt lat="44.22805" lon="6.15463">
        <ele>1674.75</ele>
        <time>2019-03-03T10:27:58Z</time>
      </trkpt>
      <trkpt lat="44.22794" lon="6.15473">
        <ele>1675.72</ele>
        <time>2019-03-03T10:28:13Z</time>
      </trkpt>
      <trkpt lat="44.22787" lon="6.15483">
        <ele>1676.68</ele>
        <time>2019-03-03T10:28:26Z</time>
      </trkpt>
      <trkpt lat="44.22784" lon="6.15487">
        <ele>1677.64</ele>
        <time>2019-03-03T10:28:34Z</time>
      </trkpt>
      <trkpt lat="44.22783" lon="6.15487">
        <ele>1678.12</ele>
        <time>2019-03-03T10:28:37Z</time>
      </trkpt>
      <trkpt lat="44.22774" lon="6.15498">
        <ele>1678.6</ele>
        <time>2019-03-03T10:28:50Z</time>
      </trkpt>
      <trkpt lat="44.22763" lon="6.15507">
        <ele>1680.52</ele>
        <time>2019-03-03T10:29:07Z</time>
      </trkpt>
      <trkpt lat="44.22762" lon="6.15508">
        <ele>1680.04</ele>
        <time>2019-03-03T10:29:22Z</time>
      </trkpt>
      <trkpt lat="44.22761" lon="6.15511">
        <ele>1681.96</ele>
        <time>2019-03-03T10:29:46Z</time>
      </trkpt>
      <trkpt lat="44.2276" lon="6.15518">
        <ele>1684.37</ele>
        <time>2019-03-03T10:30:00Z</time>
      </trkpt>
      <trkpt lat="44.22755" lon="6.15528">
        <ele>1685.33</ele>
        <time>2019-03-03T10:30:14Z</time>
      </trkpt>
      <trkpt lat="44.22749" lon="6.15539">
        <ele>1684.85</ele>
        <time>2019-03-03T10:30:27Z</time>
      </trkpt>
      <trkpt lat="44.22741" lon="6.1555">
        <ele>1684.37</ele>
        <time>2019-03-03T10:30:42Z</time>
      </trkpt>
      <trkpt lat="44.22732" lon="6.15565">
        <ele>1684.85</ele>
        <time>2019-03-03T10:30:58Z</time>
      </trkpt>
      <trkpt lat="44.22725" lon="6.15581">
        <ele>1685.33</ele>
        <time>2019-03-03T10:31:14Z</time>
      </trkpt>
      <trkpt lat="44.22721" lon="6.15595">
        <ele>1686.29</ele>
        <time>2019-03-03T10:31:29Z</time>
      </trkpt>
      <trkpt lat="44.22719" lon="6.15605">
        <ele>1686.29</ele>
        <time>2019-03-03T10:31:38Z</time>
      </trkpt>
      <trkpt lat="44.22717" lon="6.15612">
        <ele>1686.77</ele>
        <time>2019-03-03T10:31:45Z</time>
      </trkpt>
      <trkpt lat="44.22712" lon="6.15625">
        <ele>1687.73</ele>
        <time>2019-03-03T10:31:59Z</time>
      </trkpt>
      <trkpt lat="44.22712" lon="6.15628">
        <ele>1687.73</ele>
        <time>2019-03-03T10:32:02Z</time>
      </trkpt>
      <trkpt lat="44.22706" lon="6.1564">
        <ele>1688.21</ele>
        <time>2019-03-03T10:32:15Z</time>
      </trkpt>
      <trkpt lat="44.22701" lon="6.15653">
        <ele>1689.65</ele>
        <time>2019-03-03T10:32:28Z</time>
      </trkpt>
      <trkpt lat="44.22696" lon="6.15663">
        <ele>1689.65</ele>
        <time>2019-03-03T10:32:37Z</time>
      </trkpt>
      <trkpt lat="44.22691" lon="6.1568">
        <ele>1690.62</ele>
        <time>2019-03-03T10:32:53Z</time>
      </trkpt>
      <trkpt lat="44.22684" lon="6.15694">
        <ele>1692.06</ele>
        <time>2019-03-03T10:33:08Z</time>
      </trkpt>
      <trkpt lat="44.2268" lon="6.15702">
        <ele>1692.06</ele>
        <time>2019-03-03T10:33:21Z</time>
      </trkpt>
      <trkpt lat="44.22674" lon="6.15721">
        <ele>1693.5</ele>
        <time>2019-03-03T10:33:39Z</time>
      </trkpt>
      <trkpt lat="44.22669" lon="6.15736">
        <ele>1694.46</ele>
        <time>2019-03-03T10:33:54Z</time>
      </trkpt>
      <trkpt lat="44.22665" lon="6.15747">
        <ele>1694.94</ele>
        <time>2019-03-03T10:34:05Z</time>
      </trkpt>
      <trkpt lat="44.22661" lon="6.15759">
        <ele>1695.9</ele>
        <time>2019-03-03T10:34:19Z</time>
      </trkpt>
      <trkpt lat="44.22659" lon="6.15763">
        <ele>1696.38</ele>
        <time>2019-03-03T10:34:23Z</time>
      </trkpt>
      <trkpt lat="44.22652" lon="6.15775">
        <ele>1697.34</ele>
        <time>2019-03-03T10:34:37Z</time>
      </trkpt>
      <trkpt lat="44.22648" lon="6.15787">
        <ele>1698.79</ele>
        <time>2019-03-03T10:34:51Z</time>
      </trkpt>
      <trkpt lat="44.22644" lon="6.15797">
        <ele>1699.27</ele>
        <time>2019-03-03T10:35:03Z</time>
      </trkpt>
      <trkpt lat="44.2264" lon="6.15807">
        <ele>1700.23</ele>
        <time>2019-03-03T10:35:16Z</time>
      </trkpt>
      <trkpt lat="44.22639" lon="6.15812">
        <ele>1700.71</ele>
        <time>2019-03-03T10:35:22Z</time>
      </trkpt>
      <trkpt lat="44.22636" lon="6.15823">
        <ele>1701.67</ele>
        <time>2019-03-03T10:35:35Z</time>
      </trkpt>
      <trkpt lat="44.22633" lon="6.15834">
        <ele>1702.63</ele>
        <time>2019-03-03T10:35:48Z</time>
      </trkpt>
      <trkpt lat="44.22628" lon="6.15845">
        <ele>1704.07</ele>
        <time>2019-03-03T10:36:01Z</time>
      </trkpt>
      <trkpt lat="44.22624" lon="6.15862">
        <ele>1704.55</ele>
        <time>2019-03-03T10:36:18Z</time>
      </trkpt>
      <trkpt lat="44.2262" lon="6.15871">
        <ele>1706</ele>
        <time>2019-03-03T10:36:30Z</time>
      </trkpt>
      <trkpt lat="44.22616" lon="6.15883">
        <ele>1706.96</ele>
        <time>2019-03-03T10:36:44Z</time>
      </trkpt>
      <trkpt lat="44.22615" lon="6.15884">
        <ele>1706.96</ele>
        <time>2019-03-03T10:37:02Z</time>
      </trkpt>
      <trkpt lat="44.22615" lon="6.15884">
        <ele>1707.44</ele>
        <time>2019-03-03T10:37:23Z</time>
      </trkpt>
      <trkpt lat="44.22615" lon="6.15885">
        <ele>1706.96</ele>
        <time>2019-03-03T10:37:39Z</time>
      </trkpt>
      <trkpt lat="44.22615" lon="6.15885">
        <ele>1706.96</ele>
        <time>2019-03-03T10:38:04Z</time>
      </trkpt>
      <trkpt lat="44.22615" lon="6.15885">
        <ele>1706.96</ele>
        <time>2019-03-03T10:38:29Z</time>
      </trkpt>
      <trkpt lat="44.22615" lon="6.15885">
        <ele>1706.48</ele>
        <time>2019-03-03T10:38:49Z</time>
      </trkpt>
      <trkpt lat="44.22615" lon="6.15885">
        <ele>1707.44</ele>
        <time>2019-03-03T10:39:13Z</time>
      </trkpt>
      <trkpt lat="44.22615" lon="6.15885">
        <ele>1707.44</ele>
        <time>2019-03-03T10:39:45Z</time>
      </trkpt>
      <trkpt lat="44.22615" lon="6.15885">
        <ele>1706.96</ele>
        <time>2019-03-03T10:40:21Z</time>
      </trkpt>
      <trkpt lat="44.22615" lon="6.15884">
        <ele>1706.96</ele>
        <time>2019-03-03T10:40:55Z</time>
      </trkpt>
      <trkpt lat="44.22615" lon="6.15884">
        <ele>1706.96</ele>
        <time>2019-03-03T10:41:23Z</time>
      </trkpt>
      <trkpt lat="44.22615" lon="6.15885">
        <ele>1707.92</ele>
        <time>2019-03-03T10:41:44Z</time>
      </trkpt>
      <trkpt lat="44.22615" lon="6.15884">
        <ele>1707.92</ele>
        <time>2019-03-03T10:42:01Z</time>
      </trkpt>
      <trkpt lat="44.22615" lon="6.15884">
        <ele>1708.4</ele>
        <time>2019-03-03T10:42:25Z</time>
      </trkpt>
      <trkpt lat="44.22613" lon="6.15888">
        <ele>1708.4</ele>
        <time>2019-03-03T10:42:47Z</time>
      </trkpt>
      <trkpt lat="44.22611" lon="6.15896">
        <ele>1709.36</ele>
        <time>2019-03-03T10:42:54Z</time>
      </trkpt>
      <trkpt lat="44.22609" lon="6.15902">
        <ele>1709.84</ele>
        <time>2019-03-03T10:43:00Z</time>
      </trkpt>
      <trkpt lat="44.22603" lon="6.15917">
        <ele>1710.8</ele>
        <time>2019-03-03T10:43:16Z</time>
      </trkpt>
      <trkpt lat="44.22601" lon="6.1592">
        <ele>1710.8</ele>
        <time>2019-03-03T10:43:20Z</time>
      </trkpt>
      <trkpt lat="44.22599" lon="6.15922">
        <ele>1711.28</ele>
        <time>2019-03-03T10:43:23Z</time>
      </trkpt>
      <trkpt lat="44.2259" lon="6.15938">
        <ele>1712.73</ele>
        <time>2019-03-03T10:43:40Z</time>
      </trkpt>
      <trkpt lat="44.2259" lon="6.15941">
        <ele>1713.21</ele>
        <time>2019-03-03T10:43:43Z</time>
      </trkpt>
      <trkpt lat="44.22583" lon="6.15957">
        <ele>1714.65</ele>
        <time>2019-03-03T10:43:59Z</time>
      </trkpt>
      <trkpt lat="44.22582" lon="6.1596">
        <ele>1713.69</ele>
        <time>2019-03-03T10:44:02Z</time>
      </trkpt>
      <trkpt lat="44.22573" lon="6.15971">
        <ele>1715.13</ele>
        <time>2019-03-03T10:44:17Z</time>
      </trkpt>
      <trkpt lat="44.22568" lon="6.15983">
        <ele>1716.09</ele>
        <time>2019-03-03T10:44:30Z</time>
      </trkpt>
      <trkpt lat="44.22562" lon="6.15993">
        <ele>1716.57</ele>
        <time>2019-03-03T10:44:43Z</time>
      </trkpt>
      <trkpt lat="44.22554" lon="6.16004">
        <ele>1717.05</ele>
        <time>2019-03-03T10:44:56Z</time>
      </trkpt>
      <trkpt lat="44.22552" lon="6.16007">
        <ele>1717.53</ele>
        <time>2019-03-03T10:45:02Z</time>
      </trkpt>
      <trkpt lat="44.22543" lon="6.16018">
        <ele>1718.49</ele>
        <time>2019-03-03T10:45:18Z</time>
      </trkpt>
      <trkpt lat="44.22541" lon="6.1602">
        <ele>1718.97</ele>
        <time>2019-03-03T10:45:20Z</time>
      </trkpt>
      <trkpt lat="44.2253" lon="6.16032">
        <ele>1718.97</ele>
        <time>2019-03-03T10:45:36Z</time>
      </trkpt>
      <trkpt lat="44.22525" lon="6.16041">
        <ele>1720.42</ele>
        <time>2019-03-03T10:45:47Z</time>
      </trkpt>
      <trkpt lat="44.22516" lon="6.1605">
        <ele>1721.86</ele>
        <time>2019-03-03T10:46:00Z</time>
      </trkpt>
      <trkpt lat="44.22509" lon="6.16058">
        <ele>1722.34</ele>
        <time>2019-03-03T10:46:10Z</time>
      </trkpt>
      <trkpt lat="44.22506" lon="6.16063">
        <ele>1723.3</ele>
        <time>2019-03-03T10:46:23Z</time>
      </trkpt>
      <trkpt lat="44.22507" lon="6.16062">
        <ele>1726.18</ele>
        <time>2019-03-03T10:46:37Z</time>
      </trkpt>
      <trkpt lat="44.22514" lon="6.1606">
        <ele>1726.18</ele>
        <time>2019-03-03T10:46:48Z</time>
      </trkpt>
      <trkpt lat="44.22526" lon="6.16054">
        <ele>1727.15</ele>
        <time>2019-03-03T10:47:03Z</time>
      </trkpt>
      <trkpt lat="44.22534" lon="6.16049">
        <ele>1728.59</ele>
        <time>2019-03-03T10:47:16Z</time>
      </trkpt>
      <trkpt lat="44.22545" lon="6.16039">
        <ele>1730.03</ele>
        <time>2019-03-03T10:47:29Z</time>
      </trkpt>
      <trkpt lat="44.22555" lon="6.16032">
        <ele>1730.99</ele>
        <time>2019-03-03T10:47:43Z</time>
      </trkpt>
      <trkpt lat="44.22556" lon="6.1603">
        <ele>1731.95</ele>
        <time>2019-03-03T10:47:45Z</time>
      </trkpt>
      <trkpt lat="44.22566" lon="6.1602">
        <ele>1732.43</ele>
        <time>2019-03-03T10:48:00Z</time>
      </trkpt>
      <trkpt lat="44.22576" lon="6.16011">
        <ele>1732.91</ele>
        <time>2019-03-03T10:48:14Z</time>
      </trkpt>
      <trkpt lat="44.22585" lon="6.16005">
        <ele>1735.32</ele>
        <time>2019-03-03T10:48:28Z</time>
      </trkpt>
      <trkpt lat="44.22594" lon="6.15995">
        <ele>1735.8</ele>
        <time>2019-03-03T10:48:44Z</time>
      </trkpt>
      <trkpt lat="44.22592" lon="6.16002">
        <ele>1737.72</ele>
        <time>2019-03-03T10:48:58Z</time>
      </trkpt>
      <trkpt lat="44.2259" lon="6.16005">
        <ele>1738.2</ele>
        <time>2019-03-03T10:49:01Z</time>
      </trkpt>
      <trkpt lat="44.22585" lon="6.16015">
        <ele>1739.16</ele>
        <time>2019-03-03T10:49:14Z</time>
      </trkpt>
      <trkpt lat="44.2258" lon="6.16024">
        <ele>1740.12</ele>
        <time>2019-03-03T10:49:28Z</time>
      </trkpt>
      <trkpt lat="44.22573" lon="6.16036">
        <ele>1741.08</ele>
        <time>2019-03-03T10:49:43Z</time>
      </trkpt>
      <trkpt lat="44.22578" lon="6.16037">
        <ele>1743.01</ele>
        <time>2019-03-03T10:49:55Z</time>
      </trkpt>
      <trkpt lat="44.22588" lon="6.16028">
        <ele>1743.97</ele>
        <time>2019-03-03T10:50:10Z</time>
      </trkpt>
      <trkpt lat="44.22595" lon="6.16022">
        <ele>1744.93</ele>
        <time>2019-03-03T10:50:19Z</time>
      </trkpt>
      <trkpt lat="44.22599" lon="6.16019">
        <ele>1745.41</ele>
        <time>2019-03-03T10:50:24Z</time>
      </trkpt>
      <trkpt lat="44.22609" lon="6.16006">
        <ele>1746.85</ele>
        <time>2019-03-03T10:50:39Z</time>
      </trkpt>
      <trkpt lat="44.22611" lon="6.16002">
        <ele>1747.81</ele>
        <time>2019-03-03T10:50:43Z</time>
      </trkpt>
      <trkpt lat="44.2262" lon="6.15987">
        <ele>1748.78</ele>
        <time>2019-03-03T10:51:01Z</time>
      </trkpt>
      <trkpt lat="44.22622" lon="6.15979">
        <ele>1749.74</ele>
        <time>2019-03-03T10:51:15Z</time>
      </trkpt>
      <trkpt lat="44.22624" lon="6.15978">
        <ele>1749.74</ele>
        <time>2019-03-03T10:51:30Z</time>
      </trkpt>
      <trkpt lat="44.22632" lon="6.15969">
        <ele>1751.18</ele>
        <time>2019-03-03T10:51:48Z</time>
      </trkpt>
      <trkpt lat="44.22636" lon="6.15963">
        <ele>1752.14</ele>
        <time>2019-03-03T10:52:02Z</time>
      </trkpt>
      <trkpt lat="44.22637" lon="6.15962">
        <ele>1751.18</ele>
        <time>2019-03-03T10:52:07Z</time>
      </trkpt>
      <trkpt lat="44.22639" lon="6.15957">
        <ele>1751.66</ele>
        <time>2019-03-03T10:52:11Z</time>
      </trkpt>
      <trkpt lat="44.22641" lon="6.15952">
        <ele>1752.14</ele>
        <time>2019-03-03T10:52:29Z</time>
      </trkpt>
      <trkpt lat="44.22641" lon="6.15958">
        <ele>1752.14</ele>
        <time>2019-03-03T10:52:49Z</time>
      </trkpt>
      <trkpt lat="44.2264" lon="6.1596">
        <ele>1752.14</ele>
        <time>2019-03-03T10:53:02Z</time>
      </trkpt>
      <trkpt lat="44.2264" lon="6.1596">
        <ele>1752.14</ele>
        <time>2019-03-03T10:53:16Z</time>
      </trkpt>
      <trkpt lat="44.2264" lon="6.1596">
        <ele>1752.14</ele>
        <time>2019-03-03T10:53:36Z</time>
      </trkpt>
      <trkpt lat="44.2264" lon="6.15961">
        <ele>1752.14</ele>
        <time>2019-03-03T10:53:55Z</time>
      </trkpt>
      <trkpt lat="44.2264" lon="6.15963">
        <ele>1752.14</ele>
        <time>2019-03-03T10:54:01Z</time>
      </trkpt>
      <trkpt lat="44.22638" lon="6.1597">
        <ele>1752.62</ele>
        <time>2019-03-03T10:54:06Z</time>
      </trkpt>
      <trkpt lat="44.22637" lon="6.15974">
        <ele>1752.62</ele>
        <time>2019-03-03T10:54:09Z</time>
      </trkpt>
      <trkpt lat="44.22636" lon="6.15983">
        <ele>1753.1</ele>
        <time>2019-03-03T10:54:16Z</time>
      </trkpt>
      <trkpt lat="44.22632" lon="6.15994">
        <ele>1753.58</ele>
        <time>2019-03-03T10:54:25Z</time>
      </trkpt>
      <trkpt lat="44.22631" lon="6.15997">
        <ele>1753.58</ele>
        <time>2019-03-03T10:54:28Z</time>
      </trkpt>
      <trkpt lat="44.2263" lon="6.16001">
        <ele>1753.58</ele>
        <time>2019-03-03T10:54:31Z</time>
      </trkpt>
      <trkpt lat="44.22624" lon="6.16021">
        <ele>1755.5</ele>
        <time>2019-03-03T10:54:48Z</time>
      </trkpt>
      <trkpt lat="44.2262" lon="6.16034">
        <ele>1756.47</ele>
        <time>2019-03-03T10:55:01Z</time>
      </trkpt>
      <trkpt lat="44.22622" lon="6.16047">
        <ele>1755.02</ele>
        <time>2019-03-03T10:55:13Z</time>
      </trkpt>
      <trkpt lat="44.2262" lon="6.16058">
        <ele>1756.47</ele>
        <time>2019-03-03T10:55:28Z</time>
      </trkpt>
      <trkpt lat="44.22618" lon="6.16065">
        <ele>1756.95</ele>
        <time>2019-03-03T10:55:41Z</time>
      </trkpt>
      <trkpt lat="44.22616" lon="6.1607">
        <ele>1757.91</ele>
        <time>2019-03-03T10:55:53Z</time>
      </trkpt>
      <trkpt lat="44.22615" lon="6.16076">
        <ele>1757.43</ele>
        <time>2019-03-03T10:56:07Z</time>
      </trkpt>
      <trkpt lat="44.22614" lon="6.16081">
        <ele>1757.91</ele>
        <time>2019-03-03T10:56:20Z</time>
      </trkpt>
      <trkpt lat="44.22613" lon="6.16085">
        <ele>1758.87</ele>
        <time>2019-03-03T10:56:32Z</time>
      </trkpt>
      <trkpt lat="44.22611" lon="6.16093">
        <ele>1758.39</ele>
        <time>2019-03-03T10:56:45Z</time>
      </trkpt>
      <trkpt lat="44.22611" lon="6.16093">
        <ele>1758.39</ele>
        <time>2019-03-03T10:57:01Z</time>
      </trkpt>
      <trkpt lat="44.22611" lon="6.16092">
        <ele>1756.95</ele>
        <time>2019-03-03T10:57:19Z</time>
      </trkpt>
      <trkpt lat="44.22611" lon="6.16092">
        <ele>1756.47</ele>
        <time>2019-03-03T10:57:33Z</time>
      </trkpt>
      <trkpt lat="44.22611" lon="6.16093">
        <ele>1756.47</ele>
        <time>2019-03-03T10:57:50Z</time>
      </trkpt>
      <trkpt lat="44.22611" lon="6.16093">
        <ele>1756.95</ele>
        <time>2019-03-03T10:58:25Z</time>
      </trkpt>
      <trkpt lat="44.22611" lon="6.16093">
        <ele>1756.47</ele>
        <time>2019-03-03T10:59:02Z</time>
      </trkpt>
      <trkpt lat="44.22611" lon="6.16093">
        <ele>1756.95</ele>
        <time>2019-03-03T10:59:40Z</time>
      </trkpt>
      <trkpt lat="44.22611" lon="6.16093">
        <ele>1755.99</ele>
        <time>2019-03-03T11:00:14Z</time>
      </trkpt>
      <trkpt lat="44.22611" lon="6.16093">
        <ele>1756.47</ele>
        <time>2019-03-03T11:00:44Z</time>
      </trkpt>
      <trkpt lat="44.22611" lon="6.16093">
        <ele>1756.95</ele>
        <time>2019-03-03T11:01:20Z</time>
      </trkpt>
      <trkpt lat="44.22611" lon="6.16093">
        <ele>1755.99</ele>
        <time>2019-03-03T11:02:02Z</time>
      </trkpt>
      <trkpt lat="44.22611" lon="6.16093">
        <ele>1755.5</ele>
        <time>2019-03-03T11:02:40Z</time>
      </trkpt>
      <trkpt lat="44.22611" lon="6.16093">
        <ele>1755.5</ele>
        <time>2019-03-03T11:03:22Z</time>
      </trkpt>
      <trkpt lat="44.22611" lon="6.16093">
        <ele>1755.99</ele>
        <time>2019-03-03T11:03:47Z</time>
      </trkpt>
      <trkpt lat="44.22611" lon="6.16096">
        <ele>1756.47</ele>
        <time>2019-03-03T11:03:57Z</time>
      </trkpt>
      <trkpt lat="44.22609" lon="6.16102">
        <ele>1756.95</ele>
        <time>2019-03-03T11:04:10Z</time>
      </trkpt>
      <trkpt lat="44.22607" lon="6.1611">
        <ele>1756.95</ele>
        <time>2019-03-03T11:04:23Z</time>
      </trkpt>
      <trkpt lat="44.22607" lon="6.16118">
        <ele>1756.95</ele>
        <time>2019-03-03T11:04:37Z</time>
      </trkpt>
      <trkpt lat="44.22606" lon="6.1612">
        <ele>1756.95</ele>
        <time>2019-03-03T11:04:58Z</time>
      </trkpt>
      <trkpt lat="44.22604" lon="6.16125">
        <ele>1757.91</ele>
        <time>2019-03-03T11:05:11Z</time>
      </trkpt>
      <trkpt lat="44.22601" lon="6.16135">
        <ele>1757.91</ele>
        <time>2019-03-03T11:05:24Z</time>
      </trkpt>
      <trkpt lat="44.22598" lon="6.16143">
        <ele>1758.39</ele>
        <time>2019-03-03T11:05:37Z</time>
      </trkpt>
      <trkpt lat="44.22596" lon="6.1615">
        <ele>1759.35</ele>
        <time>2019-03-03T11:05:51Z</time>
      </trkpt>
      <trkpt lat="44.22596" lon="6.16155">
        <ele>1758.39</ele>
        <time>2019-03-03T11:06:04Z</time>
      </trkpt>
      <trkpt lat="44.22595" lon="6.16155">
        <ele>1757.91</ele>
        <time>2019-03-03T11:06:19Z</time>
      </trkpt>
      <trkpt lat="44.22596" lon="6.16155">
        <ele>1757.91</ele>
        <time>2019-03-03T11:06:33Z</time>
      </trkpt>
      <trkpt lat="44.22596" lon="6.16159">
        <ele>1757.43</ele>
        <time>2019-03-03T11:06:45Z</time>
      </trkpt>
      <trkpt lat="44.22595" lon="6.16164">
        <ele>1757.91</ele>
        <time>2019-03-03T11:06:59Z</time>
      </trkpt>
      <trkpt lat="44.22593" lon="6.16165">
        <ele>1758.39</ele>
        <time>2019-03-03T11:07:14Z</time>
      </trkpt>
      <trkpt lat="44.22593" lon="6.16163">
        <ele>1758.87</ele>
        <time>2019-03-03T11:07:28Z</time>
      </trkpt>
      <trkpt lat="44.22596" lon="6.16158">
        <ele>1757.91</ele>
        <time>2019-03-03T11:07:42Z</time>
      </trkpt>
      <trkpt lat="44.22597" lon="6.1615">
        <ele>1757.91</ele>
        <time>2019-03-03T11:07:56Z</time>
      </trkpt>
      <trkpt lat="44.22599" lon="6.16142">
        <ele>1758.39</ele>
        <time>2019-03-03T11:08:08Z</time>
      </trkpt>
      <trkpt lat="44.226" lon="6.16136">
        <ele>1757.91</ele>
        <time>2019-03-03T11:08:21Z</time>
      </trkpt>
      <trkpt lat="44.22601" lon="6.16134">
        <ele>1757.43</ele>
        <time>2019-03-03T11:08:23Z</time>
      </trkpt>
      <trkpt lat="44.22604" lon="6.16126">
        <ele>1757.43</ele>
        <time>2019-03-03T11:08:34Z</time>
      </trkpt>
      <trkpt lat="44.22604" lon="6.16123">
        <ele>1756.95</ele>
        <time>2019-03-03T11:08:46Z</time>
      </trkpt>
      <trkpt lat="44.22606" lon="6.16115">
        <ele>1756.95</ele>
        <time>2019-03-03T11:08:57Z</time>
      </trkpt>
      <trkpt lat="44.22608" lon="6.16106">
        <ele>1755.99</ele>
        <time>2019-03-03T11:09:08Z</time>
      </trkpt>
      <trkpt lat="44.2261" lon="6.16098">
        <ele>1755.99</ele>
        <time>2019-03-03T11:09:21Z</time>
      </trkpt>
      <trkpt lat="44.22612" lon="6.16091">
        <ele>1755.99</ele>
        <time>2019-03-03T11:09:42Z</time>
      </trkpt>
      <trkpt lat="44.22614" lon="6.16086">
        <ele>1755.02</ele>
        <time>2019-03-03T11:09:52Z</time>
      </trkpt>
      <trkpt lat="44.22615" lon="6.16079">
        <ele>1755.02</ele>
        <time>2019-03-03T11:10:05Z</time>
      </trkpt>
      <trkpt lat="44.22617" lon="6.16068">
        <ele>1754.54</ele>
        <time>2019-03-03T11:10:18Z</time>
      </trkpt>
      <trkpt lat="44.2262" lon="6.16054">
        <ele>1754.06</ele>
        <time>2019-03-03T11:10:31Z</time>
      </trkpt>
      <trkpt lat="44.22618" lon="6.16045">
        <ele>1754.06</ele>
        <time>2019-03-03T11:10:42Z</time>
      </trkpt>
      <trkpt lat="44.22617" lon="6.16042">
        <ele>1755.5</ele>
        <time>2019-03-03T11:10:57Z</time>
      </trkpt>
      <trkpt lat="44.22617" lon="6.16042">
        <ele>1757.43</ele>
        <time>2019-03-03T11:11:09Z</time>
      </trkpt>
      <trkpt lat="44.22616" lon="6.16044">
        <ele>1758.87</ele>
        <time>2019-03-03T11:11:20Z</time>
      </trkpt>
      <trkpt lat="44.22616" lon="6.16044">
        <ele>1758.39</ele>
        <time>2019-03-03T11:11:34Z</time>
      </trkpt>
      <trkpt lat="44.22613" lon="6.1605">
        <ele>1759.83</ele>
        <time>2019-03-03T11:11:53Z</time>
      </trkpt>
      <trkpt lat="44.22611" lon="6.16054">
        <ele>1761.75</ele>
        <time>2019-03-03T11:12:03Z</time>
      </trkpt>
      <trkpt lat="44.22611" lon="6.16054">
        <ele>1762.71</ele>
        <time>2019-03-03T11:12:16Z</time>
      </trkpt>
      <trkpt lat="44.22611" lon="6.16054">
        <ele>1763.68</ele>
        <time>2019-03-03T11:12:21Z</time>
      </trkpt>
      <trkpt lat="44.22611" lon="6.16054">
        <ele>1765.12</ele>
        <time>2019-03-03T11:12:32Z</time>
      </trkpt>
      <trkpt lat="44.22611" lon="6.16054">
        <ele>1763.2</ele>
        <time>2019-03-03T11:12:41Z</time>
      </trkpt>
      <trkpt lat="44.22611" lon="6.16055">
        <ele>1765.12</ele>
        <time>2019-03-03T11:12:56Z</time>
      </trkpt>
      <trkpt lat="44.22608" lon="6.16059">
        <ele>1766.08</ele>
        <time>2019-03-03T11:13:00Z</time>
      </trkpt>
      <trkpt lat="44.22606" lon="6.16062">
        <ele>1766.56</ele>
        <time>2019-03-03T11:13:14Z</time>
      </trkpt>
      <trkpt lat="44.22599" lon="6.16069">
        <ele>1768.48</ele>
        <time>2019-03-03T11:13:27Z</time>
      </trkpt>
      <trkpt lat="44.22597" lon="6.16073">
        <ele>1769.44</ele>
        <time>2019-03-03T11:13:44Z</time>
      </trkpt>
      <trkpt lat="44.22593" lon="6.16083">
        <ele>1769.44</ele>
        <time>2019-03-03T11:13:57Z</time>
      </trkpt>
      <trkpt lat="44.2259" lon="6.1609">
        <ele>1770.41</ele>
        <time>2019-03-03T11:14:10Z</time>
      </trkpt>
      <trkpt lat="44.22589" lon="6.1609">
        <ele>1771.85</ele>
        <time>2019-03-03T11:14:30Z</time>
      </trkpt>
      <trkpt lat="44.22589" lon="6.16091">
        <ele>1771.85</ele>
        <time>2019-03-03T11:14:49Z</time>
      </trkpt>
      <trkpt lat="44.22588" lon="6.16092">
        <ele>1772.81</ele>
        <time>2019-03-03T11:15:06Z</time>
      </trkpt>
      <trkpt lat="44.22586" lon="6.16094">
        <ele>1772.81</ele>
        <time>2019-03-03T11:15:22Z</time>
      </trkpt>
      <trkpt lat="44.2258" lon="6.16096">
        <ele>1775.21</ele>
        <time>2019-03-03T11:15:33Z</time>
      </trkpt>
      <trkpt lat="44.22577" lon="6.16096">
        <ele>1778.1</ele>
        <time>2019-03-03T11:15:47Z</time>
      </trkpt>
      <trkpt lat="44.22575" lon="6.16096">
        <ele>1779.06</ele>
        <time>2019-03-03T11:15:59Z</time>
      </trkpt>
      <trkpt lat="44.22573" lon="6.16098">
        <ele>1779.06</ele>
        <time>2019-03-03T11:16:09Z</time>
      </trkpt>
      <trkpt lat="44.22569" lon="6.161">
        <ele>1780.02</ele>
        <time>2019-03-03T11:16:20Z</time>
      </trkpt>
      <trkpt lat="44.22564" lon="6.16106">
        <ele>1780.98</ele>
        <time>2019-03-03T11:16:32Z</time>
      </trkpt>
      <trkpt lat="44.22564" lon="6.16107">
        <ele>1781.94</ele>
        <time>2019-03-03T11:16:44Z</time>
      </trkpt>
      <trkpt lat="44.22564" lon="6.16107">
        <ele>1781.94</ele>
        <time>2019-03-03T11:17:05Z</time>
      </trkpt>
      <trkpt lat="44.22562" lon="6.16112">
        <ele>1782.9</ele>
        <time>2019-03-03T11:17:21Z</time>
      </trkpt>
      <trkpt lat="44.22558" lon="6.16125">
        <ele>1783.86</ele>
        <time>2019-03-03T11:17:35Z</time>
      </trkpt>
      <trkpt lat="44.22557" lon="6.16126">
        <ele>1784.34</ele>
        <time>2019-03-03T11:17:36Z</time>
      </trkpt>
      <trkpt lat="44.22555" lon="6.16135">
        <ele>1784.82</ele>
        <time>2019-03-03T11:17:48Z</time>
      </trkpt>
      <trkpt lat="44.22552" lon="6.16142">
        <ele>1786.75</ele>
        <time>2019-03-03T11:18:01Z</time>
      </trkpt>
      <trkpt lat="44.22549" lon="6.16147">
        <ele>1788.19</ele>
        <time>2019-03-03T11:18:16Z</time>
      </trkpt>
      <trkpt lat="44.22547" lon="6.16151">
        <ele>1788.19</ele>
        <time>2019-03-03T11:18:29Z</time>
      </trkpt>
      <trkpt lat="44.22546" lon="6.16152">
        <ele>1789.15</ele>
        <time>2019-03-03T11:18:38Z</time>
      </trkpt>
      <trkpt lat="44.22544" lon="6.16157">
        <ele>1790.11</ele>
        <time>2019-03-03T11:18:52Z</time>
      </trkpt>
      <trkpt lat="44.22542" lon="6.16158">
        <ele>1791.07</ele>
        <time>2019-03-03T11:18:57Z</time>
      </trkpt>
      <trkpt lat="44.2254" lon="6.16163">
        <ele>1791.07</ele>
        <time>2019-03-03T11:19:09Z</time>
      </trkpt>
      <trkpt lat="44.22538" lon="6.16169">
        <ele>1791.55</ele>
        <time>2019-03-03T11:19:23Z</time>
      </trkpt>
      <trkpt lat="44.22538" lon="6.16174">
        <ele>1791.55</ele>
        <time>2019-03-03T11:19:34Z</time>
      </trkpt>
      <trkpt lat="44.22535" lon="6.16183">
        <ele>1790.11</ele>
        <time>2019-03-03T11:19:47Z</time>
      </trkpt>
      <trkpt lat="44.22533" lon="6.16189">
        <ele>1789.15</ele>
        <time>2019-03-03T11:19:59Z</time>
      </trkpt>
      <trkpt lat="44.2253" lon="6.16195">
        <ele>1789.63</ele>
        <time>2019-03-03T11:20:10Z</time>
      </trkpt>
      <trkpt lat="44.22525" lon="6.16202">
        <ele>1790.59</ele>
        <time>2019-03-03T11:20:25Z</time>
      </trkpt>
      <trkpt lat="44.2252" lon="6.1621">
        <ele>1792.52</ele>
        <time>2019-03-03T11:20:38Z</time>
      </trkpt>
      <trkpt lat="44.22517" lon="6.16216">
        <ele>1792.52</ele>
        <time>2019-03-03T11:20:51Z</time>
      </trkpt>
      <trkpt lat="44.22511" lon="6.16227">
        <ele>1793</ele>
        <time>2019-03-03T11:21:06Z</time>
      </trkpt>
      <trkpt lat="44.22507" lon="6.16232">
        <ele>1793</ele>
        <time>2019-03-03T11:21:19Z</time>
      </trkpt>
      <trkpt lat="44.22507" lon="6.16232">
        <ele>1793</ele>
        <time>2019-03-03T11:21:37Z</time>
      </trkpt>
      <trkpt lat="44.22506" lon="6.16238">
        <ele>1792.03</ele>
        <time>2019-03-03T11:21:51Z</time>
      </trkpt>
      <trkpt lat="44.22506" lon="6.16247">
        <ele>1790.11</ele>
        <time>2019-03-03T11:22:07Z</time>
      </trkpt>
      <trkpt lat="44.22506" lon="6.16246">
        <ele>1790.11</ele>
        <time>2019-03-03T11:22:28Z</time>
      </trkpt>
      <trkpt lat="44.22508" lon="6.16242">
        <ele>1790.59</ele>
        <time>2019-03-03T11:22:38Z</time>
      </trkpt>
      <trkpt lat="44.22508" lon="6.16225">
        <ele>1793.48</ele>
        <time>2019-03-03T11:22:54Z</time>
      </trkpt>
      <trkpt lat="44.2251" lon="6.16215">
        <ele>1794.92</ele>
        <time>2019-03-03T11:23:09Z</time>
      </trkpt>
      <trkpt lat="44.22512" lon="6.16215">
        <ele>1793.96</ele>
        <time>2019-03-03T11:23:24Z</time>
      </trkpt>
      <trkpt lat="44.22514" lon="6.16215">
        <ele>1793</ele>
        <time>2019-03-03T11:23:40Z</time>
      </trkpt>
      <trkpt lat="44.2252" lon="6.16209">
        <ele>1791.07</ele>
        <time>2019-03-03T11:23:54Z</time>
      </trkpt>
      <trkpt lat="44.22524" lon="6.16203">
        <ele>1791.07</ele>
        <time>2019-03-03T11:24:08Z</time>
      </trkpt>
      <trkpt lat="44.22526" lon="6.16197">
        <ele>1790.11</ele>
        <time>2019-03-03T11:24:16Z</time>
      </trkpt>
      <trkpt lat="44.22532" lon="6.16193">
        <ele>1789.15</ele>
        <time>2019-03-03T11:24:27Z</time>
      </trkpt>
      <trkpt lat="44.22535" lon="6.16185">
        <ele>1789.63</ele>
        <time>2019-03-03T11:24:38Z</time>
      </trkpt>
      <trkpt lat="44.22535" lon="6.16185">
        <ele>1790.11</ele>
        <time>2019-03-03T11:24:55Z</time>
      </trkpt>
      <trkpt lat="44.22533" lon="6.1619">
        <ele>1789.15</ele>
        <time>2019-03-03T11:25:06Z</time>
      </trkpt>
      <trkpt lat="44.22531" lon="6.16196">
        <ele>1789.15</ele>
        <time>2019-03-03T11:25:20Z</time>
      </trkpt>
      <trkpt lat="44.22531" lon="6.16196">
        <ele>1789.63</ele>
        <time>2019-03-03T11:25:41Z</time>
      </trkpt>
      <trkpt lat="44.22529" lon="6.16199">
        <ele>1790.59</ele>
        <time>2019-03-03T11:25:48Z</time>
      </trkpt>
      <trkpt lat="44.22523" lon="6.16207">
        <ele>1791.55</ele>
        <time>2019-03-03T11:26:00Z</time>
      </trkpt>
      <trkpt lat="44.22522" lon="6.16208">
        <ele>1791.55</ele>
        <time>2019-03-03T11:26:13Z</time>
      </trkpt>
      <trkpt lat="44.22521" lon="6.16211">
        <ele>1792.52</ele>
        <time>2019-03-03T11:26:24Z</time>
      </trkpt>
      <trkpt lat="44.22516" lon="6.16221">
        <ele>1792.52</ele>
        <time>2019-03-03T11:26:37Z</time>
      </trkpt>
      <trkpt lat="44.22512" lon="6.16231">
        <ele>1791.07</ele>
        <time>2019-03-03T11:26:50Z</time>
      </trkpt>
      <trkpt lat="44.22508" lon="6.16239">
        <ele>1791.07</ele>
        <time>2019-03-03T11:27:03Z</time>
      </trkpt>
      <trkpt lat="44.22508" lon="6.16249">
        <ele>1790.11</ele>
        <time>2019-03-03T11:27:15Z</time>
      </trkpt>
      <trkpt lat="44.22506" lon="6.16265">
        <ele>1787.71</ele>
        <time>2019-03-03T11:27:31Z</time>
      </trkpt>
      <trkpt lat="44.22501" lon="6.16275">
        <ele>1787.23</ele>
        <time>2019-03-03T11:27:45Z</time>
      </trkpt>
      <trkpt lat="44.225" lon="6.16277">
        <ele>1786.75</ele>
        <time>2019-03-03T11:27:58Z</time>
      </trkpt>
      <trkpt lat="44.22501" lon="6.16278">
        <ele>1787.23</ele>
        <time>2019-03-03T11:28:13Z</time>
      </trkpt>
      <trkpt lat="44.22502" lon="6.16283">
        <ele>1785.79</ele>
        <time>2019-03-03T11:28:20Z</time>
      </trkpt>
      <trkpt lat="44.225" lon="6.16292">
        <ele>1786.27</ele>
        <time>2019-03-03T11:28:32Z</time>
      </trkpt>
      <trkpt lat="44.22499" lon="6.16294">
        <ele>1786.27</ele>
        <time>2019-03-03T11:28:48Z</time>
      </trkpt>
      <trkpt lat="44.22499" lon="6.16294">
        <ele>1786.27</ele>
        <time>2019-03-03T11:29:19Z</time>
      </trkpt>
      <trkpt lat="44.22496" lon="6.16302">
        <ele>1786.75</ele>
        <time>2019-03-03T11:29:32Z</time>
      </trkpt>
      <trkpt lat="44.22496" lon="6.16302">
        <ele>1786.75</ele>
        <time>2019-03-03T11:29:50Z</time>
      </trkpt>
      <trkpt lat="44.22493" lon="6.16308">
        <ele>1787.23</ele>
        <time>2019-03-03T11:30:05Z</time>
      </trkpt>
      <trkpt lat="44.2249" lon="6.16313">
        <ele>1788.67</ele>
        <time>2019-03-03T11:30:16Z</time>
      </trkpt>
      <trkpt lat="44.22487" lon="6.1632">
        <ele>1789.63</ele>
        <time>2019-03-03T11:30:28Z</time>
      </trkpt>
      <trkpt lat="44.22485" lon="6.16324">
        <ele>1790.11</ele>
        <time>2019-03-03T11:30:42Z</time>
      </trkpt>
      <trkpt lat="44.22483" lon="6.16332">
        <ele>1790.11</ele>
        <time>2019-03-03T11:30:54Z</time>
      </trkpt>
      <trkpt lat="44.2248" lon="6.16343">
        <ele>1791.55</ele>
        <time>2019-03-03T11:31:08Z</time>
      </trkpt>
      <trkpt lat="44.22478" lon="6.1635">
        <ele>1792.52</ele>
        <time>2019-03-03T11:31:21Z</time>
      </trkpt>
      <trkpt lat="44.22474" lon="6.16358">
        <ele>1793.96</ele>
        <time>2019-03-03T11:31:33Z</time>
      </trkpt>
      <trkpt lat="44.22472" lon="6.16364">
        <ele>1794.92</ele>
        <time>2019-03-03T11:31:47Z</time>
      </trkpt>
      <trkpt lat="44.2247" lon="6.1637">
        <ele>1795.4</ele>
        <time>2019-03-03T11:31:59Z</time>
      </trkpt>
      <trkpt lat="44.22468" lon="6.16374">
        <ele>1796.36</ele>
        <time>2019-03-03T11:32:12Z</time>
      </trkpt>
      <trkpt lat="44.22464" lon="6.1638">
        <ele>1797.8</ele>
        <time>2019-03-03T11:32:25Z</time>
      </trkpt>
      <trkpt lat="44.2246" lon="6.16385">
        <ele>1798.76</ele>
        <time>2019-03-03T11:32:42Z</time>
      </trkpt>
      <trkpt lat="44.22458" lon="6.16388">
        <ele>1799.73</ele>
        <time>2019-03-03T11:32:54Z</time>
      </trkpt>
      <trkpt lat="44.22454" lon="6.16394">
        <ele>1799.73</ele>
        <time>2019-03-03T11:33:12Z</time>
      </trkpt>
      <trkpt lat="44.22449" lon="6.16402">
        <ele>1800.69</ele>
        <time>2019-03-03T11:33:24Z</time>
      </trkpt>
      <trkpt lat="44.22445" lon="6.16412">
        <ele>1801.17</ele>
        <time>2019-03-03T11:33:38Z</time>
      </trkpt>
      <trkpt lat="44.22444" lon="6.16413">
        <ele>1802.61</ele>
        <time>2019-03-03T11:33:52Z</time>
      </trkpt>
      <trkpt lat="44.2244" lon="6.16416">
        <ele>1802.13</ele>
        <time>2019-03-03T11:34:08Z</time>
      </trkpt>
      <trkpt lat="44.22437" lon="6.16422">
        <ele>1803.09</ele>
        <time>2019-03-03T11:34:18Z</time>
      </trkpt>
      <trkpt lat="44.22431" lon="6.16432">
        <ele>1803.57</ele>
        <time>2019-03-03T11:34:33Z</time>
      </trkpt>
      <trkpt lat="44.2243" lon="6.16438">
        <ele>1804.05</ele>
        <time>2019-03-03T11:34:47Z</time>
      </trkpt>
      <trkpt lat="44.22427" lon="6.16443">
        <ele>1805.01</ele>
        <time>2019-03-03T11:35:02Z</time>
      </trkpt>
      <trkpt lat="44.22427" lon="6.16444">
        <ele>1804.53</ele>
        <time>2019-03-03T11:35:22Z</time>
      </trkpt>
      <trkpt lat="44.22422" lon="6.16452">
        <ele>1805.01</ele>
        <time>2019-03-03T11:35:35Z</time>
      </trkpt>
      <trkpt lat="44.22417" lon="6.16461">
        <ele>1805.49</ele>
        <time>2019-03-03T11:35:47Z</time>
      </trkpt>
      <trkpt lat="44.22411" lon="6.16469">
        <ele>1805.49</ele>
        <time>2019-03-03T11:36:01Z</time>
      </trkpt>
      <trkpt lat="44.22406" lon="6.16476">
        <ele>1805.97</ele>
        <time>2019-03-03T11:36:14Z</time>
      </trkpt>
      <trkpt lat="44.22401" lon="6.16486">
        <ele>1805.97</ele>
        <time>2019-03-03T11:36:28Z</time>
      </trkpt>
      <trkpt lat="44.22397" lon="6.16493">
        <ele>1805.49</ele>
        <time>2019-03-03T11:36:37Z</time>
      </trkpt>
      <trkpt lat="44.22391" lon="6.16502">
        <ele>1805.49</ele>
        <time>2019-03-03T11:36:51Z</time>
      </trkpt>
      <trkpt lat="44.22387" lon="6.16508">
        <ele>1805.97</ele>
        <time>2019-03-03T11:37:03Z</time>
      </trkpt>
      <trkpt lat="44.22382" lon="6.16515">
        <ele>1805.97</ele>
        <time>2019-03-03T11:37:15Z</time>
      </trkpt>
      <trkpt lat="44.22376" lon="6.16524">
        <ele>1805.49</ele>
        <time>2019-03-03T11:37:29Z</time>
      </trkpt>
      <trkpt lat="44.22374" lon="6.16526">
        <ele>1805.97</ele>
        <time>2019-03-03T11:37:42Z</time>
      </trkpt>
      <trkpt lat="44.22374" lon="6.16526">
        <ele>1805.97</ele>
        <time>2019-03-03T11:38:01Z</time>
      </trkpt>
      <trkpt lat="44.22374" lon="6.16528">
        <ele>1805.49</ele>
        <time>2019-03-03T11:38:20Z</time>
      </trkpt>
      <trkpt lat="44.22368" lon="6.16534">
        <ele>1805.97</ele>
        <time>2019-03-03T11:38:34Z</time>
      </trkpt>
      <trkpt lat="44.22364" lon="6.16544">
        <ele>1805.97</ele>
        <time>2019-03-03T11:38:48Z</time>
      </trkpt>
      <trkpt lat="44.22359" lon="6.16555">
        <ele>1806.45</ele>
        <time>2019-03-03T11:39:02Z</time>
      </trkpt>
      <trkpt lat="44.22355" lon="6.16566">
        <ele>1806.45</ele>
        <time>2019-03-03T11:39:15Z</time>
      </trkpt>
      <trkpt lat="44.2235" lon="6.16572">
        <ele>1807.42</ele>
        <time>2019-03-03T11:39:28Z</time>
      </trkpt>
      <trkpt lat="44.22345" lon="6.16577">
        <ele>1808.38</ele>
        <time>2019-03-03T11:39:40Z</time>
      </trkpt>
      <trkpt lat="44.22343" lon="6.16589">
        <ele>1808.86</ele>
        <time>2019-03-03T11:39:54Z</time>
      </trkpt>
      <trkpt lat="44.22341" lon="6.166">
        <ele>1809.82</ele>
        <time>2019-03-03T11:40:08Z</time>
      </trkpt>
      <trkpt lat="44.22339" lon="6.16611">
        <ele>1811.74</ele>
        <time>2019-03-03T11:40:21Z</time>
      </trkpt>
      <trkpt lat="44.22338" lon="6.1662">
        <ele>1812.22</ele>
        <time>2019-03-03T11:40:33Z</time>
      </trkpt>
      <trkpt lat="44.22337" lon="6.16629">
        <ele>1813.66</ele>
        <time>2019-03-03T11:40:49Z</time>
      </trkpt>
      <trkpt lat="44.22334" lon="6.16634">
        <ele>1815.11</ele>
        <time>2019-03-03T11:41:00Z</time>
      </trkpt>
      <trkpt lat="44.22334" lon="6.16643">
        <ele>1816.07</ele>
        <time>2019-03-03T11:41:12Z</time>
      </trkpt>
      <trkpt lat="44.22334" lon="6.16654">
        <ele>1817.03</ele>
        <time>2019-03-03T11:41:25Z</time>
      </trkpt>
      <trkpt lat="44.22332" lon="6.16665">
        <ele>1818.47</ele>
        <time>2019-03-03T11:41:39Z</time>
      </trkpt>
      <trkpt lat="44.22331" lon="6.16674">
        <ele>1819.91</ele>
        <time>2019-03-03T11:41:51Z</time>
      </trkpt>
      <trkpt lat="44.22332" lon="6.16676">
        <ele>1819.43</ele>
        <time>2019-03-03T11:42:09Z</time>
      </trkpt>
      <trkpt lat="44.22332" lon="6.16688">
        <ele>1819.43</ele>
        <time>2019-03-03T11:42:23Z</time>
      </trkpt>
      <trkpt lat="44.22331" lon="6.16701">
        <ele>1820.39</ele>
        <time>2019-03-03T11:42:36Z</time>
      </trkpt>
      <trkpt lat="44.22327" lon="6.16713">
        <ele>1821.84</ele>
        <time>2019-03-03T11:42:49Z</time>
      </trkpt>
      <trkpt lat="44.22327" lon="6.16724">
        <ele>1822.32</ele>
        <time>2019-03-03T11:43:00Z</time>
      </trkpt>
      <trkpt lat="44.22326" lon="6.16736">
        <ele>1823.28</ele>
        <time>2019-03-03T11:43:13Z</time>
      </trkpt>
      <trkpt lat="44.22324" lon="6.1675">
        <ele>1823.28</ele>
        <time>2019-03-03T11:43:28Z</time>
      </trkpt>
      <trkpt lat="44.22321" lon="6.16759">
        <ele>1824.72</ele>
        <time>2019-03-03T11:43:40Z</time>
      </trkpt>
      <trkpt lat="44.22319" lon="6.16769">
        <ele>1824.72</ele>
        <time>2019-03-03T11:43:49Z</time>
      </trkpt>
      <trkpt lat="44.22317" lon="6.16786">
        <ele>1824.72</ele>
        <time>2019-03-03T11:44:04Z</time>
      </trkpt>
      <trkpt lat="44.22311" lon="6.168">
        <ele>1826.64</ele>
        <time>2019-03-03T11:44:20Z</time>
      </trkpt>
      <trkpt lat="44.22307" lon="6.16811">
        <ele>1827.6</ele>
        <time>2019-03-03T11:44:34Z</time>
      </trkpt>
      <trkpt lat="44.22306" lon="6.16822">
        <ele>1827.6</ele>
        <time>2019-03-03T11:44:47Z</time>
      </trkpt>
      <trkpt lat="44.22309" lon="6.16829">
        <ele>1826.64</ele>
        <time>2019-03-03T11:44:59Z</time>
      </trkpt>
      <trkpt lat="44.22312" lon="6.16835">
        <ele>1825.2</ele>
        <time>2019-03-03T11:45:14Z</time>
      </trkpt>
      <trkpt lat="44.22312" lon="6.16839">
        <ele>1824.24</ele>
        <time>2019-03-03T11:45:28Z</time>
      </trkpt>
      <trkpt lat="44.2231" lon="6.16851">
        <ele>1824.24</ele>
        <time>2019-03-03T11:45:41Z</time>
      </trkpt>
      <trkpt lat="44.22307" lon="6.16858">
        <ele>1825.2</ele>
        <time>2019-03-03T11:45:52Z</time>
      </trkpt>
      <trkpt lat="44.22307" lon="6.16859">
        <ele>1823.76</ele>
        <time>2019-03-03T11:46:10Z</time>
      </trkpt>
      <trkpt lat="44.22308" lon="6.16858">
        <ele>1824.24</ele>
        <time>2019-03-03T11:46:23Z</time>
      </trkpt>
      <trkpt lat="44.22308" lon="6.16858">
        <ele>1824.24</ele>
        <time>2019-03-03T11:46:42Z</time>
      </trkpt>
      <trkpt lat="44.22308" lon="6.16858">
        <ele>1824.72</ele>
        <time>2019-03-03T11:46:45Z</time>
      </trkpt>
      <trkpt lat="44.22305" lon="6.16867">
        <ele>1825.2</ele>
        <time>2019-03-03T11:46:57Z</time>
      </trkpt>
      <trkpt lat="44.22302" lon="6.16875">
        <ele>1823.76</ele>
        <time>2019-03-03T11:47:09Z</time>
      </trkpt>
      <trkpt lat="44.22298" lon="6.16882">
        <ele>1824.24</ele>
        <time>2019-03-03T11:47:22Z</time>
      </trkpt>
      <trkpt lat="44.22295" lon="6.16887">
        <ele>1824.24</ele>
        <time>2019-03-03T11:47:40Z</time>
      </trkpt>
      <trkpt lat="44.22292" lon="6.16894">
        <ele>1823.28</ele>
        <time>2019-03-03T11:47:52Z</time>
      </trkpt>
      <trkpt lat="44.22288" lon="6.169">
        <ele>1822.32</ele>
        <time>2019-03-03T11:48:09Z</time>
      </trkpt>
      <trkpt lat="44.22286" lon="6.16903">
        <ele>1821.84</ele>
        <time>2019-03-03T11:48:23Z</time>
      </trkpt>
      <trkpt lat="44.22284" lon="6.16906">
        <ele>1822.32</ele>
        <time>2019-03-03T11:48:37Z</time>
      </trkpt>
      <trkpt lat="44.22279" lon="6.16911">
        <ele>1822.32</ele>
        <time>2019-03-03T11:48:52Z</time>
      </trkpt>
      <trkpt lat="44.22274" lon="6.16919">
        <ele>1821.84</ele>
        <time>2019-03-03T11:49:04Z</time>
      </trkpt>
      <trkpt lat="44.22271" lon="6.16925">
        <ele>1820.39</ele>
        <time>2019-03-03T11:49:16Z</time>
      </trkpt>
      <trkpt lat="44.22268" lon="6.16933">
        <ele>1819.43</ele>
        <time>2019-03-03T11:49:27Z</time>
      </trkpt>
      <trkpt lat="44.22264" lon="6.16941">
        <ele>1817.51</ele>
        <time>2019-03-03T11:49:40Z</time>
      </trkpt>
      <trkpt lat="44.22261" lon="6.16946">
        <ele>1817.03</ele>
        <time>2019-03-03T11:49:52Z</time>
      </trkpt>
      <trkpt lat="44.22258" lon="6.16951">
        <ele>1816.55</ele>
        <time>2019-03-03T11:50:02Z</time>
      </trkpt>
      <trkpt lat="44.22254" lon="6.16963">
        <ele>1815.59</ele>
        <time>2019-03-03T11:50:19Z</time>
      </trkpt>
      <trkpt lat="44.22252" lon="6.16972">
        <ele>1813.66</ele>
        <time>2019-03-03T11:50:31Z</time>
      </trkpt>
      <trkpt lat="44.2225" lon="6.16985">
        <ele>1811.74</ele>
        <time>2019-03-03T11:50:46Z</time>
      </trkpt>
      <trkpt lat="44.22248" lon="6.16994">
        <ele>1810.3</ele>
        <time>2019-03-03T11:50:57Z</time>
      </trkpt>
      <trkpt lat="44.22248" lon="6.17004">
        <ele>1808.38</ele>
        <time>2019-03-03T11:51:09Z</time>
      </trkpt>
      <trkpt lat="44.22246" lon="6.17017">
        <ele>1806.94</ele>
        <time>2019-03-03T11:51:24Z</time>
      </trkpt>
      <trkpt lat="44.22245" lon="6.17027">
        <ele>1805.49</ele>
        <time>2019-03-03T11:51:36Z</time>
      </trkpt>
      <trkpt lat="44.22246" lon="6.1703">
        <ele>1804.53</ele>
        <time>2019-03-03T11:51:49Z</time>
      </trkpt>
      <trkpt lat="44.22244" lon="6.17036">
        <ele>1804.05</ele>
        <time>2019-03-03T11:52:05Z</time>
      </trkpt>
      <trkpt lat="44.22239" lon="6.17055">
        <ele>1804.05</ele>
        <time>2019-03-03T11:52:19Z</time>
      </trkpt>
      <trkpt lat="44.22234" lon="6.1707">
        <ele>1804.05</ele>
        <time>2019-03-03T11:52:35Z</time>
      </trkpt>
      <trkpt lat="44.22233" lon="6.17075">
        <ele>1804.05</ele>
        <time>2019-03-03T11:52:52Z</time>
      </trkpt>
      <trkpt lat="44.2223" lon="6.17082">
        <ele>1805.01</ele>
        <time>2019-03-03T11:53:05Z</time>
      </trkpt>
      <trkpt lat="44.22232" lon="6.17091">
        <ele>1804.53</ele>
        <time>2019-03-03T11:53:17Z</time>
      </trkpt>
      <trkpt lat="44.22231" lon="6.17092">
        <ele>1805.01</ele>
        <time>2019-03-03T11:53:28Z</time>
      </trkpt>
      <trkpt lat="44.22231" lon="6.17092">
        <ele>1804.53</ele>
        <time>2019-03-03T11:53:46Z</time>
      </trkpt>
      <trkpt lat="44.22227" lon="6.17097">
        <ele>1806.45</ele>
        <time>2019-03-03T11:54:02Z</time>
      </trkpt>
      <trkpt lat="44.22225" lon="6.171">
        <ele>1808.38</ele>
        <time>2019-03-03T11:54:19Z</time>
      </trkpt>
      <trkpt lat="44.22224" lon="6.17105">
        <ele>1808.38</ele>
        <time>2019-03-03T11:54:33Z</time>
      </trkpt>
      <trkpt lat="44.22223" lon="6.1711">
        <ele>1809.34</ele>
        <time>2019-03-03T11:54:47Z</time>
      </trkpt>
      <trkpt lat="44.22223" lon="6.1711">
        <ele>1809.34</ele>
        <time>2019-03-03T11:55:15Z</time>
      </trkpt>
      <trkpt lat="44.22223" lon="6.17111">
        <ele>1809.34</ele>
        <time>2019-03-03T11:55:32Z</time>
      </trkpt>
      <trkpt lat="44.22223" lon="6.17111">
        <ele>1808.86</ele>
        <time>2019-03-03T11:56:04Z</time>
      </trkpt>
      <trkpt lat="44.22223" lon="6.17112">
        <ele>1809.82</ele>
        <time>2019-03-03T11:56:24Z</time>
      </trkpt>
      <trkpt lat="44.22223" lon="6.17114">
        <ele>1812.22</ele>
        <time>2019-03-03T11:56:40Z</time>
      </trkpt>
      <trkpt lat="44.22223" lon="6.17114">
        <ele>1812.22</ele>
        <time>2019-03-03T11:56:52Z</time>
      </trkpt>
      <trkpt lat="44.22222" lon="6.17115">
        <ele>1812.22</ele>
        <time>2019-03-03T11:57:14Z</time>
      </trkpt>
      <trkpt lat="44.22222" lon="6.17117">
        <ele>1811.74</ele>
        <time>2019-03-03T11:57:32Z</time>
      </trkpt>
      <trkpt lat="44.22222" lon="6.17117">
        <ele>1812.22</ele>
        <time>2019-03-03T11:58:01Z</time>
      </trkpt>
      <trkpt lat="44.22222" lon="6.17118">
        <ele>1811.74</ele>
        <time>2019-03-03T11:58:26Z</time>
      </trkpt>
      <trkpt lat="44.22222" lon="6.17119">
        <ele>1812.22</ele>
        <time>2019-03-03T11:58:43Z</time>
      </trkpt>
      <trkpt lat="44.2222" lon="6.17134">
        <ele>1813.18</ele>
        <time>2019-03-03T11:58:57Z</time>
      </trkpt>
      <trkpt lat="44.2222" lon="6.17139">
        <ele>1814.63</ele>
        <time>2019-03-03T11:59:10Z</time>
      </trkpt>
      <trkpt lat="44.22218" lon="6.17147">
        <ele>1816.55</ele>
        <time>2019-03-03T11:59:22Z</time>
      </trkpt>
      <trkpt lat="44.22216" lon="6.17152">
        <ele>1817.99</ele>
        <time>2019-03-03T11:59:33Z</time>
      </trkpt>
      <trkpt lat="44.22216" lon="6.17153">
        <ele>1818.47</ele>
        <time>2019-03-03T11:59:35Z</time>
      </trkpt>
      <trkpt lat="44.22217" lon="6.17159">
        <ele>1819.91</ele>
        <time>2019-03-03T11:59:49Z</time>
      </trkpt>
      <trkpt lat="44.22218" lon="6.17161">
        <ele>1820.39</ele>
        <time>2019-03-03T12:00:03Z</time>
      </trkpt>
      <trkpt lat="44.2222" lon="6.17171">
        <ele>1821.84</ele>
        <time>2019-03-03T12:00:17Z</time>
      </trkpt>
      <trkpt lat="44.22222" lon="6.1718">
        <ele>1824.24</ele>
        <time>2019-03-03T12:00:33Z</time>
      </trkpt>
      <trkpt lat="44.22222" lon="6.17186">
        <ele>1826.16</ele>
        <time>2019-03-03T12:00:46Z</time>
      </trkpt>
      <trkpt lat="44.22221" lon="6.17189">
        <ele>1827.6</ele>
        <time>2019-03-03T12:00:58Z</time>
      </trkpt>
      <trkpt lat="44.22218" lon="6.17193">
        <ele>1828.56</ele>
        <time>2019-03-03T12:01:14Z</time>
      </trkpt>
      <trkpt lat="44.22216" lon="6.17196">
        <ele>1830.01</ele>
        <time>2019-03-03T12:01:25Z</time>
      </trkpt>
      <trkpt lat="44.22215" lon="6.17198">
        <ele>1831.45</ele>
        <time>2019-03-03T12:01:36Z</time>
      </trkpt>
      <trkpt lat="44.22212" lon="6.17202">
        <ele>1833.37</ele>
        <time>2019-03-03T12:01:52Z</time>
      </trkpt>
      <trkpt lat="44.22209" lon="6.17206">
        <ele>1834.81</ele>
        <time>2019-03-03T12:02:05Z</time>
      </trkpt>
      <trkpt lat="44.22208" lon="6.17212">
        <ele>1836.74</ele>
        <time>2019-03-03T12:02:16Z</time>
      </trkpt>
      <trkpt lat="44.22206" lon="6.17216">
        <ele>1838.18</ele>
        <time>2019-03-03T12:02:28Z</time>
      </trkpt>
      <trkpt lat="44.22207" lon="6.17216">
        <ele>1838.66</ele>
        <time>2019-03-03T12:02:44Z</time>
      </trkpt>
      <trkpt lat="44.22202" lon="6.17221">
        <ele>1840.58</ele>
        <time>2019-03-03T12:02:57Z</time>
      </trkpt>
      <trkpt lat="44.22197" lon="6.17222">
        <ele>1842.02</ele>
        <time>2019-03-03T12:03:09Z</time>
      </trkpt>
      <trkpt lat="44.22192" lon="6.17226">
        <ele>1843.95</ele>
        <time>2019-03-03T12:03:22Z</time>
      </trkpt>
      <trkpt lat="44.22197" lon="6.17234">
        <ele>1845.39</ele>
        <time>2019-03-03T12:03:35Z</time>
      </trkpt>
      <trkpt lat="44.22195" lon="6.17238">
        <ele>1846.83</ele>
        <time>2019-03-03T12:03:46Z</time>
      </trkpt>
      <trkpt lat="44.22192" lon="6.17242">
        <ele>1849.23</ele>
        <time>2019-03-03T12:03:58Z</time>
      </trkpt>
      <trkpt lat="44.22192" lon="6.17242">
        <ele>1848.75</ele>
        <time>2019-03-03T12:04:16Z</time>
      </trkpt>
      <trkpt lat="44.22191" lon="6.17242">
        <ele>1848.27</ele>
        <time>2019-03-03T12:04:36Z</time>
      </trkpt>
      <trkpt lat="44.2219" lon="6.17244">
        <ele>1848.75</ele>
        <time>2019-03-03T12:04:49Z</time>
      </trkpt>
      <trkpt lat="44.22187" lon="6.17253">
        <ele>1852.12</ele>
        <time>2019-03-03T12:05:02Z</time>
      </trkpt>
      <trkpt lat="44.22185" lon="6.17264">
        <ele>1855</ele>
        <time>2019-03-03T12:05:16Z</time>
      </trkpt>
      <trkpt lat="44.22184" lon="6.17272">
        <ele>1856.44</ele>
        <time>2019-03-03T12:05:29Z</time>
      </trkpt>
      <trkpt lat="44.22182" lon="6.17282">
        <ele>1857.4</ele>
        <time>2019-03-03T12:05:43Z</time>
      </trkpt>
      <trkpt lat="44.22176" lon="6.1729">
        <ele>1859.33</ele>
        <time>2019-03-03T12:05:57Z</time>
      </trkpt>
      <trkpt lat="44.2217" lon="6.17298">
        <ele>1860.29</ele>
        <time>2019-03-03T12:06:09Z</time>
      </trkpt>
      <trkpt lat="44.22166" lon="6.17311">
        <ele>1860.29</ele>
        <time>2019-03-03T12:06:22Z</time>
      </trkpt>
      <trkpt lat="44.22165" lon="6.17315">
        <ele>1860.77</ele>
        <time>2019-03-03T12:06:26Z</time>
      </trkpt>
      <trkpt lat="44.2216" lon="6.1733">
        <ele>1860.77</ele>
        <time>2019-03-03T12:06:41Z</time>
      </trkpt>
      <trkpt lat="44.22158" lon="6.17344">
        <ele>1859.81</ele>
        <time>2019-03-03T12:06:54Z</time>
      </trkpt>
      <trkpt lat="44.22158" lon="6.17346">
        <ele>1859.33</ele>
        <time>2019-03-03T12:06:57Z</time>
      </trkpt>
      <trkpt lat="44.22156" lon="6.1736">
        <ele>1857.89</ele>
        <time>2019-03-03T12:07:11Z</time>
      </trkpt>
      <trkpt lat="44.22159" lon="6.17374">
        <ele>1855.48</ele>
        <time>2019-03-03T12:07:26Z</time>
      </trkpt>
      <trkpt lat="44.22159" lon="6.17376">
        <ele>1855.48</ele>
        <time>2019-03-03T12:07:28Z</time>
      </trkpt>
      <trkpt lat="44.22159" lon="6.17387">
        <ele>1853.08</ele>
        <time>2019-03-03T12:07:41Z</time>
      </trkpt>
      <trkpt lat="44.22159" lon="6.17396">
        <ele>1852.6</ele>
        <time>2019-03-03T12:07:51Z</time>
      </trkpt>
      <trkpt lat="44.22158" lon="6.1741">
        <ele>1850.68</ele>
        <time>2019-03-03T12:08:05Z</time>
      </trkpt>
      <trkpt lat="44.2215" lon="6.17416">
        <ele>1853.08</ele>
        <time>2019-03-03T12:08:20Z</time>
      </trkpt>
      <trkpt lat="44.22143" lon="6.17423">
        <ele>1855.48</ele>
        <time>2019-03-03T12:08:35Z</time>
      </trkpt>
      <trkpt lat="44.22139" lon="6.17425">
        <ele>1856.92</ele>
        <time>2019-03-03T12:08:49Z</time>
      </trkpt>
      <trkpt lat="44.22139" lon="6.17425">
        <ele>1857.4</ele>
        <time>2019-03-03T12:09:12Z</time>
      </trkpt>
      <trkpt lat="44.22134" lon="6.17435">
        <ele>1857.89</ele>
        <time>2019-03-03T12:09:29Z</time>
      </trkpt>
      <trkpt lat="44.22133" lon="6.1744">
        <ele>1857.89</ele>
        <time>2019-03-03T12:09:34Z</time>
      </trkpt>
      <trkpt lat="44.22128" lon="6.17451">
        <ele>1858.85</ele>
        <time>2019-03-03T12:09:47Z</time>
      </trkpt>
      <trkpt lat="44.22123" lon="6.17462">
        <ele>1859.81</ele>
        <time>2019-03-03T12:10:00Z</time>
      </trkpt>
      <trkpt lat="44.22118" lon="6.17471">
        <ele>1860.77</ele>
        <time>2019-03-03T12:10:13Z</time>
      </trkpt>
      <trkpt lat="44.22111" lon="6.17479">
        <ele>1861.25</ele>
        <time>2019-03-03T12:10:27Z</time>
      </trkpt>
      <trkpt lat="44.22106" lon="6.17491">
        <ele>1862.21</ele>
        <time>2019-03-03T12:10:42Z</time>
      </trkpt>
      <trkpt lat="44.22101" lon="6.175">
        <ele>1863.17</ele>
        <time>2019-03-03T12:10:55Z</time>
      </trkpt>
      <trkpt lat="44.22096" lon="6.17512">
        <ele>1863.17</ele>
        <time>2019-03-03T12:11:08Z</time>
      </trkpt>
      <trkpt lat="44.22089" lon="6.17519">
        <ele>1865.09</ele>
        <time>2019-03-03T12:11:22Z</time>
      </trkpt>
      <trkpt lat="44.22083" lon="6.17527">
        <ele>1866.54</ele>
        <time>2019-03-03T12:11:36Z</time>
      </trkpt>
      <trkpt lat="44.22075" lon="6.17539">
        <ele>1867.98</ele>
        <time>2019-03-03T12:11:51Z</time>
      </trkpt>
      <trkpt lat="44.22067" lon="6.17548">
        <ele>1868.94</ele>
        <time>2019-03-03T12:12:06Z</time>
      </trkpt>
      <trkpt lat="44.22058" lon="6.17557">
        <ele>1870.86</ele>
        <time>2019-03-03T12:12:23Z</time>
      </trkpt>
      <trkpt lat="44.22054" lon="6.17564">
        <ele>1872.3</ele>
        <time>2019-03-03T12:12:37Z</time>
      </trkpt>
      <trkpt lat="44.2205" lon="6.17573">
        <ele>1873.27</ele>
        <time>2019-03-03T12:12:52Z</time>
      </trkpt>
      <trkpt lat="44.22042" lon="6.17583">
        <ele>1874.71</ele>
        <time>2019-03-03T12:13:07Z</time>
      </trkpt>
      <trkpt lat="44.22035" lon="6.17593">
        <ele>1876.15</ele>
        <time>2019-03-03T12:13:21Z</time>
      </trkpt>
      <trkpt lat="44.22026" lon="6.17601">
        <ele>1878.07</ele>
        <time>2019-03-03T12:13:37Z</time>
      </trkpt>
      <trkpt lat="44.22017" lon="6.17608">
        <ele>1878.55</ele>
        <time>2019-03-03T12:13:49Z</time>
      </trkpt>
      <trkpt lat="44.22009" lon="6.17618">
        <ele>1880</ele>
        <time>2019-03-03T12:14:03Z</time>
      </trkpt>
      <trkpt lat="44.22" lon="6.17629">
        <ele>1879.51</ele>
        <time>2019-03-03T12:14:16Z</time>
      </trkpt>
      <trkpt lat="44.21991" lon="6.17641">
        <ele>1877.59</ele>
        <time>2019-03-03T12:14:30Z</time>
      </trkpt>
      <trkpt lat="44.21985" lon="6.17648">
        <ele>1877.11</ele>
        <time>2019-03-03T12:14:38Z</time>
      </trkpt>
      <trkpt lat="44.21971" lon="6.17655">
        <ele>1877.11</ele>
        <time>2019-03-03T12:14:54Z</time>
      </trkpt>
      <trkpt lat="44.21966" lon="6.17655">
        <ele>1878.07</ele>
        <time>2019-03-03T12:15:00Z</time>
      </trkpt>
      <trkpt lat="44.21959" lon="6.17658">
        <ele>1878.55</ele>
        <time>2019-03-03T12:15:08Z</time>
      </trkpt>
      <trkpt lat="44.21949" lon="6.17664">
        <ele>1879.51</ele>
        <time>2019-03-03T12:15:24Z</time>
      </trkpt>
      <trkpt lat="44.21939" lon="6.17662">
        <ele>1881.92</ele>
        <time>2019-03-03T12:15:39Z</time>
      </trkpt>
      <trkpt lat="44.21935" lon="6.1765">
        <ele>1885.28</ele>
        <time>2019-03-03T12:15:55Z</time>
      </trkpt>
      <trkpt lat="44.21936" lon="6.17651">
        <ele>1883.84</ele>
        <time>2019-03-03T12:16:06Z</time>
      </trkpt>
      <trkpt lat="44.21936" lon="6.17651">
        <ele>1870.38</ele>
        <time>2019-03-03T12:16:13Z</time>
      </trkpt>
      <trkpt lat="44.21935" lon="6.17651">
        <ele>1891.05</ele>
        <time>2019-03-03T12:16:14Z</time>
      </trkpt>
      <trkpt lat="44.21935" lon="6.17651">
        <ele>1884.32</ele>
        <time>2019-03-03T12:16:15Z</time>
      </trkpt>
      <trkpt lat="44.21935" lon="6.1765">
        <ele>1883.84</ele>
        <time>2019-03-03T12:16:30Z</time>
      </trkpt>
      <trkpt lat="44.21935" lon="6.17651">
        <ele>1883.36</ele>
        <time>2019-03-03T12:16:45Z</time>
      </trkpt>
      <trkpt lat="44.21935" lon="6.17651">
        <ele>1883.84</ele>
        <time>2019-03-03T12:17:20Z</time>
      </trkpt>
      <trkpt lat="44.21935" lon="6.17651">
        <ele>1883.84</ele>
        <time>2019-03-03T12:17:58Z</time>
      </trkpt>
      <trkpt lat="44.21935" lon="6.17651">
        <ele>1884.8</ele>
        <time>2019-03-03T12:18:34Z</time>
      </trkpt>
      <trkpt lat="44.21935" lon="6.17651">
        <ele>1884.8</ele>
        <time>2019-03-03T12:19:06Z</time>
      </trkpt>
      <trkpt lat="44.21935" lon="6.17651">
        <ele>1884.8</ele>
        <time>2019-03-03T12:19:29Z</time>
      </trkpt>
      <trkpt lat="44.21936" lon="6.17651">
        <ele>1884.8</ele>
        <time>2019-03-03T12:20:14Z</time>
      </trkpt>
      <trkpt lat="44.21936" lon="6.17651">
        <ele>1884.32</ele>
        <time>2019-03-03T12:20:40Z</time>
      </trkpt>
      <trkpt lat="44.21936" lon="6.17651">
        <ele>1884.32</ele>
        <time>2019-03-03T12:21:24Z</time>
      </trkpt>
      <trkpt lat="44.21936" lon="6.17651">
        <ele>1883.84</ele>
        <time>2019-03-03T12:21:49Z</time>
      </trkpt>
      <trkpt lat="44.21936" lon="6.17651">
        <ele>1883.84</ele>
        <time>2019-03-03T12:22:05Z</time>
      </trkpt>
      <trkpt lat="44.21936" lon="6.17651">
        <ele>1884.32</ele>
        <time>2019-03-03T12:22:42Z</time>
      </trkpt>
      <trkpt lat="44.21936" lon="6.17651">
        <ele>1884.8</ele>
        <time>2019-03-03T12:23:24Z</time>
      </trkpt>
      <trkpt lat="44.21936" lon="6.1765">
        <ele>1884.8</ele>
        <time>2019-03-03T12:24:07Z</time>
      </trkpt>
      <trkpt lat="44.21936" lon="6.1765">
        <ele>1884.8</ele>
        <time>2019-03-03T12:24:47Z</time>
      </trkpt>
      <trkpt lat="44.21936" lon="6.1765">
        <ele>1885.28</ele>
        <time>2019-03-03T12:25:29Z</time>
      </trkpt>
      <trkpt lat="44.21936" lon="6.17651">
        <ele>1884.8</ele>
        <time>2019-03-03T12:26:12Z</time>
      </trkpt>
      <trkpt lat="44.21936" lon="6.17651">
        <ele>1885.28</ele>
        <time>2019-03-03T12:26:56Z</time>
      </trkpt>
      <trkpt lat="44.21936" lon="6.17651">
        <ele>1885.28</ele>
        <time>2019-03-03T12:27:39Z</time>
      </trkpt>
      <trkpt lat="44.21936" lon="6.17651">
        <ele>1884.8</ele>
        <time>2019-03-03T12:27:49Z</time>
      </trkpt>
      <trkpt lat="44.21936" lon="6.17651">
        <ele>1884.8</ele>
        <time>2019-03-03T12:28:29Z</time>
      </trkpt>
      <trkpt lat="44.21936" lon="6.17651">
        <ele>1884.8</ele>
        <time>2019-03-03T12:29:11Z</time>
      </trkpt>
      <trkpt lat="44.21935" lon="6.1765">
        <ele>1884.8</ele>
        <time>2019-03-03T12:30:01Z</time>
      </trkpt>
      <trkpt lat="44.21935" lon="6.1765">
        <ele>1885.28</ele>
        <time>2019-03-03T12:30:45Z</time>
      </trkpt>
      <trkpt lat="44.21935" lon="6.1765">
        <ele>1885.28</ele>
        <time>2019-03-03T12:31:29Z</time>
      </trkpt>
      <trkpt lat="44.21936" lon="6.1765">
        <ele>1884.8</ele>
        <time>2019-03-03T12:32:08Z</time>
      </trkpt>
      <trkpt lat="44.21936" lon="6.17651">
        <ele>1884.8</ele>
        <time>2019-03-03T12:32:49Z</time>
      </trkpt>
      <trkpt lat="44.21936" lon="6.17651">
        <ele>1885.76</ele>
        <time>2019-03-03T12:33:31Z</time>
      </trkpt>
      <trkpt lat="44.21936" lon="6.17651">
        <ele>1885.76</ele>
        <time>2019-03-03T12:34:09Z</time>
      </trkpt>
      <trkpt lat="44.21936" lon="6.17651">
        <ele>1886.24</ele>
        <time>2019-03-03T12:34:48Z</time>
      </trkpt>
      <trkpt lat="44.21936" lon="6.17651">
        <ele>1886.24</ele>
        <time>2019-03-03T12:35:29Z</time>
      </trkpt>
      <trkpt lat="44.21936" lon="6.17651">
        <ele>1885.76</ele>
        <time>2019-03-03T12:36:15Z</time>
      </trkpt>
      <trkpt lat="44.21936" lon="6.17651">
        <ele>1885.28</ele>
        <time>2019-03-03T12:36:57Z</time>
      </trkpt>
      <trkpt lat="44.21935" lon="6.17651">
        <ele>1883.84</ele>
        <time>2019-03-03T12:37:41Z</time>
      </trkpt>
      <trkpt lat="44.21935" lon="6.17651">
        <ele>1883.84</ele>
        <time>2019-03-03T12:38:20Z</time>
      </trkpt>
      <trkpt lat="44.21935" lon="6.17651">
        <ele>1884.32</ele>
        <time>2019-03-03T12:39:04Z</time>
      </trkpt>
      <trkpt lat="44.21935" lon="6.17651">
        <ele>1884.32</ele>
        <time>2019-03-03T12:39:44Z</time>
      </trkpt>
      <trkpt lat="44.21936" lon="6.17651">
        <ele>1883.84</ele>
        <time>2019-03-03T12:40:28Z</time>
      </trkpt>
      <trkpt lat="44.21936" lon="6.17651">
        <ele>1884.8</ele>
        <time>2019-03-03T12:41:07Z</time>
      </trkpt>
      <trkpt lat="44.21935" lon="6.17651">
        <ele>1884.32</ele>
        <time>2019-03-03T12:41:47Z</time>
      </trkpt>
      <trkpt lat="44.21936" lon="6.17651">
        <ele>1884.32</ele>
        <time>2019-03-03T12:42:27Z</time>
      </trkpt>
      <trkpt lat="44.21936" lon="6.17652">
        <ele>1883.36</ele>
        <time>2019-03-03T12:42:46Z</time>
      </trkpt>
      <trkpt lat="44.21935" lon="6.17651">
        <ele>1884.8</ele>
        <time>2019-03-03T12:43:22Z</time>
      </trkpt>
      <trkpt lat="44.21935" lon="6.17652">
        <ele>1884.32</ele>
        <time>2019-03-03T12:43:58Z</time>
      </trkpt>
      <trkpt lat="44.21935" lon="6.17652">
        <ele>1885.28</ele>
        <time>2019-03-03T12:44:36Z</time>
      </trkpt>
      <trkpt lat="44.21935" lon="6.17652">
        <ele>1884.8</ele>
        <time>2019-03-03T12:45:15Z</time>
      </trkpt>
      <trkpt lat="44.21935" lon="6.17652">
        <ele>1884.8</ele>
        <time>2019-03-03T12:45:46Z</time>
      </trkpt>
      <trkpt lat="44.21935" lon="6.17651">
        <ele>1884.8</ele>
        <time>2019-03-03T12:46:23Z</time>
      </trkpt>
      <trkpt lat="44.21935" lon="6.17651">
        <ele>1884.8</ele>
        <time>2019-03-03T12:47:02Z</time>
      </trkpt>
      <trkpt lat="44.21935" lon="6.17651">
        <ele>1884.32</ele>
        <time>2019-03-03T12:47:45Z</time>
      </trkpt>
      <trkpt lat="44.21935" lon="6.17651">
        <ele>1884.32</ele>
        <time>2019-03-03T12:48:27Z</time>
      </trkpt>
      <trkpt lat="44.21936" lon="6.17651">
        <ele>1884.8</ele>
        <time>2019-03-03T12:49:08Z</time>
      </trkpt>
      <trkpt lat="44.21936" lon="6.17651">
        <ele>1884.8</ele>
        <time>2019-03-03T12:49:46Z</time>
      </trkpt>
      <trkpt lat="44.21936" lon="6.17651">
        <ele>1885.28</ele>
        <time>2019-03-03T12:50:30Z</time>
      </trkpt>
      <trkpt lat="44.21936" lon="6.17651">
        <ele>1885.28</ele>
        <time>2019-03-03T12:51:14Z</time>
      </trkpt>
      <trkpt lat="44.21936" lon="6.17651">
        <ele>1884.32</ele>
        <time>2019-03-03T12:51:53Z</time>
      </trkpt>
      <trkpt lat="44.21936" lon="6.17651">
        <ele>1885.76</ele>
        <time>2019-03-03T12:52:23Z</time>
      </trkpt>
      <trkpt lat="44.21936" lon="6.17651">
        <ele>1885.76</ele>
        <time>2019-03-03T12:52:41Z</time>
      </trkpt>
      <trkpt lat="44.21936" lon="6.17652">
        <ele>1886.24</ele>
        <time>2019-03-03T12:53:05Z</time>
      </trkpt>
      <trkpt lat="44.21936" lon="6.17651">
        <ele>1885.28</ele>
        <time>2019-03-03T12:53:22Z</time>
      </trkpt>
      <trkpt lat="44.21936" lon="6.17651">
        <ele>1884.8</ele>
        <time>2019-03-03T12:53:40Z</time>
      </trkpt>
      <trkpt lat="44.21936" lon="6.17651">
        <ele>1884.8</ele>
        <time>2019-03-03T12:54:16Z</time>
      </trkpt>
      <trkpt lat="44.21936" lon="6.17651">
        <ele>1885.28</ele>
        <time>2019-03-03T12:54:50Z</time>
      </trkpt>
      <trkpt lat="44.21936" lon="6.17651">
        <ele>1885.28</ele>
        <time>2019-03-03T12:55:23Z</time>
      </trkpt>
      <trkpt lat="44.21936" lon="6.17651">
        <ele>1885.76</ele>
        <time>2019-03-03T12:55:55Z</time>
      </trkpt>
      <trkpt lat="44.21936" lon="6.17651">
        <ele>1884.32</ele>
        <time>2019-03-03T12:56:30Z</time>
      </trkpt>
      <trkpt lat="44.21936" lon="6.17651">
        <ele>1883.84</ele>
        <time>2019-03-03T12:57:01Z</time>
      </trkpt>
      <trkpt lat="44.21936" lon="6.17651">
        <ele>1884.32</ele>
        <time>2019-03-03T12:57:32Z</time>
      </trkpt>
      <trkpt lat="44.21936" lon="6.17651">
        <ele>1883.84</ele>
        <time>2019-03-03T12:58:05Z</time>
      </trkpt>
      <trkpt lat="44.21936" lon="6.17651">
        <ele>1883.84</ele>
        <time>2019-03-03T12:58:41Z</time>
      </trkpt>
      <trkpt lat="44.21936" lon="6.17651">
        <ele>1884.32</ele>
        <time>2019-03-03T12:59:19Z</time>
      </trkpt>
      <trkpt lat="44.21936" lon="6.17651">
        <ele>1883.84</ele>
        <time>2019-03-03T12:59:53Z</time>
      </trkpt>
      <trkpt lat="44.21936" lon="6.17651">
        <ele>1883.84</ele>
        <time>2019-03-03T13:00:28Z</time>
      </trkpt>
      <trkpt lat="44.21936" lon="6.17651">
        <ele>1884.32</ele>
        <time>2019-03-03T13:01:12Z</time>
      </trkpt>
      <trkpt lat="44.21936" lon="6.17651">
        <ele>1884.32</ele>
        <time>2019-03-03T13:01:56Z</time>
      </trkpt>
      <trkpt lat="44.21936" lon="6.17651">
        <ele>1884.32</ele>
        <time>2019-03-03T13:02:28Z</time>
      </trkpt>
      <trkpt lat="44.21936" lon="6.17651">
        <ele>1884.32</ele>
        <time>2019-03-03T13:02:57Z</time>
      </trkpt>
      <trkpt lat="44.21936" lon="6.17651">
        <ele>1884.8</ele>
        <time>2019-03-03T13:03:20Z</time>
      </trkpt>
      <trkpt lat="44.21936" lon="6.17651">
        <ele>1884.32</ele>
        <time>2019-03-03T13:03:47Z</time>
      </trkpt>
      <trkpt lat="44.21936" lon="6.17652">
        <ele>1884.32</ele>
        <time>2019-03-03T13:04:20Z</time>
      </trkpt>
      <trkpt lat="44.21936" lon="6.17652">
        <ele>1884.32</ele>
        <time>2019-03-03T13:04:55Z</time>
      </trkpt>
      <trkpt lat="44.21936" lon="6.17652">
        <ele>1885.28</ele>
        <time>2019-03-03T13:05:32Z</time>
      </trkpt>
      <trkpt lat="44.21936" lon="6.17653">
        <ele>1885.76</ele>
        <time>2019-03-03T13:05:44Z</time>
      </trkpt>
      <trkpt lat="44.21936" lon="6.17652">
        <ele>1885.76</ele>
        <time>2019-03-03T13:06:06Z</time>
      </trkpt>
      <trkpt lat="44.21936" lon="6.17653">
        <ele>1885.28</ele>
        <time>2019-03-03T13:06:29Z</time>
      </trkpt>
      <trkpt lat="44.21936" lon="6.17653">
        <ele>1885.76</ele>
        <time>2019-03-03T13:06:53Z</time>
      </trkpt>
      <trkpt lat="44.21935" lon="6.17653">
        <ele>1885.28</ele>
        <time>2019-03-03T13:07:17Z</time>
      </trkpt>
      <trkpt lat="44.21938" lon="6.17657">
        <ele>1884.32</ele>
        <time>2019-03-03T13:07:29Z</time>
      </trkpt>
      <trkpt lat="44.21939" lon="6.1766">
        <ele>1883.84</ele>
        <time>2019-03-03T13:07:43Z</time>
      </trkpt>
      <trkpt lat="44.21944" lon="6.17667">
        <ele>1880.96</ele>
        <time>2019-03-03T13:07:55Z</time>
      </trkpt>
      <trkpt lat="44.21948" lon="6.17668">
        <ele>1880.96</ele>
        <time>2019-03-03T13:08:07Z</time>
      </trkpt>
      <trkpt lat="44.21948" lon="6.17668">
        <ele>1880.96</ele>
        <time>2019-03-03T13:08:31Z</time>
      </trkpt>
      <trkpt lat="44.21955" lon="6.17662">
        <ele>1879.03</ele>
        <time>2019-03-03T13:08:44Z</time>
      </trkpt>
      <trkpt lat="44.21962" lon="6.17657">
        <ele>1878.55</ele>
        <time>2019-03-03T13:08:56Z</time>
      </trkpt>
      <trkpt lat="44.2197" lon="6.17654">
        <ele>1878.55</ele>
        <time>2019-03-03T13:09:10Z</time>
      </trkpt>
      <trkpt lat="44.2198" lon="6.17649">
        <ele>1878.55</ele>
        <time>2019-03-03T13:09:24Z</time>
      </trkpt>
      <trkpt lat="44.21989" lon="6.17646">
        <ele>1877.59</ele>
        <time>2019-03-03T13:09:38Z</time>
      </trkpt>
      <trkpt lat="44.21993" lon="6.17637">
        <ele>1879.03</ele>
        <time>2019-03-03T13:09:50Z</time>
      </trkpt>
      <trkpt lat="44.21996" lon="6.17627">
        <ele>1879.51</ele>
        <time>2019-03-03T13:10:03Z</time>
      </trkpt>
      <trkpt lat="44.22" lon="6.17619">
        <ele>1880.48</ele>
        <time>2019-03-03T13:10:16Z</time>
      </trkpt>
      <trkpt lat="44.22" lon="6.17619">
        <ele>1881.44</ele>
        <time>2019-03-03T13:10:38Z</time>
      </trkpt>
      <trkpt lat="44.22003" lon="6.17614">
        <ele>1881.92</ele>
        <time>2019-03-03T13:10:49Z</time>
      </trkpt>
      <trkpt lat="44.22012" lon="6.17609">
        <ele>1881.44</ele>
        <time>2019-03-03T13:11:04Z</time>
      </trkpt>
      <trkpt lat="44.2202" lon="6.17605">
        <ele>1879.03</ele>
        <time>2019-03-03T13:11:17Z</time>
      </trkpt>
      <trkpt lat="44.22029" lon="6.17597">
        <ele>1878.55</ele>
        <time>2019-03-03T13:11:32Z</time>
      </trkpt>
      <trkpt lat="44.22029" lon="6.1759">
        <ele>1878.07</ele>
        <time>2019-03-03T13:11:44Z</time>
      </trkpt>
      <trkpt lat="44.22031" lon="6.17585">
        <ele>1878.55</ele>
        <time>2019-03-03T13:11:59Z</time>
      </trkpt>
      <trkpt lat="44.22036" lon="6.17571">
        <ele>1877.59</ele>
        <time>2019-03-03T13:12:15Z</time>
      </trkpt>
      <trkpt lat="44.22036" lon="6.17562">
        <ele>1878.55</ele>
        <time>2019-03-03T13:12:28Z</time>
      </trkpt>
      <trkpt lat="44.22036" lon="6.17562">
        <ele>1878.07</ele>
        <time>2019-03-03T13:12:46Z</time>
      </trkpt>
      <trkpt lat="44.22037" lon="6.17562">
        <ele>1878.55</ele>
        <time>2019-03-03T13:13:06Z</time>
      </trkpt>
      <trkpt lat="44.22039" lon="6.17562">
        <ele>1878.07</ele>
        <time>2019-03-03T13:13:20Z</time>
      </trkpt>
      <trkpt lat="44.22045" lon="6.17558">
        <ele>1876.63</ele>
        <time>2019-03-03T13:13:35Z</time>
      </trkpt>
      <trkpt lat="44.22055" lon="6.17551">
        <ele>1874.23</ele>
        <time>2019-03-03T13:13:51Z</time>
      </trkpt>
      <trkpt lat="44.22059" lon="6.17547">
        <ele>1871.82</ele>
        <time>2019-03-03T13:13:59Z</time>
      </trkpt>
      <trkpt lat="44.22068" lon="6.17539">
        <ele>1870.38</ele>
        <time>2019-03-03T13:14:14Z</time>
      </trkpt>
      <trkpt lat="44.22069" lon="6.17538">
        <ele>1870.86</ele>
        <time>2019-03-03T13:14:15Z</time>
      </trkpt>
      <trkpt lat="44.2208" lon="6.17528">
        <ele>1868.46</ele>
        <time>2019-03-03T13:14:32Z</time>
      </trkpt>
      <trkpt lat="44.22088" lon="6.17521">
        <ele>1867.02</ele>
        <time>2019-03-03T13:14:45Z</time>
      </trkpt>
      <trkpt lat="44.22097" lon="6.17509">
        <ele>1865.09</ele>
        <time>2019-03-03T13:15:01Z</time>
      </trkpt>
      <trkpt lat="44.22102" lon="6.175">
        <ele>1864.61</ele>
        <time>2019-03-03T13:15:13Z</time>
      </trkpt>
      <trkpt lat="44.22109" lon="6.17487">
        <ele>1864.13</ele>
        <time>2019-03-03T13:15:28Z</time>
      </trkpt>
      <trkpt lat="44.22112" lon="6.17482">
        <ele>1863.17</ele>
        <time>2019-03-03T13:15:34Z</time>
      </trkpt>
      <trkpt lat="44.22115" lon="6.17477">
        <ele>1864.13</ele>
        <time>2019-03-03T13:15:43Z</time>
      </trkpt>
      <trkpt lat="44.22119" lon="6.17471">
        <ele>1862.21</ele>
        <time>2019-03-03T13:15:50Z</time>
      </trkpt>
      <trkpt lat="44.22125" lon="6.17461">
        <ele>1861.25</ele>
        <time>2019-03-03T13:16:04Z</time>
      </trkpt>
      <trkpt lat="44.2213" lon="6.17451">
        <ele>1860.29</ele>
        <time>2019-03-03T13:16:16Z</time>
      </trkpt>
      <trkpt lat="44.22138" lon="6.1744">
        <ele>1858.37</ele>
        <time>2019-03-03T13:16:30Z</time>
      </trkpt>
      <trkpt lat="44.22147" lon="6.17428">
        <ele>1856.44</ele>
        <time>2019-03-03T13:16:46Z</time>
      </trkpt>
      <trkpt lat="44.22147" lon="6.17427">
        <ele>1855.96</ele>
        <time>2019-03-03T13:16:47Z</time>
      </trkpt>
      <trkpt lat="44.22154" lon="6.17419">
        <ele>1854.52</ele>
        <time>2019-03-03T13:16:59Z</time>
      </trkpt>
      <trkpt lat="44.2216" lon="6.17409">
        <ele>1853.08</ele>
        <time>2019-03-03T13:17:12Z</time>
      </trkpt>
      <trkpt lat="44.22164" lon="6.17397">
        <ele>1853.08</ele>
        <time>2019-03-03T13:17:26Z</time>
      </trkpt>
      <trkpt lat="44.22168" lon="6.17388">
        <ele>1853.08</ele>
        <time>2019-03-03T13:17:37Z</time>
      </trkpt>
      <trkpt lat="44.2217" lon="6.17377">
        <ele>1854.52</ele>
        <time>2019-03-03T13:17:51Z</time>
      </trkpt>
      <trkpt lat="44.22171" lon="6.17372">
        <ele>1854.04</ele>
        <time>2019-03-03T13:18:04Z</time>
      </trkpt>
      <trkpt lat="44.22174" lon="6.17362">
        <ele>1854.52</ele>
        <time>2019-03-03T13:18:17Z</time>
      </trkpt>
      <trkpt lat="44.22175" lon="6.17358">
        <ele>1855.48</ele>
        <time>2019-03-03T13:18:24Z</time>
      </trkpt>
      <trkpt lat="44.22177" lon="6.17352">
        <ele>1855</ele>
        <time>2019-03-03T13:18:37Z</time>
      </trkpt>
      <trkpt lat="44.22179" lon="6.17344">
        <ele>1855.48</ele>
        <time>2019-03-03T13:18:51Z</time>
      </trkpt>
      <trkpt lat="44.22181" lon="6.17336">
        <ele>1855.48</ele>
        <time>2019-03-03T13:19:04Z</time>
      </trkpt>
      <trkpt lat="44.22184" lon="6.17329">
        <ele>1856.44</ele>
        <time>2019-03-03T13:19:17Z</time>
      </trkpt>
      <trkpt lat="44.22187" lon="6.17319">
        <ele>1855.96</ele>
        <time>2019-03-03T13:19:30Z</time>
      </trkpt>
      <trkpt lat="44.22191" lon="6.1731">
        <ele>1855.48</ele>
        <time>2019-03-03T13:19:43Z</time>
      </trkpt>
      <trkpt lat="44.22194" lon="6.17303">
        <ele>1854.52</ele>
        <time>2019-03-03T13:19:55Z</time>
      </trkpt>
      <trkpt lat="44.22197" lon="6.17297">
        <ele>1853.56</ele>
        <time>2019-03-03T13:20:06Z</time>
      </trkpt>
      <trkpt lat="44.222" lon="6.17289">
        <ele>1852.6</ele>
        <time>2019-03-03T13:20:18Z</time>
      </trkpt>
      <trkpt lat="44.22203" lon="6.17279">
        <ele>1851.64</ele>
        <time>2019-03-03T13:20:31Z</time>
      </trkpt>
      <trkpt lat="44.22206" lon="6.17275">
        <ele>1851.16</ele>
        <time>2019-03-03T13:20:42Z</time>
      </trkpt>
      <trkpt lat="44.22213" lon="6.17268">
        <ele>1848.75</ele>
        <time>2019-03-03T13:20:54Z</time>
      </trkpt>
      <trkpt lat="44.22217" lon="6.17264">
        <ele>1846.35</ele>
        <time>2019-03-03T13:21:04Z</time>
      </trkpt>
      <trkpt lat="44.22224" lon="6.17258">
        <ele>1844.43</ele>
        <time>2019-03-03T13:21:16Z</time>
      </trkpt>
      <trkpt lat="44.22229" lon="6.1725">
        <ele>1841.54</ele>
        <time>2019-03-03T13:21:29Z</time>
      </trkpt>
      <trkpt lat="44.22236" lon="6.17241">
        <ele>1837.7</ele>
        <time>2019-03-03T13:21:42Z</time>
      </trkpt>
      <trkpt lat="44.22237" lon="6.17236">
        <ele>1837.22</ele>
        <time>2019-03-03T13:21:55Z</time>
      </trkpt>
      <trkpt lat="44.22236" lon="6.17226">
        <ele>1836.26</ele>
        <time>2019-03-03T13:22:07Z</time>
      </trkpt>
      <trkpt lat="44.22235" lon="6.17215">
        <ele>1832.89</ele>
        <time>2019-03-03T13:22:19Z</time>
      </trkpt>
      <trkpt lat="44.22233" lon="6.17204">
        <ele>1830.97</ele>
        <time>2019-03-03T13:22:31Z</time>
      </trkpt>
      <trkpt lat="44.22231" lon="6.172">
        <ele>1830.01</ele>
        <time>2019-03-03T13:22:36Z</time>
      </trkpt>
      <trkpt lat="44.22228" lon="6.17189">
        <ele>1827.6</ele>
        <time>2019-03-03T13:22:49Z</time>
      </trkpt>
      <trkpt lat="44.22224" lon="6.17178">
        <ele>1825.2</ele>
        <time>2019-03-03T13:23:03Z</time>
      </trkpt>
      <trkpt lat="44.22219" lon="6.17168">
        <ele>1822.8</ele>
        <time>2019-03-03T13:23:17Z</time>
      </trkpt>
      <trkpt lat="44.22218" lon="6.17159">
        <ele>1821.35</ele>
        <time>2019-03-03T13:23:27Z</time>
      </trkpt>
      <trkpt lat="44.22218" lon="6.17149">
        <ele>1818.47</ele>
        <time>2019-03-03T13:23:40Z</time>
      </trkpt>
      <trkpt lat="44.2222" lon="6.17142">
        <ele>1816.07</ele>
        <time>2019-03-03T13:23:52Z</time>
      </trkpt>
      <trkpt lat="44.22221" lon="6.17132">
        <ele>1813.66</ele>
        <time>2019-03-03T13:24:07Z</time>
      </trkpt>
      <trkpt lat="44.22221" lon="6.17124">
        <ele>1811.74</ele>
        <time>2019-03-03T13:24:21Z</time>
      </trkpt>
      <trkpt lat="44.22223" lon="6.1711">
        <ele>1809.82</ele>
        <time>2019-03-03T13:24:34Z</time>
      </trkpt>
      <trkpt lat="44.22223" lon="6.17104">
        <ele>1809.34</ele>
        <time>2019-03-03T13:24:46Z</time>
      </trkpt>
      <trkpt lat="44.22225" lon="6.17095">
        <ele>1808.38</ele>
        <time>2019-03-03T13:24:59Z</time>
      </trkpt>
      <trkpt lat="44.22227" lon="6.17089">
        <ele>1807.42</ele>
        <time>2019-03-03T13:25:05Z</time>
      </trkpt>
      <trkpt lat="44.22232" lon="6.17079">
        <ele>1805.97</ele>
        <time>2019-03-03T13:25:17Z</time>
      </trkpt>
      <trkpt lat="44.22233" lon="6.17077">
        <ele>1805.49</ele>
        <time>2019-03-03T13:25:22Z</time>
      </trkpt>
      <trkpt lat="44.22235" lon="6.17072">
        <ele>1806.45</ele>
        <time>2019-03-03T13:25:33Z</time>
      </trkpt>
      <trkpt lat="44.22237" lon="6.17064">
        <ele>1805.49</ele>
        <time>2019-03-03T13:25:43Z</time>
      </trkpt>
      <trkpt lat="44.2224" lon="6.17057">
        <ele>1805.49</ele>
        <time>2019-03-03T13:25:55Z</time>
      </trkpt>
      <trkpt lat="44.22242" lon="6.17049">
        <ele>1805.01</ele>
        <time>2019-03-03T13:26:10Z</time>
      </trkpt>
      <trkpt lat="44.22244" lon="6.17039">
        <ele>1805.49</ele>
        <time>2019-03-03T13:26:22Z</time>
      </trkpt>
      <trkpt lat="44.22245" lon="6.17037">
        <ele>1805.97</ele>
        <time>2019-03-03T13:26:25Z</time>
      </trkpt>
      <trkpt lat="44.22247" lon="6.17029">
        <ele>1806.45</ele>
        <time>2019-03-03T13:26:37Z</time>
      </trkpt>
      <trkpt lat="44.22245" lon="6.17024">
        <ele>1807.9</ele>
        <time>2019-03-03T13:26:48Z</time>
      </trkpt>
      <trkpt lat="44.22245" lon="6.1702">
        <ele>1808.86</ele>
        <time>2019-03-03T13:26:59Z</time>
      </trkpt>
      <trkpt lat="44.22245" lon="6.17018">
        <ele>1809.82</ele>
        <time>2019-03-03T13:27:13Z</time>
      </trkpt>
      <trkpt lat="44.22245" lon="6.17013">
        <ele>1810.3</ele>
        <time>2019-03-03T13:27:23Z</time>
      </trkpt>
      <trkpt lat="44.22247" lon="6.17002">
        <ele>1812.22</ele>
        <time>2019-03-03T13:27:36Z</time>
      </trkpt>
      <trkpt lat="44.22249" lon="6.16993">
        <ele>1813.18</ele>
        <time>2019-03-03T13:27:49Z</time>
      </trkpt>
      <trkpt lat="44.22251" lon="6.16985">
        <ele>1814.15</ele>
        <time>2019-03-03T13:28:02Z</time>
      </trkpt>
      <trkpt lat="44.22252" lon="6.16982">
        <ele>1814.63</ele>
        <time>2019-03-03T13:28:17Z</time>
      </trkpt>
      <trkpt lat="44.22253" lon="6.16976">
        <ele>1816.07</ele>
        <time>2019-03-03T13:28:29Z</time>
      </trkpt>
      <trkpt lat="44.22253" lon="6.16968">
        <ele>1817.03</ele>
        <time>2019-03-03T13:28:41Z</time>
      </trkpt>
      <trkpt lat="44.22254" lon="6.1696">
        <ele>1818.47</ele>
        <time>2019-03-03T13:28:53Z</time>
      </trkpt>
      <trkpt lat="44.22254" lon="6.16956">
        <ele>1819.43</ele>
        <time>2019-03-03T13:29:06Z</time>
      </trkpt>
      <trkpt lat="44.22255" lon="6.16956">
        <ele>1819.43</ele>
        <time>2019-03-03T13:29:24Z</time>
      </trkpt>
      <trkpt lat="44.22254" lon="6.16955">
        <ele>1817.99</ele>
        <time>2019-03-03T13:29:46Z</time>
      </trkpt>
      <trkpt lat="44.22254" lon="6.16955">
        <ele>1818.95</ele>
        <time>2019-03-03T13:30:16Z</time>
      </trkpt>
      <trkpt lat="44.22254" lon="6.16956">
        <ele>1818.47</ele>
        <time>2019-03-03T13:30:51Z</time>
      </trkpt>
      <trkpt lat="44.22254" lon="6.16956">
        <ele>1819.43</ele>
        <time>2019-03-03T13:31:24Z</time>
      </trkpt>
      <trkpt lat="44.22254" lon="6.16955">
        <ele>1818.47</ele>
        <time>2019-03-03T13:31:37Z</time>
      </trkpt>
      <trkpt lat="44.22258" lon="6.16961">
        <ele>1813.66</ele>
        <time>2019-03-03T13:31:42Z</time>
      </trkpt>
      <trkpt lat="44.22259" lon="6.16962">
        <ele>1813.66</ele>
        <time>2019-03-03T13:31:43Z</time>
      </trkpt>
      <trkpt lat="44.2226" lon="6.16962">
        <ele>1820.39</ele>
        <time>2019-03-03T13:31:44Z</time>
      </trkpt>
      <trkpt lat="44.2226" lon="6.16963">
        <ele>1816.55</ele>
        <time>2019-03-03T13:31:45Z</time>
      </trkpt>
      <trkpt lat="44.22254" lon="6.16956">
        <ele>1818.47</ele>
        <time>2019-03-03T13:31:58Z</time>
      </trkpt>
      <trkpt lat="44.22254" lon="6.16956">
        <ele>1818.95</ele>
        <time>2019-03-03T13:32:32Z</time>
      </trkpt>
      <trkpt lat="44.22254" lon="6.16956">
        <ele>1818.47</ele>
        <time>2019-03-03T13:33:10Z</time>
      </trkpt>
      <trkpt lat="44.22254" lon="6.16956">
        <ele>1818.95</ele>
        <time>2019-03-03T13:33:32Z</time>
      </trkpt>
      <trkpt lat="44.22255" lon="6.16955">
        <ele>1819.43</ele>
        <time>2019-03-03T13:33:47Z</time>
      </trkpt>
      <trkpt lat="44.22255" lon="6.16955">
        <ele>1819.43</ele>
        <time>2019-03-03T13:34:04Z</time>
      </trkpt>
      <trkpt lat="44.22255" lon="6.16955">
        <ele>1820.87</ele>
        <time>2019-03-03T13:34:17Z</time>
      </trkpt>
      <trkpt lat="44.22257" lon="6.1695">
        <ele>1820.39</ele>
        <time>2019-03-03T13:34:31Z</time>
      </trkpt>
      <trkpt lat="44.22257" lon="6.1695">
        <ele>1821.35</ele>
        <time>2019-03-03T13:34:47Z</time>
      </trkpt>
      <trkpt lat="44.2226" lon="6.16944">
        <ele>1822.8</ele>
        <time>2019-03-03T13:35:03Z</time>
      </trkpt>
      <trkpt lat="44.22265" lon="6.16932">
        <ele>1823.76</ele>
        <time>2019-03-03T13:35:15Z</time>
      </trkpt>
      <trkpt lat="44.22268" lon="6.16927">
        <ele>1825.2</ele>
        <time>2019-03-03T13:35:27Z</time>
      </trkpt>
      <trkpt lat="44.2227" lon="6.16922">
        <ele>1825.2</ele>
        <time>2019-03-03T13:35:40Z</time>
      </trkpt>
      <trkpt lat="44.22276" lon="6.16911">
        <ele>1826.16</ele>
        <time>2019-03-03T13:35:52Z</time>
      </trkpt>
      <trkpt lat="44.22279" lon="6.16906">
        <ele>1827.6</ele>
        <time>2019-03-03T13:36:05Z</time>
      </trkpt>
      <trkpt lat="44.22281" lon="6.16896">
        <ele>1829.05</ele>
        <time>2019-03-03T13:36:18Z</time>
      </trkpt>
      <trkpt lat="44.22285" lon="6.16888">
        <ele>1830.01</ele>
        <time>2019-03-03T13:36:31Z</time>
      </trkpt>
      <trkpt lat="44.2229" lon="6.16877">
        <ele>1830.49</ele>
        <time>2019-03-03T13:36:45Z</time>
      </trkpt>
      <trkpt lat="44.22298" lon="6.16862">
        <ele>1830.49</ele>
        <time>2019-03-03T13:36:59Z</time>
      </trkpt>
      <trkpt lat="44.22302" lon="6.16848">
        <ele>1830.01</ele>
        <time>2019-03-03T13:37:13Z</time>
      </trkpt>
      <trkpt lat="44.22308" lon="6.16843">
        <ele>1828.08</ele>
        <time>2019-03-03T13:37:27Z</time>
      </trkpt>
      <trkpt lat="44.22313" lon="6.16839">
        <ele>1827.12</ele>
        <time>2019-03-03T13:37:41Z</time>
      </trkpt>
      <trkpt lat="44.22313" lon="6.16839">
        <ele>1827.6</ele>
        <time>2019-03-03T13:38:01Z</time>
      </trkpt>
      <trkpt lat="44.22313" lon="6.16839">
        <ele>1827.12</ele>
        <time>2019-03-03T13:38:20Z</time>
      </trkpt>
      <trkpt lat="44.22313" lon="6.16839">
        <ele>1828.56</ele>
        <time>2019-03-03T13:38:32Z</time>
      </trkpt>
      <trkpt lat="44.22309" lon="6.16829">
        <ele>1830.01</ele>
        <time>2019-03-03T13:38:44Z</time>
      </trkpt>
      <trkpt lat="44.22309" lon="6.16812">
        <ele>1830.01</ele>
        <time>2019-03-03T13:38:58Z</time>
      </trkpt>
      <trkpt lat="44.22314" lon="6.16799">
        <ele>1827.12</ele>
        <time>2019-03-03T13:39:14Z</time>
      </trkpt>
      <trkpt lat="44.22318" lon="6.16786">
        <ele>1826.64</ele>
        <time>2019-03-03T13:39:29Z</time>
      </trkpt>
      <trkpt lat="44.22321" lon="6.16767">
        <ele>1826.16</ele>
        <time>2019-03-03T13:39:46Z</time>
      </trkpt>
      <trkpt lat="44.22323" lon="6.16758">
        <ele>1825.2</ele>
        <time>2019-03-03T13:39:59Z</time>
      </trkpt>
      <trkpt lat="44.22324" lon="6.16743">
        <ele>1824.72</ele>
        <time>2019-03-03T13:40:14Z</time>
      </trkpt>
      <trkpt lat="44.22326" lon="6.16727">
        <ele>1823.76</ele>
        <time>2019-03-03T13:40:29Z</time>
      </trkpt>
      <trkpt lat="44.22327" lon="6.16717">
        <ele>1823.28</ele>
        <time>2019-03-03T13:40:39Z</time>
      </trkpt>
      <trkpt lat="44.22329" lon="6.16703">
        <ele>1821.84</ele>
        <time>2019-03-03T13:40:54Z</time>
      </trkpt>
      <trkpt lat="44.22333" lon="6.16691">
        <ele>1820.39</ele>
        <time>2019-03-03T13:41:08Z</time>
      </trkpt>
      <trkpt lat="44.22333" lon="6.1669">
        <ele>1820.87</ele>
        <time>2019-03-03T13:41:09Z</time>
      </trkpt>
      <trkpt lat="44.22332" lon="6.16675">
        <ele>1820.39</ele>
        <time>2019-03-03T13:41:23Z</time>
      </trkpt>
      <trkpt lat="44.22334" lon="6.16663">
        <ele>1819.43</ele>
        <time>2019-03-03T13:41:37Z</time>
      </trkpt>
      <trkpt lat="44.22335" lon="6.1665">
        <ele>1817.51</ele>
        <time>2019-03-03T13:41:51Z</time>
      </trkpt>
      <trkpt lat="44.22335" lon="6.16639">
        <ele>1816.55</ele>
        <time>2019-03-03T13:42:04Z</time>
      </trkpt>
      <trkpt lat="44.22335" lon="6.16637">
        <ele>1815.59</ele>
        <time>2019-03-03T13:42:15Z</time>
      </trkpt>
      <trkpt lat="44.22336" lon="6.16633">
        <ele>1813.66</ele>
        <time>2019-03-03T13:42:27Z</time>
      </trkpt>
      <trkpt lat="44.22336" lon="6.16619">
        <ele>1812.7</ele>
        <time>2019-03-03T13:42:39Z</time>
      </trkpt>
      <trkpt lat="44.22339" lon="6.16606">
        <ele>1811.74</ele>
        <time>2019-03-03T13:42:51Z</time>
      </trkpt>
      <trkpt lat="44.22341" lon="6.16595">
        <ele>1809.82</ele>
        <time>2019-03-03T13:43:03Z</time>
      </trkpt>
      <trkpt lat="44.22345" lon="6.16581">
        <ele>1808.86</ele>
        <time>2019-03-03T13:43:16Z</time>
      </trkpt>
      <trkpt lat="44.2235" lon="6.16563">
        <ele>1809.82</ele>
        <time>2019-03-03T13:43:33Z</time>
      </trkpt>
      <trkpt lat="44.22353" lon="6.1655">
        <ele>1809.82</ele>
        <time>2019-03-03T13:43:47Z</time>
      </trkpt>
      <trkpt lat="44.22353" lon="6.16539">
        <ele>1811.26</ele>
        <time>2019-03-03T13:44:00Z</time>
      </trkpt>
      <trkpt lat="44.22356" lon="6.16527">
        <ele>1812.7</ele>
        <time>2019-03-03T13:44:13Z</time>
      </trkpt>
      <trkpt lat="44.22357" lon="6.16524">
        <ele>1813.18</ele>
        <time>2019-03-03T13:44:28Z</time>
      </trkpt>
      <trkpt lat="44.22359" lon="6.16512">
        <ele>1814.63</ele>
        <time>2019-03-03T13:44:43Z</time>
      </trkpt>
      <trkpt lat="44.22363" lon="6.16502">
        <ele>1814.15</ele>
        <time>2019-03-03T13:44:56Z</time>
      </trkpt>
      <trkpt lat="44.22366" lon="6.16498">
        <ele>1814.15</ele>
        <time>2019-03-03T13:45:08Z</time>
      </trkpt>
      <trkpt lat="44.22366" lon="6.16498">
        <ele>1815.11</ele>
        <time>2019-03-03T13:45:20Z</time>
      </trkpt>
      <trkpt lat="44.22366" lon="6.16498">
        <ele>1816.55</ele>
        <time>2019-03-03T13:45:31Z</time>
      </trkpt>
      <trkpt lat="44.22366" lon="6.16497">
        <ele>1817.99</ele>
        <time>2019-03-03T13:45:44Z</time>
      </trkpt>
      <trkpt lat="44.22366" lon="6.16497">
        <ele>1817.99</ele>
        <time>2019-03-03T13:45:57Z</time>
      </trkpt>
      <trkpt lat="44.22366" lon="6.16488">
        <ele>1817.99</ele>
        <time>2019-03-03T13:46:08Z</time>
      </trkpt>
      <trkpt lat="44.22375" lon="6.16464">
        <ele>1817.99</ele>
        <time>2019-03-03T13:46:20Z</time>
      </trkpt>
      <trkpt lat="44.22383" lon="6.16455">
        <ele>1817.03</ele>
        <time>2019-03-03T13:46:32Z</time>
      </trkpt>
      <trkpt lat="44.22387" lon="6.16448">
        <ele>1817.03</ele>
        <time>2019-03-03T13:46:45Z</time>
      </trkpt>
      <trkpt lat="44.22392" lon="6.16445">
        <ele>1815.59</ele>
        <time>2019-03-03T13:46:58Z</time>
      </trkpt>
      <trkpt lat="44.22403" lon="6.16432">
        <ele>1814.63</ele>
        <time>2019-03-03T13:47:14Z</time>
      </trkpt>
      <trkpt lat="44.22413" lon="6.16424">
        <ele>1811.74</ele>
        <time>2019-03-03T13:47:30Z</time>
      </trkpt>
      <trkpt lat="44.22418" lon="6.16417">
        <ele>1810.78</ele>
        <time>2019-03-03T13:47:43Z</time>
      </trkpt>
      <trkpt lat="44.22421" lon="6.16408">
        <ele>1808.86</ele>
        <time>2019-03-03T13:47:57Z</time>
      </trkpt>
      <trkpt lat="44.22423" lon="6.164">
        <ele>1807.42</ele>
        <time>2019-03-03T13:48:10Z</time>
      </trkpt>
      <trkpt lat="44.22428" lon="6.1639">
        <ele>1806.94</ele>
        <time>2019-03-03T13:48:22Z</time>
      </trkpt>
      <trkpt lat="44.22437" lon="6.16379">
        <ele>1805.01</ele>
        <time>2019-03-03T13:48:37Z</time>
      </trkpt>
      <trkpt lat="44.22445" lon="6.1637">
        <ele>1804.05</ele>
        <time>2019-03-03T13:48:52Z</time>
      </trkpt>
      <trkpt lat="44.22453" lon="6.16364">
        <ele>1801.65</ele>
        <time>2019-03-03T13:49:07Z</time>
      </trkpt>
      <trkpt lat="44.22453" lon="6.16364">
        <ele>1800.21</ele>
        <time>2019-03-03T13:49:20Z</time>
      </trkpt>
      <trkpt lat="44.22458" lon="6.16358">
        <ele>1798.28</ele>
        <time>2019-03-03T13:49:33Z</time>
      </trkpt>
      <trkpt lat="44.2246" lon="6.16355">
        <ele>1796.84</ele>
        <time>2019-03-03T13:49:46Z</time>
      </trkpt>
      <trkpt lat="44.2246" lon="6.16355">
        <ele>1797.32</ele>
        <time>2019-03-03T13:49:57Z</time>
      </trkpt>
      <trkpt lat="44.22462" lon="6.16353">
        <ele>1796.36</ele>
        <time>2019-03-03T13:50:07Z</time>
      </trkpt>
      <trkpt lat="44.22462" lon="6.16352">
        <ele>1793.48</ele>
        <time>2019-03-03T13:50:21Z</time>
      </trkpt>
      <trkpt lat="44.2247" lon="6.16343">
        <ele>1792.52</ele>
        <time>2019-03-03T13:50:33Z</time>
      </trkpt>
      <trkpt lat="44.22474" lon="6.16331">
        <ele>1792.03</ele>
        <time>2019-03-03T13:50:44Z</time>
      </trkpt>
      <trkpt lat="44.22477" lon="6.16314">
        <ele>1792.03</ele>
        <time>2019-03-03T13:50:59Z</time>
      </trkpt>
      <trkpt lat="44.22477" lon="6.16303">
        <ele>1792.52</ele>
        <time>2019-03-03T13:51:15Z</time>
      </trkpt>
      <trkpt lat="44.22478" lon="6.16287">
        <ele>1794.44</ele>
        <time>2019-03-03T13:51:31Z</time>
      </trkpt>
      <trkpt lat="44.22482" lon="6.16275">
        <ele>1793</ele>
        <time>2019-03-03T13:51:46Z</time>
      </trkpt>
      <trkpt lat="44.22485" lon="6.16274">
        <ele>1792.03</ele>
        <time>2019-03-03T13:51:59Z</time>
      </trkpt>
      <trkpt lat="44.22486" lon="6.16276">
        <ele>1791.07</ele>
        <time>2019-03-03T13:52:10Z</time>
      </trkpt>
      <trkpt lat="44.22486" lon="6.16276">
        <ele>1790.11</ele>
        <time>2019-03-03T13:52:24Z</time>
      </trkpt>
      <trkpt lat="44.22486" lon="6.16276">
        <ele>1789.15</ele>
        <time>2019-03-03T13:52:38Z</time>
      </trkpt>
      <trkpt lat="44.22486" lon="6.16276">
        <ele>1787.71</ele>
        <time>2019-03-03T13:52:51Z</time>
      </trkpt>
      <trkpt lat="44.22486" lon="6.16276">
        <ele>1786.27</ele>
        <time>2019-03-03T13:53:04Z</time>
      </trkpt>
      <trkpt lat="44.22486" lon="6.16276">
        <ele>1785.31</ele>
        <time>2019-03-03T13:53:12Z</time>
      </trkpt>
      <trkpt lat="44.2249" lon="6.16277">
        <ele>1784.34</ele>
        <time>2019-03-03T13:53:21Z</time>
      </trkpt>
      <trkpt lat="44.22496" lon="6.16276">
        <ele>1784.34</ele>
        <time>2019-03-03T13:53:25Z</time>
      </trkpt>
      <trkpt lat="44.22501" lon="6.16272">
        <ele>1783.86</ele>
        <time>2019-03-03T13:53:30Z</time>
      </trkpt>
      <trkpt lat="44.22506" lon="6.1626">
        <ele>1784.82</ele>
        <time>2019-03-03T13:53:44Z</time>
      </trkpt>
      <trkpt lat="44.22508" lon="6.16248">
        <ele>1786.75</ele>
        <time>2019-03-03T13:53:58Z</time>
      </trkpt>
      <trkpt lat="44.22509" lon="6.16238">
        <ele>1789.15</ele>
        <time>2019-03-03T13:54:11Z</time>
      </trkpt>
      <trkpt lat="44.22509" lon="6.16225">
        <ele>1791.07</ele>
        <time>2019-03-03T13:54:25Z</time>
      </trkpt>
      <trkpt lat="44.22511" lon="6.16214">
        <ele>1792.52</ele>
        <time>2019-03-03T13:54:37Z</time>
      </trkpt>
      <trkpt lat="44.22511" lon="6.16215">
        <ele>1792.52</ele>
        <time>2019-03-03T13:54:50Z</time>
      </trkpt>
      <trkpt lat="44.22515" lon="6.16214">
        <ele>1791.07</ele>
        <time>2019-03-03T13:55:03Z</time>
      </trkpt>
      <trkpt lat="44.22515" lon="6.16214">
        <ele>1790.11</ele>
        <time>2019-03-03T13:55:15Z</time>
      </trkpt>
      <trkpt lat="44.22515" lon="6.16214">
        <ele>1788.67</ele>
        <time>2019-03-03T13:55:27Z</time>
      </trkpt>
      <trkpt lat="44.22515" lon="6.16213">
        <ele>1787.23</ele>
        <time>2019-03-03T13:55:40Z</time>
      </trkpt>
      <trkpt lat="44.22515" lon="6.16213">
        <ele>1785.79</ele>
        <time>2019-03-03T13:55:53Z</time>
      </trkpt>
      <trkpt lat="44.22524" lon="6.16199">
        <ele>1786.27</ele>
        <time>2019-03-03T13:56:05Z</time>
      </trkpt>
      <trkpt lat="44.22532" lon="6.16183">
        <ele>1787.71</ele>
        <time>2019-03-03T13:56:18Z</time>
      </trkpt>
      <trkpt lat="44.22532" lon="6.16183">
        <ele>1787.23</ele>
        <time>2019-03-03T13:56:30Z</time>
      </trkpt>
      <trkpt lat="44.22535" lon="6.16177">
        <ele>1786.75</ele>
        <time>2019-03-03T13:56:44Z</time>
      </trkpt>
      <trkpt lat="44.22536" lon="6.16174">
        <ele>1786.27</ele>
        <time>2019-03-03T13:56:57Z</time>
      </trkpt>
      <trkpt lat="44.22536" lon="6.16174">
        <ele>1785.79</ele>
        <time>2019-03-03T13:56:58Z</time>
      </trkpt>
      <trkpt lat="44.22537" lon="6.16172">
        <ele>1785.31</ele>
        <time>2019-03-03T13:57:10Z</time>
      </trkpt>
      <trkpt lat="44.22537" lon="6.16172">
        <ele>1784.82</ele>
        <time>2019-03-03T13:57:21Z</time>
      </trkpt>
      <trkpt lat="44.22539" lon="6.16168">
        <ele>1784.34</ele>
        <time>2019-03-03T13:57:34Z</time>
      </trkpt>
      <trkpt lat="44.22539" lon="6.16168">
        <ele>1784.34</ele>
        <time>2019-03-03T13:57:45Z</time>
      </trkpt>
      <trkpt lat="44.22539" lon="6.16168">
        <ele>1782.42</ele>
        <time>2019-03-03T13:58:01Z</time>
      </trkpt>
      <trkpt lat="44.2254" lon="6.16166">
        <ele>1780.98</ele>
        <time>2019-03-03T13:58:14Z</time>
      </trkpt>
      <trkpt lat="44.2254" lon="6.16166">
        <ele>1780.02</ele>
        <time>2019-03-03T13:58:25Z</time>
      </trkpt>
      <trkpt lat="44.22551" lon="6.16138">
        <ele>1779.06</ele>
        <time>2019-03-03T13:58:38Z</time>
      </trkpt>
      <trkpt lat="44.22555" lon="6.16127">
        <ele>1778.58</ele>
        <time>2019-03-03T13:58:51Z</time>
      </trkpt>
      <trkpt lat="44.22557" lon="6.16123">
        <ele>1778.1</ele>
        <time>2019-03-03T13:59:04Z</time>
      </trkpt>
      <trkpt lat="44.22557" lon="6.16123">
        <ele>1776.17</ele>
        <time>2019-03-03T13:59:16Z</time>
      </trkpt>
      <trkpt lat="44.22559" lon="6.16118">
        <ele>1774.73</ele>
        <time>2019-03-03T13:59:27Z</time>
      </trkpt>
      <trkpt lat="44.22564" lon="6.1611">
        <ele>1774.25</ele>
        <time>2019-03-03T13:59:39Z</time>
      </trkpt>
      <trkpt lat="44.22564" lon="6.1611">
        <ele>1771.85</ele>
        <time>2019-03-03T13:59:53Z</time>
      </trkpt>
      <trkpt lat="44.22564" lon="6.1611">
        <ele>1770.89</ele>
        <time>2019-03-03T14:00:06Z</time>
      </trkpt>
      <trkpt lat="44.22565" lon="6.16109">
        <ele>1769.92</ele>
        <time>2019-03-03T14:00:19Z</time>
      </trkpt>
      <trkpt lat="44.22565" lon="6.16109">
        <ele>1769.44</ele>
        <time>2019-03-03T14:00:30Z</time>
      </trkpt>
      <trkpt lat="44.22567" lon="6.16106">
        <ele>1768.48</ele>
        <time>2019-03-03T14:00:45Z</time>
      </trkpt>
      <trkpt lat="44.22573" lon="6.161">
        <ele>1767.52</ele>
        <time>2019-03-03T14:00:55Z</time>
      </trkpt>
      <trkpt lat="44.22573" lon="6.161">
        <ele>1765.6</ele>
        <time>2019-03-03T14:01:08Z</time>
      </trkpt>
      <trkpt lat="44.22573" lon="6.161">
        <ele>1766.08</ele>
        <time>2019-03-03T14:01:21Z</time>
      </trkpt>
      <trkpt lat="44.22574" lon="6.16099">
        <ele>1765.12</ele>
        <time>2019-03-03T14:01:33Z</time>
      </trkpt>
      <trkpt lat="44.22574" lon="6.16099">
        <ele>1762.23</ele>
        <time>2019-03-03T14:01:45Z</time>
      </trkpt>
      <trkpt lat="44.22574" lon="6.16099">
        <ele>1761.75</ele>
        <time>2019-03-03T14:01:57Z</time>
      </trkpt>
      <trkpt lat="44.22574" lon="6.16099">
        <ele>1760.31</ele>
        <time>2019-03-03T14:02:07Z</time>
      </trkpt>
      <trkpt lat="44.22575" lon="6.16095">
        <ele>1759.35</ele>
        <time>2019-03-03T14:02:19Z</time>
      </trkpt>
      <trkpt lat="44.22575" lon="6.16095">
        <ele>1758.39</ele>
        <time>2019-03-03T14:02:31Z</time>
      </trkpt>
      <trkpt lat="44.22575" lon="6.16095">
        <ele>1756.47</ele>
        <time>2019-03-03T14:02:43Z</time>
      </trkpt>
      <trkpt lat="44.22581" lon="6.16084">
        <ele>1755.5</ele>
        <time>2019-03-03T14:02:55Z</time>
      </trkpt>
      <trkpt lat="44.22581" lon="6.16084">
        <ele>1753.58</ele>
        <time>2019-03-03T14:03:08Z</time>
      </trkpt>
      <trkpt lat="44.22581" lon="6.16084">
        <ele>1752.14</ele>
        <time>2019-03-03T14:03:20Z</time>
      </trkpt>
      <trkpt lat="44.22586" lon="6.1607">
        <ele>1749.74</ele>
        <time>2019-03-03T14:03:31Z</time>
      </trkpt>
      <trkpt lat="44.22595" lon="6.16055">
        <ele>1749.74</ele>
        <time>2019-03-03T14:03:36Z</time>
      </trkpt>
      <trkpt lat="44.22607" lon="6.16035">
        <ele>1749.74</ele>
        <time>2019-03-03T14:03:51Z</time>
      </trkpt>
      <trkpt lat="44.22622" lon="6.1602">
        <ele>1748.29</ele>
        <time>2019-03-03T14:04:07Z</time>
      </trkpt>
      <trkpt lat="44.2263" lon="6.16005">
        <ele>1747.33</ele>
        <time>2019-03-03T14:04:20Z</time>
      </trkpt>
      <trkpt lat="44.22635" lon="6.15991">
        <ele>1746.37</ele>
        <time>2019-03-03T14:04:33Z</time>
      </trkpt>
      <trkpt lat="44.22638" lon="6.15978">
        <ele>1745.41</ele>
        <time>2019-03-03T14:04:47Z</time>
      </trkpt>
      <trkpt lat="44.22641" lon="6.15963">
        <ele>1744.45</ele>
        <time>2019-03-03T14:05:02Z</time>
      </trkpt>
      <trkpt lat="44.22641" lon="6.15957">
        <ele>1744.45</ele>
        <time>2019-03-03T14:05:15Z</time>
      </trkpt>
      <trkpt lat="44.22641" lon="6.15957">
        <ele>1743.49</ele>
        <time>2019-03-03T14:05:49Z</time>
      </trkpt>
      <trkpt lat="44.2264" lon="6.15957">
        <ele>1743.01</ele>
        <time>2019-03-03T14:06:04Z</time>
      </trkpt>
      <trkpt lat="44.2264" lon="6.15957">
        <ele>1743.01</ele>
        <time>2019-03-03T14:06:27Z</time>
      </trkpt>
      <trkpt lat="44.22637" lon="6.15962">
        <ele>1742.53</ele>
        <time>2019-03-03T14:06:47Z</time>
      </trkpt>
      <trkpt lat="44.2263" lon="6.15972">
        <ele>1741.08</ele>
        <time>2019-03-03T14:07:01Z</time>
      </trkpt>
      <trkpt lat="44.22621" lon="6.15982">
        <ele>1740.12</ele>
        <time>2019-03-03T14:07:16Z</time>
      </trkpt>
      <trkpt lat="44.2262" lon="6.15985">
        <ele>1739.64</ele>
        <time>2019-03-03T14:07:19Z</time>
      </trkpt>
      <trkpt lat="44.22619" lon="6.15997">
        <ele>1739.64</ele>
        <time>2019-03-03T14:07:30Z</time>
      </trkpt>
      <trkpt lat="44.22611" lon="6.16008">
        <ele>1737.72</ele>
        <time>2019-03-03T14:07:46Z</time>
      </trkpt>
      <trkpt lat="44.22603" lon="6.16017">
        <ele>1736.76</ele>
        <time>2019-03-03T14:07:59Z</time>
      </trkpt>
      <trkpt lat="44.22603" lon="6.16017">
        <ele>1736.76</ele>
        <time>2019-03-03T14:08:00Z</time>
      </trkpt>
      <trkpt lat="44.226" lon="6.16019">
        <ele>1736.28</ele>
        <time>2019-03-03T14:08:04Z</time>
      </trkpt>
      <trkpt lat="44.2259" lon="6.16027">
        <ele>1734.36</ele>
        <time>2019-03-03T14:08:18Z</time>
      </trkpt>
      <trkpt lat="44.22581" lon="6.16035">
        <ele>1733.39</ele>
        <time>2019-03-03T14:08:34Z</time>
      </trkpt>
      <trkpt lat="44.22574" lon="6.16041">
        <ele>1730.99</ele>
        <time>2019-03-03T14:08:49Z</time>
      </trkpt>
      <trkpt lat="44.22581" lon="6.16029">
        <ele>1730.51</ele>
        <time>2019-03-03T14:09:03Z</time>
      </trkpt>
      <trkpt lat="44.22582" lon="6.16027">
        <ele>1730.51</ele>
        <time>2019-03-03T14:09:05Z</time>
      </trkpt>
      <trkpt lat="44.22589" lon="6.16015">
        <ele>1729.55</ele>
        <time>2019-03-03T14:09:19Z</time>
      </trkpt>
      <trkpt lat="44.22597" lon="6.16004">
        <ele>1728.59</ele>
        <time>2019-03-03T14:09:34Z</time>
      </trkpt>
      <trkpt lat="44.22598" lon="6.15998">
        <ele>1726.18</ele>
        <time>2019-03-03T14:09:46Z</time>
      </trkpt>
      <trkpt lat="44.22594" lon="6.16003">
        <ele>1725.7</ele>
        <time>2019-03-03T14:10:01Z</time>
      </trkpt>
      <trkpt lat="44.22588" lon="6.16008">
        <ele>1725.22</ele>
        <time>2019-03-03T14:10:11Z</time>
      </trkpt>
      <trkpt lat="44.22576" lon="6.16017">
        <ele>1723.3</ele>
        <time>2019-03-03T14:10:27Z</time>
      </trkpt>
      <trkpt lat="44.22567" lon="6.16025">
        <ele>1722.34</ele>
        <time>2019-03-03T14:10:42Z</time>
      </trkpt>
      <trkpt lat="44.22556" lon="6.16036">
        <ele>1721.38</ele>
        <time>2019-03-03T14:10:58Z</time>
      </trkpt>
      <trkpt lat="44.22546" lon="6.16047">
        <ele>1719.94</ele>
        <time>2019-03-03T14:11:13Z</time>
      </trkpt>
      <trkpt lat="44.22537" lon="6.16051">
        <ele>1718.97</ele>
        <time>2019-03-03T14:11:27Z</time>
      </trkpt>
      <trkpt lat="44.22527" lon="6.16056">
        <ele>1717.53</ele>
        <time>2019-03-03T14:11:40Z</time>
      </trkpt>
      <trkpt lat="44.22516" lon="6.16063">
        <ele>1716.57</ele>
        <time>2019-03-03T14:11:55Z</time>
      </trkpt>
      <trkpt lat="44.22509" lon="6.16067">
        <ele>1715.13</ele>
        <time>2019-03-03T14:12:07Z</time>
      </trkpt>
      <trkpt lat="44.2251" lon="6.1606">
        <ele>1713.21</ele>
        <time>2019-03-03T14:12:21Z</time>
      </trkpt>
      <trkpt lat="44.22519" lon="6.16048">
        <ele>1711.76</ele>
        <time>2019-03-03T14:12:37Z</time>
      </trkpt>
      <trkpt lat="44.22529" lon="6.16036">
        <ele>1710.32</ele>
        <time>2019-03-03T14:12:52Z</time>
      </trkpt>
      <trkpt lat="44.22536" lon="6.16025">
        <ele>1708.88</ele>
        <time>2019-03-03T14:13:06Z</time>
      </trkpt>
      <trkpt lat="44.2254" lon="6.16023">
        <ele>1709.36</ele>
        <time>2019-03-03T14:13:12Z</time>
      </trkpt>
      <trkpt lat="44.22549" lon="6.16012">
        <ele>1708.88</ele>
        <time>2019-03-03T14:13:27Z</time>
      </trkpt>
      <trkpt lat="44.22556" lon="6.16006">
        <ele>1706.96</ele>
        <time>2019-03-03T14:13:41Z</time>
      </trkpt>
      <trkpt lat="44.22564" lon="6.15996">
        <ele>1706.48</ele>
        <time>2019-03-03T14:13:54Z</time>
      </trkpt>
      <trkpt lat="44.2257" lon="6.15987">
        <ele>1706.48</ele>
        <time>2019-03-03T14:14:06Z</time>
      </trkpt>
      <trkpt lat="44.22577" lon="6.15976">
        <ele>1705.04</ele>
        <time>2019-03-03T14:14:22Z</time>
      </trkpt>
      <trkpt lat="44.22579" lon="6.15972">
        <ele>1705.52</ele>
        <time>2019-03-03T14:14:26Z</time>
      </trkpt>
      <trkpt lat="44.22587" lon="6.1596">
        <ele>1704.07</ele>
        <time>2019-03-03T14:14:42Z</time>
      </trkpt>
      <trkpt lat="44.22593" lon="6.15946">
        <ele>1703.59</ele>
        <time>2019-03-03T14:14:57Z</time>
      </trkpt>
      <trkpt lat="44.226" lon="6.15931">
        <ele>1702.15</ele>
        <time>2019-03-03T14:15:13Z</time>
      </trkpt>
      <trkpt lat="44.22606" lon="6.15922">
        <ele>1701.67</ele>
        <time>2019-03-03T14:15:23Z</time>
      </trkpt>
      <trkpt lat="44.22611" lon="6.15907">
        <ele>1699.75</ele>
        <time>2019-03-03T14:15:37Z</time>
      </trkpt>
      <trkpt lat="44.22616" lon="6.15894">
        <ele>1699.27</ele>
        <time>2019-03-03T14:15:51Z</time>
      </trkpt>
      <trkpt lat="44.2262" lon="6.15885">
        <ele>1697.34</ele>
        <time>2019-03-03T14:16:04Z</time>
      </trkpt>
      <trkpt lat="44.22625" lon="6.15869">
        <ele>1695.9</ele>
        <time>2019-03-03T14:16:21Z</time>
      </trkpt>
      <trkpt lat="44.22625" lon="6.15867">
        <ele>1695.9</ele>
        <time>2019-03-03T14:16:32Z</time>
      </trkpt>
      <trkpt lat="44.22628" lon="6.15858">
        <ele>1695.9</ele>
        <time>2019-03-03T14:16:40Z</time>
      </trkpt>
      <trkpt lat="44.22635" lon="6.15838">
        <ele>1693.98</ele>
        <time>2019-03-03T14:16:58Z</time>
      </trkpt>
      <trkpt lat="44.22637" lon="6.15831">
        <ele>1693.02</ele>
        <time>2019-03-03T14:17:05Z</time>
      </trkpt>
      <trkpt lat="44.2264" lon="6.15816">
        <ele>1692.06</ele>
        <time>2019-03-03T14:17:19Z</time>
      </trkpt>
      <trkpt lat="44.22644" lon="6.15807">
        <ele>1691.1</ele>
        <time>2019-03-03T14:17:30Z</time>
      </trkpt>
      <trkpt lat="44.22649" lon="6.15793">
        <ele>1690.62</ele>
        <time>2019-03-03T14:17:46Z</time>
      </trkpt>
      <trkpt lat="44.22651" lon="6.15784">
        <ele>1689.17</ele>
        <time>2019-03-03T14:17:56Z</time>
      </trkpt>
      <trkpt lat="44.22653" lon="6.15775">
        <ele>1687.73</ele>
        <time>2019-03-03T14:18:10Z</time>
      </trkpt>
      <trkpt lat="44.22655" lon="6.15772">
        <ele>1688.21</ele>
        <time>2019-03-03T14:18:13Z</time>
      </trkpt>
      <trkpt lat="44.22656" lon="6.1577">
        <ele>1687.73</ele>
        <time>2019-03-03T14:18:15Z</time>
      </trkpt>
      <trkpt lat="44.2266" lon="6.15762">
        <ele>1687.25</ele>
        <time>2019-03-03T14:18:23Z</time>
      </trkpt>
      <trkpt lat="44.22666" lon="6.15748">
        <ele>1686.29</ele>
        <time>2019-03-03T14:18:38Z</time>
      </trkpt>
      <trkpt lat="44.22672" lon="6.15732">
        <ele>1685.33</ele>
        <time>2019-03-03T14:18:53Z</time>
      </trkpt>
      <trkpt lat="44.2268" lon="6.1571">
        <ele>1682.93</ele>
        <time>2019-03-03T14:19:11Z</time>
      </trkpt>
      <trkpt lat="44.22687" lon="6.15695">
        <ele>1682.44</ele>
        <time>2019-03-03T14:19:25Z</time>
      </trkpt>
      <trkpt lat="44.22695" lon="6.15675">
        <ele>1680.52</ele>
        <time>2019-03-03T14:19:43Z</time>
      </trkpt>
      <trkpt lat="44.22701" lon="6.15658">
        <ele>1679.56</ele>
        <time>2019-03-03T14:19:58Z</time>
      </trkpt>
      <trkpt lat="44.2271" lon="6.15638">
        <ele>1678.12</ele>
        <time>2019-03-03T14:20:17Z</time>
      </trkpt>
      <trkpt lat="44.22716" lon="6.15622">
        <ele>1677.16</ele>
        <time>2019-03-03T14:20:32Z</time>
      </trkpt>
      <trkpt lat="44.2272" lon="6.1561">
        <ele>1676.68</ele>
        <time>2019-03-03T14:20:44Z</time>
      </trkpt>
      <trkpt lat="44.22725" lon="6.15594">
        <ele>1676.2</ele>
        <time>2019-03-03T14:20:59Z</time>
      </trkpt>
      <trkpt lat="44.22728" lon="6.15581">
        <ele>1674.75</ele>
        <time>2019-03-03T14:21:14Z</time>
      </trkpt>
      <trkpt lat="44.22736" lon="6.15565">
        <ele>1674.75</ele>
        <time>2019-03-03T14:21:30Z</time>
      </trkpt>
      <trkpt lat="44.22744" lon="6.15548">
        <ele>1675.72</ele>
        <time>2019-03-03T14:21:48Z</time>
      </trkpt>
      <trkpt lat="44.22752" lon="6.15532">
        <ele>1674.75</ele>
        <time>2019-03-03T14:22:04Z</time>
      </trkpt>
      <trkpt lat="44.22759" lon="6.15521">
        <ele>1674.27</ele>
        <time>2019-03-03T14:22:18Z</time>
      </trkpt>
      <trkpt lat="44.22758" lon="6.15513">
        <ele>1671.39</ele>
        <time>2019-03-03T14:22:28Z</time>
      </trkpt>
      <trkpt lat="44.22764" lon="6.15503">
        <ele>1669.95</ele>
        <time>2019-03-03T14:22:41Z</time>
      </trkpt>
      <trkpt lat="44.22768" lon="6.15498">
        <ele>1668.99</ele>
        <time>2019-03-03T14:22:47Z</time>
      </trkpt>
      <trkpt lat="44.22784" lon="6.15486">
        <ele>1666.1</ele>
        <time>2019-03-03T14:23:06Z</time>
      </trkpt>
      <trkpt lat="44.22787" lon="6.15484">
        <ele>1666.1</ele>
        <time>2019-03-03T14:23:09Z</time>
      </trkpt>
      <trkpt lat="44.22791" lon="6.15481">
        <ele>1665.14</ele>
        <time>2019-03-03T14:23:14Z</time>
      </trkpt>
      <trkpt lat="44.22799" lon="6.15472">
        <ele>1664.18</ele>
        <time>2019-03-03T14:23:29Z</time>
      </trkpt>
      <trkpt lat="44.22807" lon="6.15469">
        <ele>1664.18</ele>
        <time>2019-03-03T14:23:37Z</time>
      </trkpt>
      <trkpt lat="44.2281" lon="6.15466">
        <ele>1663.7</ele>
        <time>2019-03-03T14:23:41Z</time>
      </trkpt>
      <trkpt lat="44.22823" lon="6.15452">
        <ele>1661.3</ele>
        <time>2019-03-03T14:23:58Z</time>
      </trkpt>
      <trkpt lat="44.22834" lon="6.15444">
        <ele>1660.33</ele>
        <time>2019-03-03T14:24:11Z</time>
      </trkpt>
      <trkpt lat="44.22845" lon="6.15432">
        <ele>1658.41</ele>
        <time>2019-03-03T14:24:26Z</time>
      </trkpt>
      <trkpt lat="44.22854" lon="6.1542">
        <ele>1657.45</ele>
        <time>2019-03-03T14:24:40Z</time>
      </trkpt>
      <trkpt lat="44.22864" lon="6.15412">
        <ele>1656.49</ele>
        <time>2019-03-03T14:24:55Z</time>
      </trkpt>
      <trkpt lat="44.2287" lon="6.15408">
        <ele>1655.53</ele>
        <time>2019-03-03T14:25:03Z</time>
      </trkpt>
      <trkpt lat="44.22873" lon="6.15401">
        <ele>1654.09</ele>
        <time>2019-03-03T14:25:11Z</time>
      </trkpt>
      <trkpt lat="44.22876" lon="6.15397">
        <ele>1654.09</ele>
        <time>2019-03-03T14:25:17Z</time>
      </trkpt>
      <trkpt lat="44.22883" lon="6.15386">
        <ele>1651.68</ele>
        <time>2019-03-03T14:25:33Z</time>
      </trkpt>
      <trkpt lat="44.22875" lon="6.15395">
        <ele>1650.72</ele>
        <time>2019-03-03T14:25:47Z</time>
      </trkpt>
      <trkpt lat="44.22866" lon="6.15403">
        <ele>1649.76</ele>
        <time>2019-03-03T14:26:01Z</time>
      </trkpt>
      <trkpt lat="44.22862" lon="6.15402">
        <ele>1648.8</ele>
        <time>2019-03-03T14:26:07Z</time>
      </trkpt>
      <trkpt lat="44.22854" lon="6.15407">
        <ele>1648.8</ele>
        <time>2019-03-03T14:26:17Z</time>
      </trkpt>
      <trkpt lat="44.22844" lon="6.1541">
        <ele>1646.88</ele>
        <time>2019-03-03T14:26:31Z</time>
      </trkpt>
      <trkpt lat="44.22837" lon="6.15415">
        <ele>1646.88</ele>
        <time>2019-03-03T14:26:40Z</time>
      </trkpt>
      <trkpt lat="44.22826" lon="6.15421">
        <ele>1645.43</ele>
        <time>2019-03-03T14:26:56Z</time>
      </trkpt>
      <trkpt lat="44.22824" lon="6.15423">
        <ele>1645.43</ele>
        <time>2019-03-03T14:27:00Z</time>
      </trkpt>
      <trkpt lat="44.2281" lon="6.15428">
        <ele>1643.51</ele>
        <time>2019-03-03T14:27:16Z</time>
      </trkpt>
      <trkpt lat="44.22802" lon="6.15432">
        <ele>1643.03</ele>
        <time>2019-03-03T14:27:28Z</time>
      </trkpt>
      <trkpt lat="44.2279" lon="6.15436">
        <ele>1641.59</ele>
        <time>2019-03-03T14:27:43Z</time>
      </trkpt>
      <trkpt lat="44.2278" lon="6.15433">
        <ele>1639.19</ele>
        <time>2019-03-03T14:27:57Z</time>
      </trkpt>
      <trkpt lat="44.22781" lon="6.15427">
        <ele>1636.78</ele>
        <time>2019-03-03T14:28:04Z</time>
      </trkpt>
      <trkpt lat="44.22791" lon="6.15416">
        <ele>1634.86</ele>
        <time>2019-03-03T14:28:16Z</time>
      </trkpt>
      <trkpt lat="44.228" lon="6.15408">
        <ele>1634.38</ele>
        <time>2019-03-03T14:28:29Z</time>
      </trkpt>
      <trkpt lat="44.22807" lon="6.15403">
        <ele>1633.42</ele>
        <time>2019-03-03T14:28:36Z</time>
      </trkpt>
      <trkpt lat="44.22818" lon="6.15394">
        <ele>1631.98</ele>
        <time>2019-03-03T14:28:50Z</time>
      </trkpt>
      <trkpt lat="44.2282" lon="6.15394">
        <ele>1631.49</ele>
        <time>2019-03-03T14:28:52Z</time>
      </trkpt>
      <trkpt lat="44.22824" lon="6.15389">
        <ele>1631.01</ele>
        <time>2019-03-03T14:28:57Z</time>
      </trkpt>
      <trkpt lat="44.22832" lon="6.15381">
        <ele>1630.53</ele>
        <time>2019-03-03T14:29:12Z</time>
      </trkpt>
      <trkpt lat="44.22839" lon="6.15372">
        <ele>1629.09</ele>
        <time>2019-03-03T14:29:25Z</time>
      </trkpt>
      <trkpt lat="44.22849" lon="6.15365">
        <ele>1627.17</ele>
        <time>2019-03-03T14:29:38Z</time>
      </trkpt>
      <trkpt lat="44.2286" lon="6.15349">
        <ele>1626.21</ele>
        <time>2019-03-03T14:29:54Z</time>
      </trkpt>
      <trkpt lat="44.22862" lon="6.15347">
        <ele>1626.21</ele>
        <time>2019-03-03T14:29:56Z</time>
      </trkpt>
      <trkpt lat="44.22874" lon="6.15335">
        <ele>1624.28</ele>
        <time>2019-03-03T14:30:10Z</time>
      </trkpt>
      <trkpt lat="44.22878" lon="6.15326">
        <ele>1623.32</ele>
        <time>2019-03-03T14:30:18Z</time>
      </trkpt>
      <trkpt lat="44.22884" lon="6.15319">
        <ele>1621.88</ele>
        <time>2019-03-03T14:30:27Z</time>
      </trkpt>
      <trkpt lat="44.2289" lon="6.15309">
        <ele>1620.92</ele>
        <time>2019-03-03T14:30:37Z</time>
      </trkpt>
      <trkpt lat="44.22897" lon="6.15301">
        <ele>1619.48</ele>
        <time>2019-03-03T14:30:46Z</time>
      </trkpt>
      <trkpt lat="44.22908" lon="6.15291">
        <ele>1619</ele>
        <time>2019-03-03T14:31:01Z</time>
      </trkpt>
      <trkpt lat="44.22919" lon="6.15285">
        <ele>1616.59</ele>
        <time>2019-03-03T14:31:13Z</time>
      </trkpt>
      <trkpt lat="44.22928" lon="6.15275">
        <ele>1615.63</ele>
        <time>2019-03-03T14:31:26Z</time>
      </trkpt>
      <trkpt lat="44.22937" lon="6.15259">
        <ele>1614.19</ele>
        <time>2019-03-03T14:31:40Z</time>
      </trkpt>
      <trkpt lat="44.22945" lon="6.15244">
        <ele>1612.75</ele>
        <time>2019-03-03T14:31:53Z</time>
      </trkpt>
      <trkpt lat="44.22953" lon="6.15229">
        <ele>1611.31</ele>
        <time>2019-03-03T14:32:06Z</time>
      </trkpt>
      <trkpt lat="44.22961" lon="6.15222">
        <ele>1610.35</ele>
        <time>2019-03-03T14:32:19Z</time>
      </trkpt>
      <trkpt lat="44.22967" lon="6.15212">
        <ele>1609.38</ele>
        <time>2019-03-03T14:32:28Z</time>
      </trkpt>
      <trkpt lat="44.2298" lon="6.15196">
        <ele>1606.98</ele>
        <time>2019-03-03T14:32:43Z</time>
      </trkpt>
      <trkpt lat="44.22987" lon="6.15186">
        <ele>1606.5</ele>
        <time>2019-03-03T14:32:53Z</time>
      </trkpt>
      <trkpt lat="44.22997" lon="6.15175">
        <ele>1604.58</ele>
        <time>2019-03-03T14:33:05Z</time>
      </trkpt>
      <trkpt lat="44.23001" lon="6.15169">
        <ele>1604.1</ele>
        <time>2019-03-03T14:33:10Z</time>
      </trkpt>
      <trkpt lat="44.23014" lon="6.15155">
        <ele>1602.66</ele>
        <time>2019-03-03T14:33:26Z</time>
      </trkpt>
      <trkpt lat="44.23023" lon="6.15142">
        <ele>1600.25</ele>
        <time>2019-03-03T14:33:41Z</time>
      </trkpt>
      <trkpt lat="44.23033" lon="6.1513">
        <ele>1598.81</ele>
        <time>2019-03-03T14:33:54Z</time>
      </trkpt>
      <trkpt lat="44.23041" lon="6.15117">
        <ele>1596.89</ele>
        <time>2019-03-03T14:34:06Z</time>
      </trkpt>
      <trkpt lat="44.23048" lon="6.1511">
        <ele>1596.41</ele>
        <time>2019-03-03T14:34:13Z</time>
      </trkpt>
      <trkpt lat="44.23056" lon="6.15102">
        <ele>1595.45</ele>
        <time>2019-03-03T14:34:22Z</time>
      </trkpt>
      <trkpt lat="44.23058" lon="6.151">
        <ele>1595.45</ele>
        <time>2019-03-03T14:34:24Z</time>
      </trkpt>
      <trkpt lat="44.23066" lon="6.1509">
        <ele>1593.52</ele>
        <time>2019-03-03T14:34:36Z</time>
      </trkpt>
      <trkpt lat="44.23072" lon="6.15082">
        <ele>1592.56</ele>
        <time>2019-03-03T14:34:45Z</time>
      </trkpt>
      <trkpt lat="44.23075" lon="6.1508">
        <ele>1592.08</ele>
        <time>2019-03-03T14:34:47Z</time>
      </trkpt>
      <trkpt lat="44.23087" lon="6.15065">
        <ele>1591.6</ele>
        <time>2019-03-03T14:35:02Z</time>
      </trkpt>
      <trkpt lat="44.23095" lon="6.15053">
        <ele>1588.72</ele>
        <time>2019-03-03T14:35:15Z</time>
      </trkpt>
      <trkpt lat="44.23106" lon="6.1504">
        <ele>1587.75</ele>
        <time>2019-03-03T14:35:29Z</time>
      </trkpt>
      <trkpt lat="44.23107" lon="6.1504">
        <ele>1587.75</ele>
        <time>2019-03-03T14:35:30Z</time>
      </trkpt>
      <trkpt lat="44.23119" lon="6.15022">
        <ele>1586.79</ele>
        <time>2019-03-03T14:35:46Z</time>
      </trkpt>
      <trkpt lat="44.2312" lon="6.15021">
        <ele>1586.31</ele>
        <time>2019-03-03T14:35:47Z</time>
      </trkpt>
      <trkpt lat="44.23125" lon="6.15018">
        <ele>1586.31</ele>
        <time>2019-03-03T14:35:52Z</time>
      </trkpt>
      <trkpt lat="44.23128" lon="6.15014">
        <ele>1584.87</ele>
        <time>2019-03-03T14:35:56Z</time>
      </trkpt>
      <trkpt lat="44.23135" lon="6.15005">
        <ele>1582.95</ele>
        <time>2019-03-03T14:36:06Z</time>
      </trkpt>
      <trkpt lat="44.23146" lon="6.14989">
        <ele>1581.99</ele>
        <time>2019-03-03T14:36:20Z</time>
      </trkpt>
      <trkpt lat="44.23158" lon="6.14978">
        <ele>1580.54</ele>
        <time>2019-03-03T14:36:34Z</time>
      </trkpt>
      <trkpt lat="44.23165" lon="6.1497">
        <ele>1579.58</ele>
        <time>2019-03-03T14:36:46Z</time>
      </trkpt>
      <trkpt lat="44.23167" lon="6.1497">
        <ele>1579.58</ele>
        <time>2019-03-03T14:36:48Z</time>
      </trkpt>
      <trkpt lat="44.23178" lon="6.14959">
        <ele>1577.66</ele>
        <time>2019-03-03T14:37:02Z</time>
      </trkpt>
      <trkpt lat="44.23186" lon="6.14945">
        <ele>1576.7</ele>
        <time>2019-03-03T14:37:15Z</time>
      </trkpt>
      <trkpt lat="44.23198" lon="6.14934">
        <ele>1575.26</ele>
        <time>2019-03-03T14:37:29Z</time>
      </trkpt>
      <trkpt lat="44.23204" lon="6.14923">
        <ele>1574.3</ele>
        <time>2019-03-03T14:37:42Z</time>
      </trkpt>
      <trkpt lat="44.23206" lon="6.1492">
        <ele>1573.33</ele>
        <time>2019-03-03T14:37:45Z</time>
      </trkpt>
      <trkpt lat="44.23216" lon="6.14909">
        <ele>1571.89</ele>
        <time>2019-03-03T14:37:59Z</time>
      </trkpt>
      <trkpt lat="44.2322" lon="6.14905">
        <ele>1571.41</ele>
        <time>2019-03-03T14:38:03Z</time>
      </trkpt>
      <trkpt lat="44.23222" lon="6.149">
        <ele>1571.41</ele>
        <time>2019-03-03T14:38:07Z</time>
      </trkpt>
      <trkpt lat="44.23232" lon="6.14888">
        <ele>1569.97</ele>
        <time>2019-03-03T14:38:20Z</time>
      </trkpt>
      <trkpt lat="44.23243" lon="6.14879">
        <ele>1568.05</ele>
        <time>2019-03-03T14:38:36Z</time>
      </trkpt>
      <trkpt lat="44.23254" lon="6.14861">
        <ele>1567.09</ele>
        <time>2019-03-03T14:38:53Z</time>
      </trkpt>
      <trkpt lat="44.23258" lon="6.14859">
        <ele>1566.12</ele>
        <time>2019-03-03T14:38:57Z</time>
      </trkpt>
      <trkpt lat="44.23264" lon="6.14853">
        <ele>1565.64</ele>
        <time>2019-03-03T14:39:04Z</time>
      </trkpt>
      <trkpt lat="44.23272" lon="6.14844">
        <ele>1564.2</ele>
        <time>2019-03-03T14:39:13Z</time>
      </trkpt>
      <trkpt lat="44.23275" lon="6.14838">
        <ele>1563.24</ele>
        <time>2019-03-03T14:39:18Z</time>
      </trkpt>
      <trkpt lat="44.23278" lon="6.14836">
        <ele>1563.72</ele>
        <time>2019-03-03T14:39:36Z</time>
      </trkpt>
      <trkpt lat="44.23281" lon="6.14835">
        <ele>1563.72</ele>
        <time>2019-03-03T14:39:38Z</time>
      </trkpt>
      <trkpt lat="44.23284" lon="6.14831">
        <ele>1562.76</ele>
        <time>2019-03-03T14:39:42Z</time>
      </trkpt>
      <trkpt lat="44.23286" lon="6.14829">
        <ele>1561.8</ele>
        <time>2019-03-03T14:39:44Z</time>
      </trkpt>
      <trkpt lat="44.23294" lon="6.14817">
        <ele>1560.36</ele>
        <time>2019-03-03T14:39:57Z</time>
      </trkpt>
      <trkpt lat="44.23303" lon="6.14805">
        <ele>1558.92</ele>
        <time>2019-03-03T14:40:09Z</time>
      </trkpt>
      <trkpt lat="44.23313" lon="6.14794">
        <ele>1558.43</ele>
        <time>2019-03-03T14:40:23Z</time>
      </trkpt>
      <trkpt lat="44.23315" lon="6.1479">
        <ele>1557.95</ele>
        <time>2019-03-03T14:40:26Z</time>
      </trkpt>
      <trkpt lat="44.23325" lon="6.14782">
        <ele>1556.99</ele>
        <time>2019-03-03T14:40:38Z</time>
      </trkpt>
      <trkpt lat="44.23331" lon="6.14777">
        <ele>1556.03</ele>
        <time>2019-03-03T14:40:45Z</time>
      </trkpt>
      <trkpt lat="44.2334" lon="6.14762">
        <ele>1554.11</ele>
        <time>2019-03-03T14:41:01Z</time>
      </trkpt>
      <trkpt lat="44.23343" lon="6.14753">
        <ele>1553.15</ele>
        <time>2019-03-03T14:41:08Z</time>
      </trkpt>
      <trkpt lat="44.23348" lon="6.14746">
        <ele>1553.15</ele>
        <time>2019-03-03T14:41:14Z</time>
      </trkpt>
      <trkpt lat="44.23356" lon="6.14743">
        <ele>1550.26</ele>
        <time>2019-03-03T14:41:26Z</time>
      </trkpt>
      <trkpt lat="44.23346" lon="6.14746">
        <ele>1548.34</ele>
        <time>2019-03-03T14:41:38Z</time>
      </trkpt>
      <trkpt lat="44.23335" lon="6.14752">
        <ele>1547.38</ele>
        <time>2019-03-03T14:41:50Z</time>
      </trkpt>
      <trkpt lat="44.23334" lon="6.14753">
        <ele>1546.9</ele>
        <time>2019-03-03T14:41:52Z</time>
      </trkpt>
      <trkpt lat="44.23332" lon="6.14755">
        <ele>1546.42</ele>
        <time>2019-03-03T14:41:54Z</time>
      </trkpt>
      <trkpt lat="44.23323" lon="6.14761">
        <ele>1544.98</ele>
        <time>2019-03-03T14:42:05Z</time>
      </trkpt>
      <trkpt lat="44.23314" lon="6.14766">
        <ele>1544.5</ele>
        <time>2019-03-03T14:42:13Z</time>
      </trkpt>
      <trkpt lat="44.23312" lon="6.14765">
        <ele>1544.5</ele>
        <time>2019-03-03T14:42:15Z</time>
      </trkpt>
      <trkpt lat="44.23305" lon="6.14768">
        <ele>1544.5</ele>
        <time>2019-03-03T14:42:22Z</time>
      </trkpt>
      <trkpt lat="44.23292" lon="6.14777">
        <ele>1542.57</ele>
        <time>2019-03-03T14:42:37Z</time>
      </trkpt>
      <trkpt lat="44.23284" lon="6.14784">
        <ele>1540.65</ele>
        <time>2019-03-03T14:42:51Z</time>
      </trkpt>
      <trkpt lat="44.23282" lon="6.14785">
        <ele>1540.65</ele>
        <time>2019-03-03T14:42:55Z</time>
      </trkpt>
      <trkpt lat="44.23276" lon="6.14787">
        <ele>1540.17</ele>
        <time>2019-03-03T14:42:59Z</time>
      </trkpt>
      <trkpt lat="44.23261" lon="6.14797">
        <ele>1538.25</ele>
        <time>2019-03-03T14:43:15Z</time>
      </trkpt>
      <trkpt lat="44.23251" lon="6.148">
        <ele>1537.29</ele>
        <time>2019-03-03T14:43:25Z</time>
      </trkpt>
      <trkpt lat="44.23236" lon="6.14809">
        <ele>1535.36</ele>
        <time>2019-03-03T14:43:41Z</time>
      </trkpt>
      <trkpt lat="44.23231" lon="6.14809">
        <ele>1535.36</ele>
        <time>2019-03-03T14:43:45Z</time>
      </trkpt>
      <trkpt lat="44.23225" lon="6.14812">
        <ele>1534.88</ele>
        <time>2019-03-03T14:43:52Z</time>
      </trkpt>
      <trkpt lat="44.23213" lon="6.14817">
        <ele>1533.44</ele>
        <time>2019-03-03T14:44:03Z</time>
      </trkpt>
      <trkpt lat="44.23203" lon="6.14823">
        <ele>1531.52</ele>
        <time>2019-03-03T14:44:17Z</time>
      </trkpt>
      <trkpt lat="44.23198" lon="6.14823">
        <ele>1531.52</ele>
        <time>2019-03-03T14:44:22Z</time>
      </trkpt>
      <trkpt lat="44.23191" lon="6.14828">
        <ele>1531.04</ele>
        <time>2019-03-03T14:44:30Z</time>
      </trkpt>
      <trkpt lat="44.23179" lon="6.14832">
        <ele>1529.59</ele>
        <time>2019-03-03T14:44:44Z</time>
      </trkpt>
      <trkpt lat="44.23168" lon="6.14838">
        <ele>1528.63</ele>
        <time>2019-03-03T14:44:53Z</time>
      </trkpt>
      <trkpt lat="44.23158" lon="6.14843">
        <ele>1527.19</ele>
        <time>2019-03-03T14:45:06Z</time>
      </trkpt>
      <trkpt lat="44.23153" lon="6.1485">
        <ele>1526.23</ele>
        <time>2019-03-03T14:45:13Z</time>
      </trkpt>
      <trkpt lat="44.2314" lon="6.14859">
        <ele>1524.79</ele>
        <time>2019-03-03T14:45:27Z</time>
      </trkpt>
      <trkpt lat="44.23135" lon="6.14861">
        <ele>1522.87</ele>
        <time>2019-03-03T14:45:34Z</time>
      </trkpt>
      <trkpt lat="44.23119" lon="6.14869">
        <ele>1522.39</ele>
        <time>2019-03-03T14:45:51Z</time>
      </trkpt>
      <trkpt lat="44.23106" lon="6.1488">
        <ele>1521.9</ele>
        <time>2019-03-03T14:46:05Z</time>
      </trkpt>
      <trkpt lat="44.23105" lon="6.1488">
        <ele>1520.94</ele>
        <time>2019-03-03T14:46:07Z</time>
      </trkpt>
      <trkpt lat="44.23102" lon="6.1488">
        <ele>1520.46</ele>
        <time>2019-03-03T14:46:09Z</time>
      </trkpt>
      <trkpt lat="44.23085" lon="6.14881">
        <ele>1518.06</ele>
        <time>2019-03-03T14:46:25Z</time>
      </trkpt>
      <trkpt lat="44.23084" lon="6.14881">
        <ele>1518.06</ele>
        <time>2019-03-03T14:46:26Z</time>
      </trkpt>
      <trkpt lat="44.2307" lon="6.14891">
        <ele>1517.58</ele>
        <time>2019-03-03T14:46:40Z</time>
      </trkpt>
      <trkpt lat="44.23061" lon="6.14897">
        <ele>1516.14</ele>
        <time>2019-03-03T14:46:51Z</time>
      </trkpt>
      <trkpt lat="44.23047" lon="6.14902">
        <ele>1514.21</ele>
        <time>2019-03-03T14:47:06Z</time>
      </trkpt>
      <trkpt lat="44.23033" lon="6.14907">
        <ele>1512.77</ele>
        <time>2019-03-03T14:47:20Z</time>
      </trkpt>
      <trkpt lat="44.23021" lon="6.14914">
        <ele>1511.33</ele>
        <time>2019-03-03T14:47:34Z</time>
      </trkpt>
      <trkpt lat="44.23012" lon="6.1492">
        <ele>1510.37</ele>
        <time>2019-03-03T14:47:41Z</time>
      </trkpt>
      <trkpt lat="44.23002" lon="6.14928">
        <ele>1509.89</ele>
        <time>2019-03-03T14:47:52Z</time>
      </trkpt>
      <trkpt lat="44.22986" lon="6.14942">
        <ele>1507.48</ele>
        <time>2019-03-03T14:48:10Z</time>
      </trkpt>
      <trkpt lat="44.22984" lon="6.14944">
        <ele>1507.48</ele>
        <time>2019-03-03T14:48:12Z</time>
      </trkpt>
      <trkpt lat="44.22977" lon="6.14942">
        <ele>1506.04</ele>
        <time>2019-03-03T14:48:21Z</time>
      </trkpt>
      <trkpt lat="44.22965" lon="6.14953">
        <ele>1505.08</ele>
        <time>2019-03-03T14:48:36Z</time>
      </trkpt>
      <trkpt lat="44.22952" lon="6.14964">
        <ele>1503.64</ele>
        <time>2019-03-03T14:48:50Z</time>
      </trkpt>
      <trkpt lat="44.22942" lon="6.14971">
        <ele>1501.72</ele>
        <time>2019-03-03T14:49:05Z</time>
      </trkpt>
      <trkpt lat="44.22936" lon="6.14974">
        <ele>1501.24</ele>
        <time>2019-03-03T14:49:11Z</time>
      </trkpt>
      <trkpt lat="44.22923" lon="6.14981">
        <ele>1500.27</ele>
        <time>2019-03-03T14:49:25Z</time>
      </trkpt>
      <trkpt lat="44.22913" lon="6.14979">
        <ele>1498.35</ele>
        <time>2019-03-03T14:49:35Z</time>
      </trkpt>
      <trkpt lat="44.22896" lon="6.14972">
        <ele>1496.91</ele>
        <time>2019-03-03T14:49:49Z</time>
      </trkpt>
      <trkpt lat="44.22886" lon="6.14971">
        <ele>1495.47</ele>
        <time>2019-03-03T14:50:00Z</time>
      </trkpt>
      <trkpt lat="44.2287" lon="6.14976">
        <ele>1494.51</ele>
        <time>2019-03-03T14:50:15Z</time>
      </trkpt>
      <trkpt lat="44.22864" lon="6.14979">
        <ele>1493.55</ele>
        <time>2019-03-03T14:50:21Z</time>
      </trkpt>
      <trkpt lat="44.2286" lon="6.14978">
        <ele>1493.55</ele>
        <time>2019-03-03T14:50:25Z</time>
      </trkpt>
      <trkpt lat="44.22847" lon="6.14962">
        <ele>1491.62</ele>
        <time>2019-03-03T14:50:39Z</time>
      </trkpt>
      <trkpt lat="44.22834" lon="6.14961">
        <ele>1490.18</ele>
        <time>2019-03-03T14:50:50Z</time>
      </trkpt>
      <trkpt lat="44.22816" lon="6.14962">
        <ele>1488.74</ele>
        <time>2019-03-03T14:51:08Z</time>
      </trkpt>
      <trkpt lat="44.22804" lon="6.1496">
        <ele>1486.82</ele>
        <time>2019-03-03T14:51:21Z</time>
      </trkpt>
      <trkpt lat="44.22792" lon="6.14961">
        <ele>1484.89</ele>
        <time>2019-03-03T14:51:34Z</time>
      </trkpt>
      <trkpt lat="44.22779" lon="6.14966">
        <ele>1483.93</ele>
        <time>2019-03-03T14:51:48Z</time>
      </trkpt>
      <trkpt lat="44.22763" lon="6.14966">
        <ele>1481.53</ele>
        <time>2019-03-03T14:52:04Z</time>
      </trkpt>
      <trkpt lat="44.22748" lon="6.14969">
        <ele>1480.09</ele>
        <time>2019-03-03T14:52:18Z</time>
      </trkpt>
      <trkpt lat="44.22738" lon="6.14973">
        <ele>1478.65</ele>
        <time>2019-03-03T14:52:31Z</time>
      </trkpt>
      <trkpt lat="44.22723" lon="6.1497">
        <ele>1477.68</ele>
        <time>2019-03-03T14:52:44Z</time>
      </trkpt>
      <trkpt lat="44.22722" lon="6.1497">
        <ele>1477.68</ele>
        <time>2019-03-03T14:52:45Z</time>
      </trkpt>
      <trkpt lat="44.22716" lon="6.14968">
        <ele>1476.72</ele>
        <time>2019-03-03T14:52:49Z</time>
      </trkpt>
      <trkpt lat="44.22698" lon="6.14966">
        <ele>1475.28</ele>
        <time>2019-03-03T14:53:04Z</time>
      </trkpt>
      <trkpt lat="44.22683" lon="6.14963">
        <ele>1473.36</ele>
        <time>2019-03-03T14:53:20Z</time>
      </trkpt>
      <trkpt lat="44.22666" lon="6.14961">
        <ele>1471.92</ele>
        <time>2019-03-03T14:53:36Z</time>
      </trkpt>
      <trkpt lat="44.22659" lon="6.1496">
        <ele>1470.95</ele>
        <time>2019-03-03T14:53:44Z</time>
      </trkpt>
      <trkpt lat="44.22645" lon="6.14958">
        <ele>1469.03</ele>
        <time>2019-03-03T14:54:00Z</time>
      </trkpt>
      <trkpt lat="44.22641" lon="6.14961">
        <ele>1468.07</ele>
        <time>2019-03-03T14:54:04Z</time>
      </trkpt>
      <trkpt lat="44.22625" lon="6.14971">
        <ele>1467.11</ele>
        <time>2019-03-03T14:54:18Z</time>
      </trkpt>
      <trkpt lat="44.22622" lon="6.14978">
        <ele>1467.11</ele>
        <time>2019-03-03T14:54:23Z</time>
      </trkpt>
      <trkpt lat="44.22613" lon="6.14982">
        <ele>1465.67</ele>
        <time>2019-03-03T14:54:36Z</time>
      </trkpt>
      <trkpt lat="44.22602" lon="6.14996">
        <ele>1463.74</ele>
        <time>2019-03-03T14:54:51Z</time>
      </trkpt>
      <trkpt lat="44.22601" lon="6.15001">
        <ele>1462.78</ele>
        <time>2019-03-03T14:54:55Z</time>
      </trkpt>
      <trkpt lat="44.22599" lon="6.15014">
        <ele>1462.3</ele>
        <time>2019-03-03T14:55:08Z</time>
      </trkpt>
      <trkpt lat="44.22599" lon="6.15014">
        <ele>1461.82</ele>
        <time>2019-03-03T14:55:13Z</time>
      </trkpt>
      <trkpt lat="44.22598" lon="6.15018">
        <ele>1462.3</ele>
        <time>2019-03-03T14:55:17Z</time>
      </trkpt>
      <trkpt lat="44.22586" lon="6.15032">
        <ele>1460.38</ele>
        <time>2019-03-03T14:55:34Z</time>
      </trkpt>
      <trkpt lat="44.22585" lon="6.15033">
        <ele>1460.38</ele>
        <time>2019-03-03T14:55:36Z</time>
      </trkpt>
      <trkpt lat="44.22572" lon="6.15042">
        <ele>1459.42</ele>
        <time>2019-03-03T14:55:52Z</time>
      </trkpt>
      <trkpt lat="44.22572" lon="6.15038">
        <ele>1457.98</ele>
        <time>2019-03-03T14:55:55Z</time>
      </trkpt>
      <trkpt lat="44.22562" lon="6.15027">
        <ele>1456.53</ele>
        <time>2019-03-03T14:56:10Z</time>
      </trkpt>
      <trkpt lat="44.22561" lon="6.15025">
        <ele>1455.57</ele>
        <time>2019-03-03T14:56:23Z</time>
      </trkpt>
      <trkpt lat="44.22551" lon="6.15025">
        <ele>1453.65</ele>
        <time>2019-03-03T14:56:39Z</time>
      </trkpt>
      <trkpt lat="44.22545" lon="6.15027">
        <ele>1452.69</ele>
        <time>2019-03-03T14:56:44Z</time>
      </trkpt>
      <trkpt lat="44.2253" lon="6.15038">
        <ele>1452.21</ele>
        <time>2019-03-03T14:56:58Z</time>
      </trkpt>
      <trkpt lat="44.22517" lon="6.1505">
        <ele>1451.25</ele>
        <time>2019-03-03T14:57:11Z</time>
      </trkpt>
      <trkpt lat="44.22514" lon="6.15057">
        <ele>1450.77</ele>
        <time>2019-03-03T14:57:16Z</time>
      </trkpt>
      <trkpt lat="44.22507" lon="6.15077">
        <ele>1449.32</ele>
        <time>2019-03-03T14:57:33Z</time>
      </trkpt>
      <trkpt lat="44.22503" lon="6.15085">
        <ele>1447.88</ele>
        <time>2019-03-03T14:57:39Z</time>
      </trkpt>
      <trkpt lat="44.22491" lon="6.15102">
        <ele>1446.44</ele>
        <time>2019-03-03T14:57:53Z</time>
      </trkpt>
      <trkpt lat="44.22481" lon="6.15113">
        <ele>1446.92</ele>
        <time>2019-03-03T14:58:04Z</time>
      </trkpt>
      <trkpt lat="44.22473" lon="6.15125">
        <ele>1445</ele>
        <time>2019-03-03T14:58:19Z</time>
      </trkpt>
      <trkpt lat="44.22462" lon="6.15133">
        <ele>1443.08</ele>
        <time>2019-03-03T14:58:31Z</time>
      </trkpt>
      <trkpt lat="44.22449" lon="6.15144">
        <ele>1442.11</ele>
        <time>2019-03-03T14:58:47Z</time>
      </trkpt>
      <trkpt lat="44.22436" lon="6.15145">
        <ele>1440.67</ele>
        <time>2019-03-03T14:59:02Z</time>
      </trkpt>
      <trkpt lat="44.22435" lon="6.15144">
        <ele>1441.15</ele>
        <time>2019-03-03T14:59:04Z</time>
      </trkpt>
      <trkpt lat="44.22424" lon="6.15149">
        <ele>1439.23</ele>
        <time>2019-03-03T14:59:18Z</time>
      </trkpt>
      <trkpt lat="44.22421" lon="6.15154">
        <ele>1439.71</ele>
        <time>2019-03-03T14:59:24Z</time>
      </trkpt>
      <trkpt lat="44.22417" lon="6.1516">
        <ele>1439.71</ele>
        <time>2019-03-03T14:59:30Z</time>
      </trkpt>
      <trkpt lat="44.22416" lon="6.15165">
        <ele>1439.23</ele>
        <time>2019-03-03T14:59:34Z</time>
      </trkpt>
      <trkpt lat="44.22408" lon="6.1517">
        <ele>1437.31</ele>
        <time>2019-03-03T14:59:45Z</time>
      </trkpt>
      <trkpt lat="44.22402" lon="6.1517">
        <ele>1436.83</ele>
        <time>2019-03-03T14:59:56Z</time>
      </trkpt>
      <trkpt lat="44.224" lon="6.15171">
        <ele>1436.83</ele>
        <time>2019-03-03T15:00:00Z</time>
      </trkpt>
      <trkpt lat="44.22396" lon="6.15174">
        <ele>1436.83</ele>
        <time>2019-03-03T15:00:03Z</time>
      </trkpt>
      <trkpt lat="44.22374" lon="6.15177">
        <ele>1434.42</ele>
        <time>2019-03-03T15:00:20Z</time>
      </trkpt>
      <trkpt lat="44.22371" lon="6.15177">
        <ele>1434.42</ele>
        <time>2019-03-03T15:00:24Z</time>
      </trkpt>
      <trkpt lat="44.22358" lon="6.15174">
        <ele>1432.98</ele>
        <time>2019-03-03T15:00:39Z</time>
      </trkpt>
      <trkpt lat="44.22357" lon="6.15174">
        <ele>1432.5</ele>
        <time>2019-03-03T15:00:42Z</time>
      </trkpt>
      <trkpt lat="44.22349" lon="6.15173">
        <ele>1432.02</ele>
        <time>2019-03-03T15:00:49Z</time>
      </trkpt>
      <trkpt lat="44.22331" lon="6.15173">
        <ele>1430.58</ele>
        <time>2019-03-03T15:01:05Z</time>
      </trkpt>
      <trkpt lat="44.22326" lon="6.15175">
        <ele>1430.58</ele>
        <time>2019-03-03T15:01:08Z</time>
      </trkpt>
      <trkpt lat="44.22313" lon="6.1517">
        <ele>1428.66</ele>
        <time>2019-03-03T15:01:21Z</time>
      </trkpt>
      <trkpt lat="44.22298" lon="6.15173">
        <ele>1426.25</ele>
        <time>2019-03-03T15:01:36Z</time>
      </trkpt>
      <trkpt lat="44.22287" lon="6.15174">
        <ele>1425.77</ele>
        <time>2019-03-03T15:01:48Z</time>
      </trkpt>
      <trkpt lat="44.22282" lon="6.15174">
        <ele>1424.81</ele>
        <time>2019-03-03T15:01:53Z</time>
      </trkpt>
      <trkpt lat="44.22276" lon="6.15172">
        <ele>1424.81</ele>
        <time>2019-03-03T15:01:59Z</time>
      </trkpt>
      <trkpt lat="44.22266" lon="6.15163">
        <ele>1423.37</ele>
        <time>2019-03-03T15:02:10Z</time>
      </trkpt>
      <trkpt lat="44.22251" lon="6.15154">
        <ele>1421.45</ele>
        <time>2019-03-03T15:02:24Z</time>
      </trkpt>
      <trkpt lat="44.22242" lon="6.15153">
        <ele>1420</ele>
        <time>2019-03-03T15:02:33Z</time>
      </trkpt>
      <trkpt lat="44.2223" lon="6.15148">
        <ele>1419.52</ele>
        <time>2019-03-03T15:02:44Z</time>
      </trkpt>
      <trkpt lat="44.22218" lon="6.15156">
        <ele>1417.12</ele>
        <time>2019-03-03T15:03:00Z</time>
      </trkpt>
      <trkpt lat="44.22206" lon="6.15169">
        <ele>1416.16</ele>
        <time>2019-03-03T15:03:15Z</time>
      </trkpt>
      <trkpt lat="44.22193" lon="6.15166">
        <ele>1414.72</ele>
        <time>2019-03-03T15:03:29Z</time>
      </trkpt>
      <trkpt lat="44.22198" lon="6.15162">
        <ele>1412.31</ele>
        <time>2019-03-03T15:03:40Z</time>
      </trkpt>
      <trkpt lat="44.22204" lon="6.15152">
        <ele>1411.35</ele>
        <time>2019-03-03T15:03:49Z</time>
      </trkpt>
      <trkpt lat="44.22207" lon="6.15141">
        <ele>1410.87</ele>
        <time>2019-03-03T15:03:55Z</time>
      </trkpt>
      <trkpt lat="44.22208" lon="6.15134">
        <ele>1410.39</ele>
        <time>2019-03-03T15:03:59Z</time>
      </trkpt>
      <trkpt lat="44.22211" lon="6.15129">
        <ele>1410.39</ele>
        <time>2019-03-03T15:04:03Z</time>
      </trkpt>
      <trkpt lat="44.22212" lon="6.15104">
        <ele>1408.47</ele>
        <time>2019-03-03T15:04:16Z</time>
      </trkpt>
      <trkpt lat="44.22213" lon="6.15097">
        <ele>1407.99</ele>
        <time>2019-03-03T15:04:24Z</time>
      </trkpt>
      <trkpt lat="44.2222" lon="6.15073">
        <ele>1406.55</ele>
        <time>2019-03-03T15:04:38Z</time>
      </trkpt>
      <trkpt lat="44.22221" lon="6.15064">
        <ele>1406.55</ele>
        <time>2019-03-03T15:04:42Z</time>
      </trkpt>
      <trkpt lat="44.22229" lon="6.15043">
        <ele>1405.58</ele>
        <time>2019-03-03T15:04:58Z</time>
      </trkpt>
      <trkpt lat="44.2223" lon="6.15032">
        <ele>1405.1</ele>
        <time>2019-03-03T15:05:06Z</time>
      </trkpt>
      <trkpt lat="44.22228" lon="6.15019">
        <ele>1404.62</ele>
        <time>2019-03-03T15:05:17Z</time>
      </trkpt>
      <trkpt lat="44.22225" lon="6.14993">
        <ele>1403.66</ele>
        <time>2019-03-03T15:05:33Z</time>
      </trkpt>
      <trkpt lat="44.22229" lon="6.14969">
        <ele>1401.26</ele>
        <time>2019-03-03T15:05:49Z</time>
      </trkpt>
      <trkpt lat="44.2224" lon="6.14953">
        <ele>1400.3</ele>
        <time>2019-03-03T15:06:04Z</time>
      </trkpt>
      <trkpt lat="44.2225" lon="6.14956">
        <ele>1398.37</ele>
        <time>2019-03-03T15:06:18Z</time>
      </trkpt>
      <trkpt lat="44.22263" lon="6.14955">
        <ele>1396.93</ele>
        <time>2019-03-03T15:06:27Z</time>
      </trkpt>
      <trkpt lat="44.22273" lon="6.14954">
        <ele>1396.45</ele>
        <time>2019-03-03T15:06:36Z</time>
      </trkpt>
      <trkpt lat="44.22276" lon="6.14963">
        <ele>1395.01</ele>
        <time>2019-03-03T15:06:49Z</time>
      </trkpt>
      <trkpt lat="44.22282" lon="6.14965">
        <ele>1395.97</ele>
        <time>2019-03-03T15:06:56Z</time>
      </trkpt>
      <trkpt lat="44.2229" lon="6.14949">
        <ele>1394.05</ele>
        <time>2019-03-03T15:07:09Z</time>
      </trkpt>
      <trkpt lat="44.223" lon="6.14933">
        <ele>1392.13</ele>
        <time>2019-03-03T15:07:23Z</time>
      </trkpt>
      <trkpt lat="44.22299" lon="6.1492">
        <ele>1390.68</ele>
        <time>2019-03-03T15:07:37Z</time>
      </trkpt>
      <trkpt lat="44.22295" lon="6.14918">
        <ele>1390.2</ele>
        <time>2019-03-03T15:07:40Z</time>
      </trkpt>
      <trkpt lat="44.22279" lon="6.1491">
        <ele>1388.76</ele>
        <time>2019-03-03T15:07:55Z</time>
      </trkpt>
      <trkpt lat="44.22273" lon="6.14904">
        <ele>1387.32</ele>
        <time>2019-03-03T15:08:08Z</time>
      </trkpt>
      <trkpt lat="44.22269" lon="6.14896">
        <ele>1386.84</ele>
        <time>2019-03-03T15:08:21Z</time>
      </trkpt>
      <trkpt lat="44.2226" lon="6.14877">
        <ele>1384.92</ele>
        <time>2019-03-03T15:08:38Z</time>
      </trkpt>
      <trkpt lat="44.2226" lon="6.14861">
        <ele>1383.96</ele>
        <time>2019-03-03T15:08:52Z</time>
      </trkpt>
      <trkpt lat="44.2226" lon="6.1486">
        <ele>1383.96</ele>
        <time>2019-03-03T15:08:53Z</time>
      </trkpt>
      <trkpt lat="44.22263" lon="6.14854">
        <ele>1382.99</ele>
        <time>2019-03-03T15:08:58Z</time>
      </trkpt>
      <trkpt lat="44.22267" lon="6.1484">
        <ele>1381.55</ele>
        <time>2019-03-03T15:09:11Z</time>
      </trkpt>
      <trkpt lat="44.22268" lon="6.14834">
        <ele>1381.55</ele>
        <time>2019-03-03T15:09:16Z</time>
      </trkpt>
      <trkpt lat="44.2227" lon="6.14827">
        <ele>1381.07</ele>
        <time>2019-03-03T15:09:22Z</time>
      </trkpt>
      <trkpt lat="44.22272" lon="6.1482">
        <ele>1380.11</ele>
        <time>2019-03-03T15:09:28Z</time>
      </trkpt>
      <trkpt lat="44.22273" lon="6.14819">
        <ele>1379.63</ele>
        <time>2019-03-03T15:09:30Z</time>
      </trkpt>
      <trkpt lat="44.22278" lon="6.14811">
        <ele>1378.19</ele>
        <time>2019-03-03T15:09:38Z</time>
      </trkpt>
      <trkpt lat="44.22284" lon="6.14803">
        <ele>1378.19</ele>
        <time>2019-03-03T15:09:45Z</time>
      </trkpt>
      <trkpt lat="44.22288" lon="6.14801">
        <ele>1377.23</ele>
        <time>2019-03-03T15:09:48Z</time>
      </trkpt>
      <trkpt lat="44.223" lon="6.14791">
        <ele>1375.78</ele>
        <time>2019-03-03T15:10:02Z</time>
      </trkpt>
      <trkpt lat="44.22315" lon="6.1478">
        <ele>1373.86</ele>
        <time>2019-03-03T15:10:17Z</time>
      </trkpt>
      <trkpt lat="44.22315" lon="6.14769">
        <ele>1371.94</ele>
        <time>2019-03-03T15:10:26Z</time>
      </trkpt>
      <trkpt lat="44.22315" lon="6.14763">
        <ele>1371.94</ele>
        <time>2019-03-03T15:10:30Z</time>
      </trkpt>
      <trkpt lat="44.22313" lon="6.14752">
        <ele>1371.46</ele>
        <time>2019-03-03T15:10:36Z</time>
      </trkpt>
      <trkpt lat="44.22312" lon="6.14742">
        <ele>1370.02</ele>
        <time>2019-03-03T15:10:43Z</time>
      </trkpt>
      <trkpt lat="44.22306" lon="6.14738">
        <ele>1369.05</ele>
        <time>2019-03-03T15:10:48Z</time>
      </trkpt>
      <trkpt lat="44.22303" lon="6.14734">
        <ele>1369.05</ele>
        <time>2019-03-03T15:10:51Z</time>
      </trkpt>
      <trkpt lat="44.22296" lon="6.14725">
        <ele>1367.13</ele>
        <time>2019-03-03T15:10:59Z</time>
      </trkpt>
      <trkpt lat="44.22295" lon="6.14719">
        <ele>1367.61</ele>
        <time>2019-03-03T15:11:03Z</time>
      </trkpt>
      <trkpt lat="44.22295" lon="6.147">
        <ele>1366.17</ele>
        <time>2019-03-03T15:11:18Z</time>
      </trkpt>
      <trkpt lat="44.22294" lon="6.147">
        <ele>1365.69</ele>
        <time>2019-03-03T15:11:19Z</time>
      </trkpt>
      <trkpt lat="44.22289" lon="6.14695">
        <ele>1365.21</ele>
        <time>2019-03-03T15:11:29Z</time>
      </trkpt>
      <trkpt lat="44.2229" lon="6.14686">
        <ele>1365.21</ele>
        <time>2019-03-03T15:11:36Z</time>
      </trkpt>
      <trkpt lat="44.22294" lon="6.14677">
        <ele>1364.73</ele>
        <time>2019-03-03T15:11:44Z</time>
      </trkpt>
      <trkpt lat="44.22294" lon="6.14672">
        <ele>1362.81</ele>
        <time>2019-03-03T15:11:47Z</time>
      </trkpt>
      <trkpt lat="44.22296" lon="6.14667">
        <ele>1362.81</ele>
        <time>2019-03-03T15:11:51Z</time>
      </trkpt>
      <trkpt lat="44.22299" lon="6.14656">
        <ele>1361.84</ele>
        <time>2019-03-03T15:12:01Z</time>
      </trkpt>
      <trkpt lat="44.223" lon="6.14647">
        <ele>1361.84</ele>
        <time>2019-03-03T15:12:07Z</time>
      </trkpt>
      <trkpt lat="44.2231" lon="6.14629">
        <ele>1359.92</ele>
        <time>2019-03-03T15:12:23Z</time>
      </trkpt>
      <trkpt lat="44.2231" lon="6.14625">
        <ele>1358.48</ele>
        <time>2019-03-03T15:12:26Z</time>
      </trkpt>
      <trkpt lat="44.22312" lon="6.14623">
        <ele>1358.48</ele>
        <time>2019-03-03T15:12:28Z</time>
      </trkpt>
      <trkpt lat="44.22317" lon="6.1462">
        <ele>1358</ele>
        <time>2019-03-03T15:12:32Z</time>
      </trkpt>
      <trkpt lat="44.22319" lon="6.14616">
        <ele>1358.48</ele>
        <time>2019-03-03T15:12:35Z</time>
      </trkpt>
      <trkpt lat="44.22324" lon="6.14606">
        <ele>1357.04</ele>
        <time>2019-03-03T15:12:44Z</time>
      </trkpt>
      <trkpt lat="44.22326" lon="6.14602">
        <ele>1356.08</ele>
        <time>2019-03-03T15:12:48Z</time>
      </trkpt>
      <trkpt lat="44.22327" lon="6.14598">
        <ele>1355.12</ele>
        <time>2019-03-03T15:12:51Z</time>
      </trkpt>
      <trkpt lat="44.22317" lon="6.14595">
        <ele>1355.12</ele>
        <time>2019-03-03T15:13:01Z</time>
      </trkpt>
      <trkpt lat="44.22307" lon="6.14597">
        <ele>1354.15</ele>
        <time>2019-03-03T15:13:09Z</time>
      </trkpt>
      <trkpt lat="44.2229" lon="6.14592">
        <ele>1353.19</ele>
        <time>2019-03-03T15:13:26Z</time>
      </trkpt>
      <trkpt lat="44.22275" lon="6.14592">
        <ele>1352.23</ele>
        <time>2019-03-03T15:13:40Z</time>
      </trkpt>
      <trkpt lat="44.22263" lon="6.14596">
        <ele>1350.79</ele>
        <time>2019-03-03T15:13:51Z</time>
      </trkpt>
      <trkpt lat="44.22247" lon="6.14612">
        <ele>1349.35</ele>
        <time>2019-03-03T15:14:08Z</time>
      </trkpt>
      <trkpt lat="44.22235" lon="6.14624">
        <ele>1348.39</ele>
        <time>2019-03-03T15:14:23Z</time>
      </trkpt>
      <trkpt lat="44.22226" lon="6.14634">
        <ele>1347.43</ele>
        <time>2019-03-03T15:14:34Z</time>
      </trkpt>
      <trkpt lat="44.22219" lon="6.1464">
        <ele>1346.94</ele>
        <time>2019-03-03T15:14:41Z</time>
      </trkpt>
      <trkpt lat="44.22218" lon="6.1465">
        <ele>1346.46</ele>
        <time>2019-03-03T15:14:49Z</time>
      </trkpt>
      <trkpt lat="44.22216" lon="6.14656">
        <ele>1345.98</ele>
        <time>2019-03-03T15:14:54Z</time>
      </trkpt>
      <trkpt lat="44.2221" lon="6.14675">
        <ele>1345.02</ele>
        <time>2019-03-03T15:15:08Z</time>
      </trkpt>
      <trkpt lat="44.2221" lon="6.14675">
        <ele>1344.54</ele>
        <time>2019-03-03T15:15:09Z</time>
      </trkpt>
      <trkpt lat="44.222" lon="6.14676">
        <ele>1344.06</ele>
        <time>2019-03-03T15:15:18Z</time>
      </trkpt>
      <trkpt lat="44.22189" lon="6.14658">
        <ele>1343.1</ele>
        <time>2019-03-03T15:15:32Z</time>
      </trkpt>
      <trkpt lat="44.22178" lon="6.14634">
        <ele>1341.18</ele>
        <time>2019-03-03T15:15:48Z</time>
      </trkpt>
      <trkpt lat="44.22168" lon="6.14612">
        <ele>1339.73</ele>
        <time>2019-03-03T15:16:04Z</time>
      </trkpt>
      <trkpt lat="44.22156" lon="6.14601">
        <ele>1338.77</ele>
        <time>2019-03-03T15:16:18Z</time>
      </trkpt>
      <trkpt lat="44.22143" lon="6.14595">
        <ele>1336.37</ele>
        <time>2019-03-03T15:16:32Z</time>
      </trkpt>
      <trkpt lat="44.22126" lon="6.14599">
        <ele>1335.41</ele>
        <time>2019-03-03T15:16:48Z</time>
      </trkpt>
      <trkpt lat="44.2211" lon="6.14607">
        <ele>1333.97</ele>
        <time>2019-03-03T15:17:03Z</time>
      </trkpt>
      <trkpt lat="44.22104" lon="6.14611">
        <ele>1333.97</ele>
        <time>2019-03-03T15:17:09Z</time>
      </trkpt>
      <trkpt lat="44.22102" lon="6.14612">
        <ele>1333.01</ele>
        <time>2019-03-03T15:17:11Z</time>
      </trkpt>
      <trkpt lat="44.2209" lon="6.14621">
        <ele>1332.52</ele>
        <time>2019-03-03T15:17:22Z</time>
      </trkpt>
      <trkpt lat="44.22074" lon="6.14629">
        <ele>1331.08</ele>
        <time>2019-03-03T15:17:37Z</time>
      </trkpt>
      <trkpt lat="44.22059" lon="6.14637">
        <ele>1330.12</ele>
        <time>2019-03-03T15:17:49Z</time>
      </trkpt>
      <trkpt lat="44.22047" lon="6.14654">
        <ele>1329.16</ele>
        <time>2019-03-03T15:18:04Z</time>
      </trkpt>
      <trkpt lat="44.22033" lon="6.14656">
        <ele>1328.68</ele>
        <time>2019-03-03T15:18:17Z</time>
      </trkpt>
      <trkpt lat="44.22008" lon="6.14645">
        <ele>1328.2</ele>
        <time>2019-03-03T15:18:38Z</time>
      </trkpt>
      <trkpt lat="44.21993" lon="6.14636">
        <ele>1326.76</ele>
        <time>2019-03-03T15:18:53Z</time>
      </trkpt>
      <trkpt lat="44.21981" lon="6.14635">
        <ele>1327.24</ele>
        <time>2019-03-03T15:19:07Z</time>
      </trkpt>
      <trkpt lat="44.21969" lon="6.14633">
        <ele>1326.76</ele>
        <time>2019-03-03T15:19:19Z</time>
      </trkpt>
      <trkpt lat="44.2195" lon="6.1463">
        <ele>1326.76</ele>
        <time>2019-03-03T15:19:36Z</time>
      </trkpt>
      <trkpt lat="44.21948" lon="6.1463">
        <ele>1326.28</ele>
        <time>2019-03-03T15:19:38Z</time>
      </trkpt>
      <trkpt lat="44.21941" lon="6.14634">
        <ele>1326.28</ele>
        <time>2019-03-03T15:19:44Z</time>
      </trkpt>
      <trkpt lat="44.21925" lon="6.14651">
        <ele>1326.28</ele>
        <time>2019-03-03T15:20:00Z</time>
      </trkpt>
      <trkpt lat="44.21919" lon="6.14659">
        <ele>1324.83</ele>
        <time>2019-03-03T15:20:08Z</time>
      </trkpt>
      <trkpt lat="44.21911" lon="6.14666">
        <ele>1325.8</ele>
        <time>2019-03-03T15:20:15Z</time>
      </trkpt>
      <trkpt lat="44.21893" lon="6.14688">
        <ele>1326.28</ele>
        <time>2019-03-03T15:20:34Z</time>
      </trkpt>
      <trkpt lat="44.21888" lon="6.14696">
        <ele>1326.28</ele>
        <time>2019-03-03T15:20:40Z</time>
      </trkpt>
      <trkpt lat="44.21882" lon="6.14702">
        <ele>1325.8</ele>
        <time>2019-03-03T15:20:47Z</time>
      </trkpt>
      <trkpt lat="44.21867" lon="6.14718">
        <ele>1323.87</ele>
        <time>2019-03-03T15:21:04Z</time>
      </trkpt>
      <trkpt lat="44.21856" lon="6.14733">
        <ele>1322.43</ele>
        <time>2019-03-03T15:21:18Z</time>
      </trkpt>
      <trkpt lat="44.21856" lon="6.14733">
        <ele>1322.43</ele>
        <time>2019-03-03T15:21:19Z</time>
      </trkpt>
      <trkpt lat="44.21838" lon="6.14743">
        <ele>1321.47</ele>
        <time>2019-03-03T15:21:35Z</time>
      </trkpt>
      <trkpt lat="44.21822" lon="6.14744">
        <ele>1320.03</ele>
        <time>2019-03-03T15:21:51Z</time>
      </trkpt>
      <trkpt lat="44.21819" lon="6.14743">
        <ele>1320.03</ele>
        <time>2019-03-03T15:21:55Z</time>
      </trkpt>
      <trkpt lat="44.21816" lon="6.14744">
        <ele>1320.51</ele>
        <time>2019-03-03T15:21:58Z</time>
      </trkpt>
      <trkpt lat="44.21811" lon="6.14747">
        <ele>1320.03</ele>
        <time>2019-03-03T15:22:08Z</time>
      </trkpt>
      <trkpt lat="44.21808" lon="6.1475">
        <ele>1320.03</ele>
        <time>2019-03-03T15:22:11Z</time>
      </trkpt>
      <trkpt lat="44.21795" lon="6.1477">
        <ele>1320.51</ele>
        <time>2019-03-03T15:22:29Z</time>
      </trkpt>
      <trkpt lat="44.21781" lon="6.14787">
        <ele>1320.03</ele>
        <time>2019-03-03T15:22:46Z</time>
      </trkpt>
      <trkpt lat="44.2178" lon="6.1479">
        <ele>1320.03</ele>
        <time>2019-03-03T15:22:48Z</time>
      </trkpt>
      <trkpt lat="44.21779" lon="6.14796">
        <ele>1320.03</ele>
        <time>2019-03-03T15:22:52Z</time>
      </trkpt>
      <trkpt lat="44.21772" lon="6.14825">
        <ele>1319.55</ele>
        <time>2019-03-03T15:23:13Z</time>
      </trkpt>
      <trkpt lat="44.21766" lon="6.14851">
        <ele>1319.07</ele>
        <time>2019-03-03T15:23:30Z</time>
      </trkpt>
      <trkpt lat="44.21755" lon="6.14861">
        <ele>1319.55</ele>
        <time>2019-03-03T15:23:42Z</time>
      </trkpt>
      <trkpt lat="44.21751" lon="6.14867">
        <ele>1318.59</ele>
        <time>2019-03-03T15:23:47Z</time>
      </trkpt>
      <trkpt lat="44.2175" lon="6.14873">
        <ele>1318.59</ele>
        <time>2019-03-03T15:23:51Z</time>
      </trkpt>
      <trkpt lat="44.21749" lon="6.14894">
        <ele>1319.07</ele>
        <time>2019-03-03T15:24:04Z</time>
      </trkpt>
      <trkpt lat="44.21748" lon="6.14898">
        <ele>1318.59</ele>
        <time>2019-03-03T15:24:07Z</time>
      </trkpt>
      <trkpt lat="44.21735" lon="6.14916">
        <ele>1319.07</ele>
        <time>2019-03-03T15:24:25Z</time>
      </trkpt>
      <trkpt lat="44.21726" lon="6.14928">
        <ele>1318.59</ele>
        <time>2019-03-03T15:24:40Z</time>
      </trkpt>
      <trkpt lat="44.21723" lon="6.14929">
        <ele>1318.59</ele>
        <time>2019-03-03T15:24:55Z</time>
      </trkpt>
      <trkpt lat="44.21721" lon="6.14929">
        <ele>1319.07</ele>
        <time>2019-03-03T15:25:08Z</time>
      </trkpt>
      <trkpt lat="44.21715" lon="6.14912">
        <ele>1320.51</ele>
        <time>2019-03-03T15:25:22Z</time>
      </trkpt>
      <trkpt lat="44.21714" lon="6.14902">
        <ele>1320.99</ele>
        <time>2019-03-03T15:25:35Z</time>
      </trkpt>
      <trkpt lat="44.21712" lon="6.14894">
        <ele>1320.99</ele>
        <time>2019-03-03T15:25:43Z</time>
      </trkpt>
      <trkpt lat="44.21708" lon="6.14885">
        <ele>1320.99</ele>
        <time>2019-03-03T15:25:49Z</time>
      </trkpt>
      <trkpt lat="44.21698" lon="6.14862">
        <ele>1320.99</ele>
        <time>2019-03-03T15:26:07Z</time>
      </trkpt>
      <trkpt lat="44.21695" lon="6.14858">
        <ele>1320.51</ele>
        <time>2019-03-03T15:26:11Z</time>
      </trkpt>
      <trkpt lat="44.21681" lon="6.14848">
        <ele>1320.99</ele>
        <time>2019-03-03T15:26:27Z</time>
      </trkpt>
      <trkpt lat="44.21664" lon="6.1484">
        <ele>1320.51</ele>
        <time>2019-03-03T15:26:44Z</time>
      </trkpt>
      <trkpt lat="44.21651" lon="6.14843">
        <ele>1319.55</ele>
        <time>2019-03-03T15:26:58Z</time>
      </trkpt>
      <trkpt lat="44.2164" lon="6.1485">
        <ele>1318.59</ele>
        <time>2019-03-03T15:27:07Z</time>
      </trkpt>
      <trkpt lat="44.21631" lon="6.14851">
        <ele>1317.62</ele>
        <time>2019-03-03T15:27:15Z</time>
      </trkpt>
      <trkpt lat="44.21625" lon="6.14848">
        <ele>1316.66</ele>
        <time>2019-03-03T15:27:21Z</time>
      </trkpt>
      <trkpt lat="44.21612" lon="6.1484">
        <ele>1315.22</ele>
        <time>2019-03-03T15:27:36Z</time>
      </trkpt>
      <trkpt lat="44.21606" lon="6.14826">
        <ele>1312.82</ele>
        <time>2019-03-03T15:27:50Z</time>
      </trkpt>
      <trkpt lat="44.21604" lon="6.14818">
        <ele>1311.86</ele>
        <time>2019-03-03T15:27:55Z</time>
      </trkpt>
      <trkpt lat="44.21597" lon="6.14811">
        <ele>1310.41</ele>
        <time>2019-03-03T15:28:03Z</time>
      </trkpt>
      <trkpt lat="44.2159" lon="6.14801">
        <ele>1308.49</ele>
        <time>2019-03-03T15:28:11Z</time>
      </trkpt>
      <trkpt lat="44.21586" lon="6.14796">
        <ele>1308.97</ele>
        <time>2019-03-03T15:28:15Z</time>
      </trkpt>
      <trkpt lat="44.21578" lon="6.14789">
        <ele>1307.53</ele>
        <time>2019-03-03T15:28:21Z</time>
      </trkpt>
      <trkpt lat="44.21574" lon="6.14785">
        <ele>1307.53</ele>
        <time>2019-03-03T15:28:24Z</time>
      </trkpt>
      <trkpt lat="44.21571" lon="6.14776">
        <ele>1307.05</ele>
        <time>2019-03-03T15:28:31Z</time>
      </trkpt>
      <trkpt lat="44.21571" lon="6.14773">
        <ele>1307.05</ele>
        <time>2019-03-03T15:28:33Z</time>
      </trkpt>
      <trkpt lat="44.21571" lon="6.14765">
        <ele>1306.57</ele>
        <time>2019-03-03T15:28:39Z</time>
      </trkpt>
      <trkpt lat="44.21566" lon="6.14757">
        <ele>1305.13</ele>
        <time>2019-03-03T15:28:47Z</time>
      </trkpt>
      <trkpt lat="44.21564" lon="6.14753">
        <ele>1305.13</ele>
        <time>2019-03-03T15:28:51Z</time>
      </trkpt>
      <trkpt lat="44.2155" lon="6.14738">
        <ele>1303.2</ele>
        <time>2019-03-03T15:29:07Z</time>
      </trkpt>
      <trkpt lat="44.21541" lon="6.14726">
        <ele>1304.17</ele>
        <time>2019-03-03T15:29:20Z</time>
      </trkpt>
      <trkpt lat="44.21531" lon="6.1472">
        <ele>1305.61</ele>
        <time>2019-03-03T15:29:35Z</time>
      </trkpt>
      <trkpt lat="44.21522" lon="6.14707">
        <ele>1306.09</ele>
        <time>2019-03-03T15:29:50Z</time>
      </trkpt>
      <trkpt lat="44.21523" lon="6.14708">
        <ele>1305.13</ele>
        <time>2019-03-03T15:30:05Z</time>
      </trkpt>
      <trkpt lat="44.21523" lon="6.14708">
        <ele>1305.61</ele>
        <time>2019-03-03T15:30:27Z</time>
      </trkpt>
      <trkpt lat="44.21523" lon="6.14708">
        <ele>1305.13</ele>
        <time>2019-03-03T15:30:54Z</time>
      </trkpt>
      <trkpt lat="44.21523" lon="6.14708">
        <ele>1305.13</ele>
        <time>2019-03-03T15:31:24Z</time>
      </trkpt>
      <trkpt lat="44.21523" lon="6.14708">
        <ele>1304.17</ele>
        <time>2019-03-03T15:32:00Z</time>
      </trkpt>
      <trkpt lat="44.21523" lon="6.14708">
        <ele>1304.65</ele>
        <time>2019-03-03T15:32:33Z</time>
      </trkpt>
      <trkpt lat="44.21523" lon="6.14708">
        <ele>1304.17</ele>
        <time>2019-03-03T15:32:59Z</time>
      </trkpt>
      <trkpt lat="44.21523" lon="6.14709">
        <ele>1303.69</ele>
        <time>2019-03-03T15:33:32Z</time>
      </trkpt>
      <trkpt lat="44.21523" lon="6.14709">
        <ele>1297.44</ele>
        <time>2019-03-03T15:33:55Z</time>
      </trkpt>
      <trkpt lat="44.21523" lon="6.14709">
        <ele>1299.84</ele>
        <time>2019-03-03T15:33:56Z</time>
      </trkpt>
      <trkpt lat="44.21523" lon="6.1471">
        <ele>1307.53</ele>
        <time>2019-03-03T15:33:57Z</time>
      </trkpt>
      <trkpt lat="44.21523" lon="6.1471">
        <ele>1305.61</ele>
        <time>2019-03-03T15:33:58Z</time>
      </trkpt>
      <trkpt lat="44.21523" lon="6.1471">
        <ele>1304.17</ele>
        <time>2019-03-03T15:34:16Z</time>
      </trkpt>
      <trkpt lat="44.21523" lon="6.1471">
        <ele>1296.48</ele>
        <time>2019-03-03T15:34:18Z</time>
      </trkpt>
      <trkpt lat="44.21523" lon="6.1471">
        <ele>1306.57</ele>
        <time>2019-03-03T15:34:19Z</time>
      </trkpt>
      <trkpt lat="44.21523" lon="6.1471">
        <ele>1300.32</ele>
        <time>2019-03-03T15:34:27Z</time>
      </trkpt>
      <trkpt lat="44.21523" lon="6.1471">
        <ele>1305.13</ele>
        <time>2019-03-03T15:34:28Z</time>
      </trkpt>
      <trkpt lat="44.21523" lon="6.1471">
        <ele>1301.76</ele>
        <time>2019-03-03T15:34:29Z</time>
      </trkpt>
      <trkpt lat="44.21523" lon="6.1471">
        <ele>1305.13</ele>
        <time>2019-03-03T15:34:30Z</time>
      </trkpt>
      <trkpt lat="44.21523" lon="6.1471">
        <ele>1301.28</ele>
        <time>2019-03-03T15:34:31Z</time>
      </trkpt>
      <trkpt lat="44.21523" lon="6.1471">
        <ele>1304.65</ele>
        <time>2019-03-03T15:34:32Z</time>
      </trkpt>
      <trkpt lat="44.21523" lon="6.1471">
        <ele>1302.24</ele>
        <time>2019-03-03T15:34:43Z</time>
      </trkpt>
      <trkpt lat="44.21523" lon="6.1471">
        <ele>1305.13</ele>
        <time>2019-03-03T15:34:45Z</time>
      </trkpt>
      <trkpt lat="44.21523" lon="6.1471">
        <ele>1302.24</ele>
        <time>2019-03-03T15:34:47Z</time>
      </trkpt>
      <trkpt lat="44.21523" lon="6.1471">
        <ele>1303.69</ele>
        <time>2019-03-03T15:34:54Z</time>
      </trkpt>
    </trkseg>
  </trk>
</gpx>